[[{"header":{"parameterUnit":"m.s-1","parameterCategory":1,"la1":30.6,"la2":29.2853,"lo1":-89.7004,"lo2":-87.6739,"dy":0.0162,"dx":0.0183,"nx":112,"ny":82,"refTime":"2023-08-04T12:00:00:Z","depth":0,"parameterNumber":2,"parameterNumberName":"U-component_of_WINDS"},"data":[0.0,0.0,0.0,0.0,0.0,0.0,0.0,0.0,0.0,0.0,0.0,0.0,0.0,0.0,0.0,0.0,0.0,0.0,0.0,0.0,0.0,0.0,0.0,0.0,0.0,0.0,0.0,0.0,0.0,0.0,0.0,0.0,0.0,0.0,0.0,0.0,0.0,0.0,0.0,0.0,0.0,0.0,0.0,0.0,0.0,0.0,0.0,0.0,0.0,0.0,0.0,0.0,0.0,0.0,0.0,0.0,0.0,0.0,0.0,0.0,0.0,0.0,0.0,0.0,0.0,0.0,0.0,0.0,0.0,0.0,0.0,0.0,0.0,0.0,0.0,0.0,0.0,0.0,0.0,0.0,0.0,0.0,0.0,0.0,0.0,0.0,0.0,0.0,0.0,0.0,-1.6287,-1.7247,-1.7721,-1.8127,-1.8702,-1.8583,-1.8503,-1.8594,0.0,0.0,0.0,0.0,0.0,0.0,0.0,0.0,0.0,0.0,0.0,0.0,0.0,0.0,0.0,0.0,0.0,0.0,0.0,0.0,0.0,0.0,0.0,0.0,0.0,0.0,0.0,0.0,0.0,0.0,0.0,0.0,0.0,0.0,0.0,0.0,0.0,0.0,0.0,0.0,0.0,0.0,0.0,0.0,0.0,0.0,0.0,0.0,0.0,0.0,0.0,0.0,0.0,0.0,0.0,0.0,0.0,0.0,0.0,0.0,0.0,0.0,0.0,0.0,0.0,0.0,0.0,0.0,0.0,0.0,0.0,0.0,0.0,0.0,0.0,0.0,0.0,0.0,0.0,0.0,0.0,0.0,0.0,0.0,0.0,0.0,0.0,0.0,0.0,0.0,0.0,0.0,0.0,0.0,0.0,0.0,0.0,0.0,0.0,0.0,0.0,0.0,0.0,0.0,-1.6674,-1.781,-1.831,-1.8699,-1.8903,-1.8762,-1.847,-1.8121,0.0,0.0,0.0,0.0,0.0,0.0,0.0,0.0,0.0,0.0,0.0,0.0,0.0,0.0,0.0,0.0,0.0,0.0,0.0,0.0,0.0,0.0,0.0,0.0,0.0,0.0,0.0,0.0,0.0,0.0,0.0,0.0,0.0,0.0,0.0,0.0,0.0,0.0,0.0,0.0,0.0,0.0,0.0,0.0,0.0,0.0,0.0,0.0,0.0,0.0,0.0,0.0,0.0,0.0,0.0,0.0,0.0,0.0,0.0,0.0,0.0,0.0,0.0,0.0,0.0,0.0,0.0,0.0,0.0,0.0,0.0,0.0,0.0,0.0,0.0,0.0,0.0,0.0,0.0,0.0,0.0,0.0,0.0,0.0,0.0,0.0,0.0,0.0,0.0,0.0,0.0,0.0,0.0,0.0,0.0,0.0,0.0,0.0,0.0,0.0,0.0,0.0,0.0,-1.6587,-1.735,-1.8154,-1.8417,-1.8612,-1.8851,-1.8692,-1.8362,-1.804,-1.7901,0.0,0.0,0.0,0.0,0.0,0.0,0.0,0.0,0.0,0.0,0.0,0.0,0.0,0.0,0.0,0.0,0.0,0.0,0.0,0.0,0.0,0.0,0.0,0.0,0.0,0.0,0.0,0.0,0.0,0.0,0.0,0.0,0.0,0.0,0.0,0.0,0.0,0.0,0.0,0.0,0.0,0.0,0.0,0.0,0.0,0.0,0.0,0.0,0.0,0.0,0.0,0.0,0.0,0.0,0.0,0.0,0.0,0.0,0.0,0.0,0.0,0.0,0.0,0.0,0.0,0.0,0.0,0.0,0.0,0.0,0.0,0.0,0.0,0.0,0.0,0.0,0.0,0.0,0.0,0.0,0.0,0.0,0.0,0.0,0.0,0.0,0.0,0.0,0.0,0.0,0.0,0.0,0.0,0.0,0.0,0.0,0.0,0.0,0.0,0.0,0.0,0.0,-1.7371,-1.787,-1.8353,-1.8442,-1.8442,-1.8612,-1.853,-1.8331,-1.8006,-1.8029,0.0,0.0,0.0,0.0,0.0,0.0,0.0,0.0,0.0,0.0,0.0,0.0,0.0,0.0,0.0,0.0,0.0,0.0,0.0,0.0,0.0,0.0,0.0,0.0,0.0,0.0,0.0,0.0,0.0,0.0,0.0,0.0,0.0,0.0,0.0,0.0,0.0,0.0,0.0,0.0,0.0,0.0,0.0,0.0,0.0,0.0,0.0,0.0,0.0,0.0,0.0,0.0,0.0,0.0,0.0,0.0,0.0,0.0,0.0,0.0,0.0,0.0,0.0,0.0,0.0,0.0,0.0,0.0,0.0,0.0,0.0,0.0,0.0,0.0,0.0,0.0,0.0,0.0,0.0,0.0,0.0,0.0,0.0,0.0,0.0,0.0,0.0,0.0,0.0,0.0,0.0,0.0,0.0,0.0,0.0,0.0,0.0,0.0,0.0,0.0,0.0,0.0,-1.7375,-1.7635,-1.8353,-1.8442,-1.8442,-1.8442,-1.8684,-1.8562,-1.7987,-1.8234,0.0,0.0,0.0,0.0,0.0,0.0,0.0,0.0,0.0,0.0,0.0,0.0,0.0,0.0,0.0,0.0,0.0,0.0,0.0,0.0,0.0,0.0,0.0,0.0,0.0,0.0,0.0,0.0,0.0,0.0,0.0,0.0,0.0,0.0,0.0,0.0,0.0,0.0,0.0,0.0,0.0,0.0,0.0,0.0,0.0,0.0,0.0,0.0,0.0,0.0,0.0,0.0,0.0,0.0,0.0,0.0,0.0,0.0,0.0,0.0,0.0,0.0,0.0,0.0,0.0,0.0,0.0,0.0,0.0,0.0,0.0,0.0,0.0,0.0,0.0,0.0,0.0,0.0,0.0,0.0,0.0,0.0,0.0,0.0,0.0,0.0,0.0,0.0,0.0,0.0,0.0,0.0,0.0,0.0,0.0,0.0,0.0,0.0,0.0,0.0,0.0,0.0,-1.7392,-1.7554,0.0,-1.8408,-1.8538,-1.8538,-1.8733,-1.8701,-1.8275,0.0,0.0,0.0,0.0,0.0,0.0,0.0,0.0,0.0,0.0,0.0,0.0,0.0,0.0,0.0,0.0,0.0,0.0,0.0,0.0,0.0,0.0,0.0,0.0,0.0,0.0,0.0,0.0,0.0,0.0,0.0,0.0,0.0,0.0,0.0,0.0,0.0,0.0,0.0,0.0,0.0,0.0,0.0,0.0,0.0,0.0,0.0,0.0,0.0,0.0,0.0,0.0,0.0,0.0,0.0,0.0,0.0,0.0,0.0,0.0,0.0,0.0,0.0,0.0,0.0,0.0,0.0,0.0,0.0,0.0,0.0,0.0,0.0,0.0,0.0,0.0,0.0,0.0,0.0,0.0,0.0,0.0,0.0,0.0,0.0,0.0,0.0,0.0,0.0,0.0,0.0,0.0,0.0,0.0,0.0,0.0,0.0,0.0,0.0,0.0,0.0,0.0,-1.7221,-1.7491,-1.7729,0.0,-1.8471,-1.8684,-1.8684,-1.8784,-1.8742,-1.8472,0.0,0.0,0.0,0.0,0.0,0.0,0.0,0.0,0.0,0.0,0.0,0.0,0.0,0.0,0.0,0.0,0.0,0.0,0.0,0.0,0.0,0.0,0.0,0.0,0.0,0.0,0.0,0.0,0.0,0.0,0.0,0.0,0.0,0.0,0.0,0.0,0.0,0.0,0.0,0.0,0.0,0.0,0.0,0.0,0.0,0.0,0.0,0.0,0.0,0.0,0.0,0.0,0.0,0.0,0.0,0.0,0.0,0.0,0.0,0.0,0.0,0.0,0.0,0.0,0.0,0.0,0.0,0.0,0.0,0.0,0.0,0.0,0.0,0.0,0.0,0.0,0.0,0.0,0.0,0.0,0.0,0.0,0.0,0.0,0.0,0.0,0.0,0.0,0.0,0.0,0.0,0.0,0.0,0.0,0.0,0.0,0.0,0.0,0.0,0.0,0.0,0.0,-1.7057,-1.7622,-1.8104,-1.828,-1.8616,-1.8835,-1.8835,-1.8908,-1.8759,0.0,0.0,0.0,0.0,0.0,0.0,0.0,0.0,0.0,0.0,0.0,0.0,0.0,0.0,0.0,0.0,0.0,0.0,0.0,0.0,0.0,0.0,0.0,0.0,0.0,0.0,0.0,0.0,0.0,0.0,0.0,0.0,0.0,0.0,0.0,0.0,0.0,0.0,0.0,0.0,0.0,0.0,0.0,0.0,0.0,0.0,0.0,0.0,0.0,0.0,0.0,0.0,0.0,0.0,0.0,0.0,0.0,0.0,0.0,0.0,0.0,0.0,0.0,0.0,0.0,0.0,0.0,0.0,0.0,0.0,0.0,0.0,0.0,0.0,0.0,0.0,0.0,0.0,0.0,0.0,0.0,0.0,0.0,0.0,0.0,0.0,0.0,0.0,0.0,0.0,0.0,0.0,0.0,0.0,0.0,0.0,0.0,0.0,0.0,0.0,0.0,0.0,0.0,-1.7347,-1.7831,-1.8136,-1.8385,-1.8725,-1.8949,-1.8949,-1.9101,-1.9034,-1.8669,0.0,0.0,0.0,0.0,0.0,0.0,0.0,0.0,0.0,0.0,0.0,0.0,0.0,0.0,0.0,0.0,0.0,0.0,0.0,0.0,0.0,0.0,0.0,0.0,0.0,0.0,0.0,0.0,0.0,0.0,0.0,0.0,0.0,0.0,0.0,0.0,0.0,0.0,0.0,0.0,0.0,0.0,0.0,0.0,0.0,0.0,0.0,0.0,0.0,0.0,0.0,0.0,0.0,0.0,0.0,0.0,0.0,0.0,0.0,0.0,0.0,0.0,0.0,0.0,0.0,0.0,0.0,0.0,0.0,0.0,0.0,0.0,0.0,0.0,0.0,0.0,0.0,0.0,0.0,0.0,0.0,0.0,0.0,0.0,0.0,0.0,0.0,0.0,0.0,0.0,0.0,0.0,0.0,0.0,0.0,0.0,0.0,0.0,0.0,0.0,0.0,0.0,-1.7461,-1.7945,-1.8257,-1.8513,-1.884,-1.9052,-1.8962,-1.8891,-1.8743,-1.8365,0.0,0.0,0.0,0.0,0.0,0.0,0.0,0.0,0.0,0.0,0.0,0.0,0.0,0.0,0.0,0.0,0.0,0.0,0.0,0.0,0.0,0.0,0.0,0.0,0.0,0.0,0.0,0.0,0.0,0.0,0.0,0.0,0.0,0.0,0.0,0.0,0.0,0.0,0.0,0.0,0.0,0.0,0.0,0.0,0.0,0.0,0.0,0.0,0.0,0.0,0.0,0.0,0.0,0.0,0.0,0.0,0.0,0.0,0.0,0.0,0.0,0.0,0.0,0.0,0.0,0.0,0.0,0.0,0.0,0.0,0.0,0.0,0.0,0.0,0.0,0.0,0.0,0.0,0.0,0.0,0.0,0.0,0.0,0.0,0.0,0.0,0.0,0.0,0.0,0.0,0.0,0.0,0.0,0.0,0.0,0.0,0.0,0.0,0.0,0.0,0.0,0.0,-1.7389,-1.7958,-1.8359,-1.8644,-1.8943,-1.906,-1.8783,-1.8644,-1.8295,-1.7819,0.0,0.0,0.0,0.0,0.0,0.0,0.0,0.0,0.0,0.0,0.0,0.0,0.0,0.0,0.0,0.0,0.0,0.0,0.0,0.0,0.0,0.0,0.0,0.0,0.0,0.0,0.0,0.0,0.0,0.0,0.0,0.0,0.0,0.0,0.0,0.0,0.0,0.0,0.0,0.0,0.0,0.0,0.0,0.0,0.0,0.0,0.0,0.0,0.0,0.0,0.0,0.0,0.0,0.0,0.0,0.0,0.0,0.0,0.0,0.0,-1.1751,0.0,0.0,0.0,0.0,0.0,0.0,0.0,0.0,0.0,0.0,0.0,0.0,0.0,0.0,0.0,0.0,0.0,0.0,0.0,0.0,0.0,0.0,0.0,0.0,0.0,0.0,0.0,0.0,0.0,0.0,0.0,0.0,0.0,0.0,0.0,0.0,0.0,0.0,0.0,0.0,0.0,-1.7558,-1.7857,-1.8157,-1.8257,-1.8566,-1.8673,-1.8673,-1.8831,-1.8791,-1.8199,-1.8094,0.0,0.0,0.0,0.0,0.0,0.0,0.0,0.0,0.0,0.0,0.0,0.0,0.0,0.0,0.0,0.0,0.0,0.0,0.0,0.0,0.0,0.0,0.0,0.0,0.0,0.0,0.0,0.0,0.0,0.0,0.0,0.0,0.0,0.0,0.0,0.0,0.0,0.0,0.0,0.0,0.0,0.0,0.0,0.0,0.0,0.0,0.0,0.0,0.0,0.0,0.0,0.0,0.0,0.0,0.0,0.0,0.0,0.0,0.0,0.0,-1.192,0.0,0.0,0.0,0.0,0.0,0.0,0.0,0.0,0.0,0.0,0.0,0.0,0.0,0.0,0.0,0.0,0.0,0.0,0.0,0.0,0.0,0.0,0.0,0.0,0.0,0.0,0.0,0.0,0.0,0.0,0.0,0.0,0.0,0.0,0.0,0.0,0.0,0.0,0.0,0.0,-1.8033,-1.8278,-1.8479,-1.8575,-1.8631,-1.8544,-1.8446,-1.8505,-1.8306,-1.7903,-1.7704,0.0,0.0,0.0,0.0,0.0,0.0,0.0,0.0,0.0,0.0,0.0,0.0,0.0,0.0,0.0,0.0,0.0,0.0,0.0,0.0,0.0,0.0,0.0,0.0,0.0,0.0,0.0,0.0,0.0,0.0,0.0,0.0,0.0,0.0,0.0,0.0,0.0,0.0,0.0,0.0,0.0,0.0,0.0,0.0,0.0,0.0,0.0,0.0,0.0,0.0,0.0,0.0,0.0,-1.2452,-1.2839,-1.3022,-1.3231,-1.3332,-1.3278,-1.2409,-1.2116,-1.2204,0.0,0.0,0.0,0.0,0.0,0.0,0.0,0.0,0.0,0.0,0.0,0.0,0.0,0.0,0.0,0.0,0.0,0.0,0.0,0.0,0.0,0.0,0.0,0.0,0.0,-1.4422,-1.4832,0.0,0.0,0.0,0.0,0.0,0.0,0.0,0.0,0.0,0.0,0.0,0.0,-1.8412,-1.8518,-1.8617,-1.8807,-1.8654,-1.8386,-1.8287,-1.8039,-1.7767,-1.7566,-1.7062,-1.6759,0.0,0.0,0.0,0.0,0.0,0.0,0.0,0.0,0.0,0.0,0.0,0.0,0.0,0.0,0.0,0.0,0.0,0.0,0.0,0.0,0.0,0.0,0.0,0.0,0.0,0.0,0.0,0.0,0.0,0.0,0.0,0.0,-0.9583,-0.9766,0.0,0.0,0.0,0.0,0.0,0.0,0.0,0.0,0.0,0.0,0.0,0.0,0.0,-1.1139,-1.1553,-1.1591,-1.1882,-1.2265,-1.2422,-1.2547,-1.2728,-1.2763,-1.2774,-1.2768,-1.2637,0.0,-1.3302,-1.3034,0.0,0.0,0.0,0.0,0.0,0.0,0.0,0.0,0.0,0.0,0.0,0.0,0.0,0.0,0.0,0.0,0.0,0.0,0.0,0.0,0.0,0.0,-1.4297,-1.4527,-1.4961,-1.5492,0.0,-1.5789,-1.5865,-1.638,-1.6506,0.0,0.0,0.0,0.0,0.0,0.0,0.0,-1.7605,-1.7704,-1.7704,-1.7704,-1.7945,-1.8115,-1.8006,-1.7957,-1.7893,-1.7573,-1.7265,-1.695,-1.6727,-1.6455,0.0,0.0,0.0,0.0,0.0,0.0,0.0,0.0,0.0,0.0,0.0,0.0,0.0,0.0,0.0,0.0,0.0,0.0,0.0,0.0,0.0,0.0,0.0,0.0,0.0,0.0,0.0,0.0,0.0,-0.9556,-0.9809,-0.9906,-0.9922,-0.9976,0.0,0.0,0.0,0.0,0.0,0.0,0.0,0.0,0.0,-1.1381,-1.151,-1.1682,-1.1892,-1.2073,-1.2218,-1.2409,-1.264,-1.2794,-1.2893,-1.304,-1.3114,-1.3114,-1.3114,-1.3302,-1.3473,-1.3078,-1.2865,-1.2865,0.0,0.0,0.0,0.0,-1.2774,-1.2865,-1.2865,-1.2962,0.0,-1.3053,0.0,0.0,0.0,0.0,0.0,0.0,0.0,0.0,0.0,0.0,-1.4612,-1.4825,-1.5239,-1.5601,-1.5884,-1.6049,-1.6095,0.0,-1.6205,-1.6306,-1.6413,0.0,0.0,0.0,0.0,-1.7414,-1.7723,-1.7867,-1.797,-1.797,-1.814,-1.8104,-1.7996,-1.7793,-1.7649,-1.754,-1.7322,-1.6995,-1.6667,-1.6338,-1.6118,0.0,0.0,0.0,0.0,0.0,0.0,0.0,0.0,0.0,0.0,0.0,0.0,0.0,0.0,0.0,0.0,0.0,0.0,0.0,0.0,0.0,0.0,0.0,0.0,0.0,0.0,0.0,0.0,-0.9814,-0.9922,-0.9922,-0.9976,-1.0089,0.0,0.0,0.0,0.0,0.0,0.0,-1.116,-1.1505,-1.1725,-1.1785,-1.1957,-1.2081,-1.214,-1.2324,-1.2444,-1.251,-1.2936,-1.3143,-1.3155,-1.3419,-1.3498,-1.3436,-1.3436,-1.3344,-1.3311,-1.2969,-1.2783,-1.2783,-1.2783,-1.269,-1.269,-1.269,-1.2822,-1.2873,-1.2873,-1.3012,-1.3063,-1.3063,0.0,-1.3063,-1.3063,0.0,0.0,0.0,0.0,-1.3768,-1.4155,-1.4447,-1.4605,-1.4885,-1.5101,-1.539,-1.5737,-1.5909,-1.6057,0.0,-1.6234,-1.6253,-1.6323,0.0,0.0,0.0,0.0,-1.7394,-1.7822,-1.8009,-1.8143,-1.8143,-1.8123,-1.8144,-1.7916,-1.7582,-1.7359,-1.7247,-1.7018,-1.6682,-1.6352,-1.6127,-1.5902,-1.5569,0.0,0.0,0.0,0.0,0.0,0.0,0.0,0.0,0.0,0.0,0.0,0.0,0.0,0.0,0.0,0.0,0.0,0.0,0.0,0.0,0.0,0.0,0.0,0.0,0.0,0.0,0.0,0.0,0.0,-0.9922,-1.0132,0.0,0.0,0.0,0.0,-1.095,-1.0977,-1.1182,-1.1639,-1.1688,-1.1801,-1.2118,-1.2135,-1.2161,-1.2393,-1.2393,-1.2506,-1.2829,-1.2958,-1.3066,-1.3077,-1.3431,-1.3313,-1.3087,-1.3087,-1.2993,-1.2788,-1.3024,-1.3108,-1.3017,-1.2823,-1.2823,-1.2823,-1.2823,-1.3062,-1.3452,-1.3452,-1.3702,-1.4095,-1.4095,-1.4095,-1.4095,-1.4095,-1.4095,0.0,0.0,-1.4123,-1.4134,-1.4247,-1.4259,-1.4333,-1.459,-1.4647,-1.4784,-1.5264,-1.5482,-1.5805,0.0,-1.7003,-1.7085,-1.7344,0.0,-1.7407,-1.7414,-1.742,-1.7544,-1.7544,-1.7556,-1.7563,-1.7563,-1.7576,-1.7588,-1.7588,-1.7241,-1.7018,-1.6694,-1.6352,-1.6127,-1.5795,-1.5682,-1.5569,-1.5338,-1.5338,0.0,0.0,0.0,0.0,0.0,0.0,0.0,0.0,0.0,0.0,0.0,0.0,0.0,0.0,0.0,0.0,0.0,0.0,0.0,0.0,0.0,0.0,0.0,0.0,0.0,0.0,0.0,0.0,-1.0164,-1.0369,0.0,-1.0724,-1.081,-1.0961,-1.1203,-1.1359,-1.1521,-1.1693,-1.1989,-1.2199,-1.228,-1.2431,-1.2624,-1.2856,-1.2856,-1.298,-1.3222,-1.3308,-1.3346,-1.3346,-1.3227,-1.3115,-1.303,-1.2827,-1.273,-1.2628,-1.2744,-1.2809,-1.2809,-1.2713,-1.2713,-1.2713,-1.2713,-1.276,-1.2929,-1.2929,-1.3185,-1.3464,-1.3674,-1.3777,-1.3777,-1.3777,-1.3777,-1.3777,-1.3777,-1.3887,-1.4003,-1.4216,-1.4333,-1.4612,-1.4973,-1.5144,-1.5241,-1.5472,-1.5546,-1.5704,-1.6321,-1.6334,-1.6251,-1.634,-1.6357,-1.6357,-1.6357,-1.6576,-1.6688,-1.6912,-1.7291,-1.7516,-1.7522,-1.7443,-1.7432,-1.7207,-1.6854,-1.6617,-1.6501,-1.6501,-1.6275,-1.5937,-1.5937,-1.5815,-1.546,-1.5226,-1.5104,0.0,0.0,0.0,0.0,0.0,0.0,0.0,0.0,0.0,0.0,0.0,0.0,0.0,0.0,0.0,0.0,0.0,0.0,0.0,0.0,0.0,0.0,0.0,0.0,0.0,0.0,-1.0406,-1.0406,-1.0616,-1.081,-1.0966,-1.1058,-1.1209,-1.1451,-1.1612,-1.1768,-1.193,-1.2242,-1.2452,-1.2533,-1.2759,-1.2953,-1.3104,-1.319,-1.3313,-1.348,-1.3453,-1.349,-1.349,-1.3257,-1.3039,-1.2961,-1.2858,-1.265,-1.2551,-1.2551,-1.2596,-1.2541,-1.26,-1.2643,-1.2643,-1.2643,-1.2688,-1.2764,-1.2845,-1.2975,-1.3189,-1.3404,-1.3404,-1.3404,-1.3404,-1.3404,-1.3404,-1.3404,-1.3562,-1.3735,-1.4062,-1.4239,-1.4449,-1.4833,-1.4871,-1.4937,-1.5296,-1.5352,-1.5538,-1.5898,-1.5862,-1.5835,-1.5915,-1.5932,-1.5932,-1.5932,-1.6155,-1.6383,-1.6498,-1.699,-1.7219,-1.7225,-1.7149,-1.7015,-1.6903,-1.6655,-1.6419,-1.6425,-1.6425,-1.6194,-1.5963,-1.5844,-1.5601,-1.5477,-1.5121,-1.4883,-1.4759,0.0,0.0,0.0,0.0,0.0,0.0,0.0,0.0,0.0,0.0,0.0,0.0,0.0,0.0,0.0,0.0,0.0,0.0,0.0,0.0,0.0,0.0,0.0,-1.1042,-1.0805,-1.0649,-1.0649,-1.0853,-1.0999,-1.1004,-1.1219,-1.1456,-1.1693,-1.1715,-1.1925,-1.2388,-1.242,-1.2533,-1.2764,-1.2985,-1.3114,-1.3125,-1.3367,-1.3491,-1.3502,-1.3409,-1.3404,-1.3414,-1.3321,-1.3194,-1.2981,-1.2981,-1.2775,-1.2467,-1.2467,-1.2481,-1.2398,-1.2521,-1.256,-1.256,-1.256,-1.2799,-1.3012,-1.3239,-1.3315,-1.332,-1.3325,-1.3325,-1.3325,-1.3335,-1.3335,-1.3335,-1.3335,-1.3487,-1.3649,-1.3649,-1.3703,-1.3868,-1.3873,-1.3878,-1.4053,-1.4629,-1.4792,-1.4977,-1.5435,-1.5887,-1.6147,-1.638,-1.6425,-1.6431,-1.6419,-1.6543,0.0,-1.6537,-1.6537,-1.6537,-1.6537,-1.6537,-1.6537,-1.6537,-1.6537,-1.6307,-1.6081,-1.6087,-1.5963,-1.5601,-1.5235,-1.5116,-1.5116,-1.4769,-1.4416,-1.4172,0.0,0.0,0.0,0.0,0.0,0.0,0.0,0.0,0.0,0.0,0.0,0.0,0.0,0.0,0.0,0.0,0.0,0.0,0.0,0.0,0.0,0.0,-1.1402,-1.107,-1.1029,-1.1051,-1.0885,-1.1101,-1.1316,-1.1488,-1.1564,-1.1698,-1.1935,-1.2118,-1.2274,-1.2409,-1.2576,-1.2775,-1.3001,-1.3071,-1.327,-1.362,-1.369,-1.382,-1.3997,-1.373,-1.3654,-1.3547,-1.3176,-1.2955,-1.2896,-1.268,-1.2464,-1.2464,-1.2464,-1.2389,-1.2427,-1.2421,-1.2481,-1.2481,-1.2481,-1.2519,-1.2577,-1.2861,-1.2989,-1.3123,-1.3387,-1.3548,-1.3578,-1.3633,-1.3688,-1.3688,-1.3688,-1.3728,-1.3773,-1.3773,-1.3818,-1.3908,-1.4179,-1.422,-1.4281,-1.4626,-1.4682,-1.4816,-1.5105,-1.5443,-1.5731,-1.5855,-1.5975,-1.603,-1.5861,-1.622,0.0,-1.6222,-1.6425,-1.6537,-1.6537,-1.6312,-1.62,-1.62,-1.5957,-1.5833,-1.572,-1.5477,-1.5353,-1.5235,-1.4883,-1.465,-1.4411,-1.4411,-1.4172,0.0,0.0,0.0,0.0,0.0,0.0,0.0,0.0,0.0,0.0,0.0,0.0,0.0,0.0,0.0,0.0,0.0,0.0,0.0,0.0,0.0,0.0,-1.2054,-1.1866,-1.1657,-1.1431,-1.1256,-1.1273,-1.1408,-1.1591,-1.1822,-1.1844,-1.1946,-1.2183,-1.2334,-1.2457,-1.2554,-1.278,-1.2969,-1.3104,-1.3297,-1.3534,-1.382,-1.3922,-1.3939,-1.3975,-1.3645,-1.3423,-1.3315,-1.2876,-1.2659,0.0,-1.2441,-1.2441,-1.2441,-1.2441,-1.2441,0.0,0.0,0.0,0.0,0.0,-1.263,-1.2701,-1.2928,-1.2928,-1.3058,-1.3292,-1.3443,-1.3468,-1.3482,-1.3521,-1.3521,-1.3521,-1.3595,-1.3663,-1.3663,-1.3727,-1.3825,-1.4065,-1.4094,-1.4134,-1.4386,-1.4411,-1.453,-1.4883,-1.5068,0.0,-1.5288,-1.5825,-1.6054,-1.5919,-1.6051,-1.6145,-1.6128,-1.6137,-1.607,-1.607,-1.5957,-1.5844,-1.5844,-1.5596,0.0,0.0,0.0,-1.4883,-1.4759,-1.453,0.0,0.0,0.0,-1.3928,-1.3688,0.0,0.0,0.0,-1.3825,-1.3825,0.0,0.0,0.0,0.0,0.0,0.0,0.0,0.0,0.0,0.0,0.0,0.0,0.0,0.0,0.0,0.0,-1.2365,-1.2439,-1.2381,-1.1777,-1.151,-1.1715,-1.1741,-1.1828,-1.2064,-1.2091,-1.2188,-1.2436,-1.2457,-1.2554,-1.2786,0.0,0.0,0.0,0.0,-1.3836,-1.3863,-1.4083,-1.4083,-1.3753,-1.3423,-1.3207,-1.2881,-1.255,-1.2441,-1.2441,-1.2441,-1.2441,-1.2441,-1.2441,-1.2455,-1.2479,-1.2479,-1.2488,-1.2535,-1.2729,-1.2913,-1.3065,-1.3065,0.0,0.0,-1.3098,-1.3102,-1.2993,-1.3131,-1.3136,-1.3136,-1.3136,-1.3277,-1.3424,-1.3424,-1.3556,-1.3688,-1.3688,-1.3688,-1.3808,-1.4052,-1.4172,-1.4172,-1.453,-1.4832,-1.4988,-1.5013,-1.57,-1.622,-1.6193,-1.6028,-1.5889,-1.5835,-1.5648,-1.5509,-1.5483,0.0,0.0,-1.5477,-1.524,-1.4997,-1.4997,-1.4769,-1.4411,-1.4172,-1.4172,-1.4052,-1.3688,-1.3688,-1.3703,-1.3726,-1.3915,-1.4024,-1.4048,-1.4048,-1.4048,0.0,0.0,0.0,0.0,0.0,0.0,0.0,0.0,0.0,0.0,0.0,0.0,0.0,0.0,0.0,-1.2383,-1.2433,-1.2359,-1.2403,-1.215,-1.193,-1.1973,-1.1978,-1.2075,-1.2323,-1.2344,-1.2441,-1.2678,-1.2694,-1.2797,-1.3023,-1.3082,0.0,-1.3669,-1.3771,-1.3916,-1.4121,-1.4169,-1.4196,-1.4083,0.0,0.0,-1.3207,-1.2659,-1.2441,-1.2441,-1.2441,-1.2441,-1.2441,-1.2441,-1.2545,-1.2706,-1.2706,-1.2805,-1.2951,-1.2994,-1.3036,-1.3065,-1.3065,-1.295,-1.2749,-1.2919,-1.2741,-1.2646,-1.304,-1.3209,0.0,-1.3566,-1.3599,-1.3632,-1.3632,-1.366,-1.3688,-1.3688,-1.3688,-1.3688,-1.3808,-1.3808,-1.3928,-1.4172,-1.4464,-1.4784,-1.5211,-1.5554,-1.5645,-1.5581,-1.5548,-1.5508,-1.5268,-1.5186,-1.5088,-1.4789,-1.4769,-1.4769,-1.4769,-1.4769,-1.465,-1.465,-1.4411,-1.4172,-1.3808,-1.3808,-1.3808,-1.3688,-1.3688,-1.3773,-1.3948,-1.3991,-1.4095,-1.4255,-1.4255,-1.4255,0.0,0.0,0.0,0.0,0.0,0.0,0.0,0.0,0.0,0.0,0.0,-1.1778,0.0,0.0,-1.2133,-1.2374,-1.2417,-1.2456,-1.2576,-1.2498,-1.2361,-1.2248,-1.2231,-1.2323,-1.2565,-1.2587,-1.2641,-1.2754,-1.2867,-1.2985,-1.3098,-1.3335,-1.3572,-1.3809,-1.3943,-1.4067,-1.4196,-1.4196,-1.4083,-1.397,-1.3537,-1.3207,-1.3098,-1.2659,-1.2441,-1.2441,-1.2441,-1.2441,-1.2446,-1.2559,-1.2791,-1.3079,-1.3079,-1.314,-1.323,-1.323,-1.3291,-1.3381,-1.3259,-1.3021,-1.2922,-1.279,-1.2702,-1.2596,-1.2813,-1.296,-1.296,-1.3204,-1.3324,-1.3444,-1.3444,-1.3569,-1.3688,-1.3688,-1.3688,-1.3688,-1.3688,-1.3688,-1.3808,-1.3933,-1.4101,-1.4279,-1.4632,-1.4827,-1.5135,-1.562,-1.564,-1.5524,-1.518,-1.5044,-1.4897,-1.468,-1.4655,-1.4655,-1.4655,-1.4535,-1.4291,-1.4172,-1.4052,-1.3813,-1.3688,-1.3688,-1.3688,-1.3688,-1.3672,-1.3658,-1.3764,-1.3719,-1.3865,-1.3961,-1.4189,-1.444,0.0,0.0,0.0,0.0,0.0,0.0,0.0,0.0,-1.1663,-1.172,-1.1673,-1.1658,-1.1983,-1.2026,-1.2106,-1.2347,-1.2384,-1.247,-1.2797,-1.2829,-1.278,-1.2641,-1.2538,-1.2554,-1.2748,-1.2802,-1.2829,-1.2829,-1.3044,-1.3195,-1.3243,-1.361,-1.3841,-1.389,-1.4089,-1.4196,-1.4196,-1.4196,-1.4083,-1.3753,-1.3537,-1.3207,-1.2989,-1.2659,-1.2441,-1.2441,-1.2441,-1.2465,-1.2521,-1.2739,-1.3051,-1.3395,-1.3433,-1.3447,-1.3447,-1.3447,-1.3551,-1.3569,-1.3324,-1.3084,-1.2964,-1.2719,-1.2603,-1.2483,-1.2599,-1.2599,-1.2599,-1.2719,-1.284,-1.3084,-1.3084,-1.3324,-1.3569,-1.3569,-1.3688,-1.3688,-1.3688,-1.3688,-1.3688,-1.3688,-1.383,-1.3962,-1.4005,-1.4147,-1.463,-1.5525,-1.5435,-1.5246,-1.5022,-1.4966,-1.4654,-1.4436,-1.4411,-1.4411,-1.4411,-1.4172,-1.3933,-1.3688,-1.3688,-1.3569,-1.3569,-1.3569,-1.3569,-1.3569,-1.3409,-1.3409,-1.345,-1.3554,-1.3616,-1.3655,-1.407,-1.4451,-1.1413,-1.1241,-1.1073,-1.0901,-1.0997,-1.1147,0.0,0.0,-1.1363,-1.1684,-1.1548,-1.1436,-1.1665,-1.1611,-1.1782,-1.2297,-1.2431,-1.2607,-1.3034,-1.3066,-1.3141,-1.3335,-1.2985,-1.2732,-1.2759,-1.2947,-1.3066,-1.3066,-1.3297,-1.3523,-1.3728,-1.3793,-1.3922,-1.4148,-1.418,-1.4196,-1.4196,-1.4196,-1.4191,-1.4191,-1.3862,-1.3537,-1.3207,-1.2989,-1.2659,-1.2441,-1.2441,-1.255,-1.2748,-1.2951,-1.3173,-1.3405,-1.3584,-1.3655,-1.3655,-1.3655,-1.355,-1.3204,-1.3204,-1.284,-1.2359,-1.2238,-1.2126,-1.1893,-1.2238,-1.2238,-1.2359,-1.2599,-1.2719,-1.2719,-1.2719,-1.2964,-1.3204,-1.3204,-1.3444,-1.3688,-1.3688,-1.3688,-1.3688,-1.3688,-1.3707,-1.3788,-1.3981,-1.4029,-1.4118,-1.4471,-1.4485,-1.4399,-1.4194,-1.4147,-1.4051,-1.3832,-1.3808,-1.3808,-1.3808,-1.3808,-1.3688,-1.3688,-1.3449,-1.3204,-1.3204,-1.2964,-1.284,-1.284,-1.2917,-1.3102,-1.3269,-1.3493,-1.3686,-1.3849,-1.3866,-1.4128,-1.0987,-1.0901,0.0,0.0,-1.0835,-1.105,-1.1143,-1.1261,-1.1329,-1.1553,-1.151,-1.1576,-1.1798,-1.1844,-1.1874,0.0,-1.2175,-1.2253,-1.2584,-1.2615,-1.2803,-1.3136,-1.2994,-1.2973,-1.3179,-1.3265,-1.3324,-1.3324,-1.3545,-1.3717,-1.3814,-1.3959,-1.4083,-1.4191,-1.4196,-1.4196,-1.4196,-1.4196,-1.4083,-1.3867,-1.3645,-1.3315,-1.3098,-1.2767,-1.255,-1.2446,-1.2578,-1.2748,-1.2956,-1.3169,-1.3377,-1.357,-1.3416,-1.3449,-1.3449,-1.3449,-1.3324,-1.3084,-1.2719,-1.2479,-1.2118,-1.2005,-1.1893,-1.1776,-1.1889,-1.201,-1.201,-1.213,-1.2242,-1.2359,-1.2359,-1.2719,-1.2964,-1.2964,-1.3204,-1.3449,-1.3449,-1.3569,-1.3688,-1.3688,-1.3688,-1.3717,-1.3807,-1.3825,-1.3854,-1.3934,-1.4156,-1.4237,-1.4038,-1.401,-1.3929,-1.3712,-1.3688,-1.3688,-1.3688,-1.3569,-1.3449,-1.3449,-1.3084,-1.2964,-1.2964,-1.2719,-1.2719,-1.2719,-1.2785,-1.2979,-1.3056,-1.31,-1.3156,-1.3227,-1.349,-1.3625,-1.0299,0.0,0.0,-1.0381,-1.0642,-1.0915,-1.0975,-1.1156,-1.1371,-1.1502,-1.1552,-1.1596,-1.1755,-1.1785,-1.1785,-1.1883,-1.1883,-1.1983,-1.237,-1.241,-1.2516,-1.3008,-1.3039,-1.3148,-1.3466,-1.3506,-1.3572,-1.3572,-1.3787,-1.3922,-1.3922,-1.4094,-1.4196,-1.4196,-1.4196,-1.4196,-1.4083,-1.4083,-1.3862,-1.3645,-1.3423,-1.3207,-1.2881,-1.255,-1.2474,-1.2535,-1.2701,-1.2913,-1.3053,-1.3208,-1.3386,-1.3444,-1.3204,-1.3084,-1.3084,-1.2964,-1.2964,-1.284,-1.2359,-1.2118,-1.2001,-1.1893,-1.1776,-1.1776,-1.1776,-1.1776,-1.1776,-1.1776,-1.1889,-1.2122,-1.2122,-1.2359,-1.2599,-1.2599,-1.284,-1.3084,-1.3084,-1.3204,-1.3449,-1.3449,-1.3449,-1.3569,-1.3569,-1.3688,-1.3688,-1.3688,-1.3944,-1.4085,-1.3944,-1.3925,-1.3863,-1.3707,-1.3569,-1.3569,-1.3569,-1.3204,-1.3084,-1.3084,-1.2719,-1.2599,-1.2599,-1.2483,-1.2483,-1.2483,-1.2619,-1.2687,-1.2687,-1.2795,-1.2836,-1.2836,-1.3104,-1.3235,0.0,0.0,-0.9602,-0.9602,-1.0112,-1.068,-1.0977,-1.1101,-1.1321,-1.1531,-1.138,-1.1184,-1.1194,-1.1194,-1.1292,-1.159,-1.159,-1.1836,-1.247,-1.2633,-1.2799,-1.3244,-1.3295,-1.3295,0.0,-1.363,-1.3809,-1.3809,-1.404,-1.4186,-1.4186,-1.4191,-1.4196,-1.4196,-1.4196,-1.4083,-1.3753,-1.3753,-1.3532,-1.3315,-1.3315,-1.3207,-1.2881,-1.255,-1.2554,-1.2758,-1.2767,-1.2885,-1.2908,-1.2912,-1.279,-1.2719,-1.2719,-1.2719,-1.2719,-1.2359,-1.2234,-1.2234,-1.2238,-1.2005,-1.1776,-1.1776,-1.1776,-1.1776,-1.1776,-1.1776,-1.1776,-1.1776,-1.1776,-1.1776,-1.1776,-1.2005,-1.2238,-1.2238,-1.2479,-1.2719,-1.2719,-1.2719,-1.2719,-1.2719,-1.296,-1.3204,-1.3204,-1.3444,-1.3688,-1.3688,-1.3698,-1.3707,-1.3698,-1.3698,-1.3698,-1.3688,-1.3449,-1.3204,-1.3204,-1.2964,-1.2719,-1.2719,-1.2359,-1.2238,-1.2238,-1.201,-1.1776,-1.1776,-1.2125,-1.2308,-1.2308,-1.2661,-1.2836,-1.2836,-1.2836,-1.2972,-0.9262,0.0,-0.9432,-0.9602,-0.9846,-1.0234,-1.0619,-1.0834,-1.1044,-1.1253,-1.1096,-1.09,-1.09,-1.0801,-1.0801,-1.0998,-1.1096,-1.1293,-1.1784,-1.1937,-1.2239,-1.2748,-1.2906,0.0,0.0,0.0,0.0,-1.3741,-1.3814,-1.3975,-1.4191,-1.4196,-1.4083,-1.3862,-1.3862,-1.3753,-1.3428,-1.3423,-1.3315,-1.2989,-1.2767,-1.2659,-1.255,-1.2441,-1.2559,-1.2776,-1.2678,-1.2777,-1.2926,-1.2812,-1.2786,-1.2719,-1.2479,-1.2359,-1.2359,-1.2005,-1.1889,-1.1889,-1.1889,-1.1893,-1.1776,-1.1776,-1.1776,-1.1776,-1.1776,-1.1776,-1.1776,-1.1776,-1.1776,-1.1776,-1.1776,-1.1893,-1.1889,-1.1889,-1.2126,-1.2359,-1.2359,-1.2599,-1.2719,-1.2719,-1.284,-1.2844,-1.2844,-1.2964,-1.3084,-1.3084,-1.3449,-1.3569,-1.3444,-1.3329,-1.3324,-1.3084,-1.296,-1.2844,-1.2844,-1.2599,-1.2359,-1.2359,-1.2126,-1.1889,-1.1889,-1.1897,-1.1776,-1.1776,-1.2125,-1.2308,-1.2308,-1.2661,-1.2836,-1.2836,-1.2836,-1.2836,-0.9087,-0.9087,-0.9174,-0.9345,-0.958,-0.9872,-1.0251,-1.0453,-1.066,-1.0858,-1.0806,-1.0708,-1.0708,-1.0511,-1.0413,-1.0605,-1.0708,-1.078,-1.1285,-1.1425,-1.1817,-1.2322,-1.2578,-1.269,0.0,0.0,0.0,-1.3532,-1.3537,-1.3645,-1.3862,-1.3867,-1.3753,-1.3532,-1.3537,-1.3423,-1.3207,-1.3207,-1.2989,-1.2772,-1.255,-1.2441,-1.2441,-1.2521,-1.2562,-1.2772,-1.2744,-1.2714,-1.2667,-1.2551,-1.2479,-1.2367,-1.2122,-1.2001,-1.2005,-1.1893,-1.1736,-1.1687,-1.1752,-1.1776,-1.1776,-1.1776,-1.1776,-1.1776,-1.1776,-1.1776,-1.1776,-1.1776,-1.1776,-1.1776,-1.1776,-1.1776,-1.1776,-1.1776,-1.1889,-1.2001,-1.2001,-1.2247,-1.2367,-1.2367,-1.2483,-1.2479,-1.2479,-1.2599,-1.2719,-1.2719,-1.3084,-1.3204,-1.3084,-1.2964,-1.296,-1.2719,-1.2599,-1.2479,-1.2479,-1.2242,-1.2001,-1.2001,-1.1893,-1.1776,-1.1776,-1.1776,-1.1776,-1.1776,-1.2125,-1.2308,-1.2308,-1.2661,-1.2836,-1.2836,-1.2836,-1.2836,-0.8568,-0.874,-0.8911,-0.8911,-0.9216,-0.9574,-0.9776,-0.9965,-1.0154,-1.0356,-1.0404,-1.0413,0.0,0.0,-1.0314,-1.0413,-1.0413,-1.0578,-1.097,-1.1107,-1.136,0.0,0.0,0.0,0.0,0.0,0.0,-1.3207,0.0,-1.3315,-1.3315,-1.3315,-1.3315,-1.3315,-1.3315,-1.3098,-1.2881,-1.2881,-1.2659,-1.2441,-1.2441,-1.2441,-1.2446,-1.2654,-1.2754,-1.2616,-1.2812,-1.2658,-1.2234,-1.2238,-1.2005,-1.1776,-1.1764,-1.176,-1.176,-1.1752,-1.1634,-1.1508,-1.1687,-1.1756,-1.1764,-1.1776,-1.1776,-1.1776,-1.1776,-1.1776,-1.1776,-1.1776,-1.1776,-1.1776,-1.1776,-1.1776,-1.1776,-1.1776,-1.1776,-1.1776,-1.1776,-1.1776,-1.1776,-1.1776,-1.2005,-1.2238,-1.2238,-1.2479,-1.2719,-1.2719,-1.2719,-1.2719,-1.2719,-1.2719,-1.2719,-1.2719,-1.2359,-1.2238,-1.2238,-1.1889,-1.1776,-1.1776,-1.1776,-1.1776,-1.1776,-1.1776,-1.178,-1.1788,-1.213,-1.2312,-1.232,-1.2666,-1.2836,-1.2836,-1.2836,-1.2836,-0.8292,-0.8472,-0.874,-0.8823,-0.9033,-0.9203,-0.9569,-0.9763,-0.996,-1.0149,-1.0112,-1.0117,0.0,0.0,0.0,-1.0117,-1.0117,0.0,-1.0578,-1.072,0.0,-1.136,0.0,-1.1949,-1.2103,-1.2351,0.0,0.0,-1.2876,-1.3098,-1.3315,-1.3315,-1.3207,-1.2989,-1.2989,-1.2881,-1.255,-1.255,-1.2441,-1.2441,-1.2441,-1.2441,-1.2441,-1.2279,-1.2386,-1.2607,-1.2197,-1.2055,-1.2238,-1.201,-1.1893,-1.1764,-1.1626,-1.1569,-1.1553,-1.1415,-1.1334,-1.1297,-1.135,-1.1455,-1.1593,-1.1732,-1.1776,-1.1776,-1.1776,-1.1776,-1.1776,-1.1776,-1.1776,-1.1776,-1.1776,-1.1776,-1.1776,-1.1776,-1.1776,-1.1776,-1.1776,-1.1776,-1.1776,-1.1776,-1.1893,-1.1893,-1.1893,-1.2122,-1.2242,-1.201,-1.2242,-1.2354,-1.2354,-1.2354,-1.2238,-1.201,-1.1893,-1.1893,-1.1893,-1.1897,-1.1776,-1.1776,-1.1776,-1.1776,-1.1776,-1.1776,-1.1837,-1.1963,-1.219,-1.2369,-1.2499,-1.2726,-1.2836,-1.2836,-1.2836,-1.2836,-0.8201,-0.8292,-0.8472,-0.874,-0.874,-0.8874,-0.9139,-0.9262,-0.9389,-0.9579,-0.9669,0.0,0.0,0.0,0.0,0.0,0.0,0.0,-1.0216,-1.0311,-1.0615,0.0,-1.1312,0.0,-1.1882,-1.2186,-1.2309,0.0,-1.2502,-1.2767,-1.2876,-1.2881,-1.2881,-1.2659,-1.2659,-1.255,-1.2441,-1.2441,-1.2441,-1.2441,-1.2441,-1.2332,-1.2223,-1.2211,-1.2153,-1.2025,0.0,-1.1687,-1.1757,-1.1647,-1.1533,-1.1524,-1.1419,-1.1378,-1.1366,-1.1261,-1.1175,-1.1122,-1.1196,-1.124,-1.1309,-1.1569,-1.1654,-1.1671,-1.1752,-1.1776,-1.1776,-1.1776,-1.1776,-1.1776,-1.1776,-1.1776,-1.1776,-1.1776,-1.1776,-1.1776,-1.1776,-1.1776,-1.1776,-1.1776,-1.1776,-1.1776,-1.1776,-1.1889,-1.2005,-1.1776,-1.1889,-1.2005,-1.2005,-1.2005,-1.201,-1.1776,-1.1776,-1.1776,-1.1776,-1.1776,-1.1776,-1.1776,-1.1776,-1.1776,-1.1776,-1.1776,-1.1857,-1.2024,-1.2215,-1.2393,-1.2564,-1.2747,-1.2836,-1.2836,-1.2836,-1.2836,-0.8113,-0.8201,-0.8288,-0.8564,-0.8568,-0.8605,-0.8751,-0.8804,-0.8865,-0.9027,0.0,-0.9319,-0.9319,-0.947,-0.9592,-0.9592,0.0,-0.9727,-0.992,-0.992,-1.0181,-1.0952,-1.0997,-1.118,-1.1761,-1.1968,-1.211,-1.2139,-1.2304,-1.2413,-1.2436,-1.2441,-1.2441,-1.2441,-1.2441,-1.2441,-1.2441,-1.2441,-1.2441,-1.2441,-1.2441,-1.2223,-1.201,-1.2192,-1.1953,-1.1426,-1.1583,0.0,-1.1224,-1.1224,-1.1224,-1.122,-1.1196,-1.1187,-1.1187,-1.1159,-1.1057,-1.0956,-1.1102,-1.1057,-1.0992,-1.135,-1.148,-1.1529,-1.1691,-1.1756,-1.1776,-1.1776,-1.1776,-1.1776,-1.1776,-1.1776,-1.1776,-1.1776,-1.1776,-1.1776,-1.1776,-1.1776,-1.1776,-1.1776,-1.1776,-1.1776,-1.1776,-1.1776,-1.1776,-1.1776,-1.1776,-1.1776,-1.1776,-1.1776,-1.1776,-1.1776,-1.1776,-1.1776,-1.1776,-1.1776,-1.1776,-1.1776,-1.1776,-1.1776,-1.1776,-1.1797,-1.189,-1.2065,-1.2247,-1.2426,-1.2601,-1.2759,-1.2836,-1.2836,-1.2836,-1.2836,-0.7852,-0.8113,-0.8288,-0.8564,-0.8568,-0.8576,-0.8605,-0.8718,0.0,0.0,-0.9015,-0.9141,-0.9141,-0.9287,0.0,-0.9405,0.0,0.0,0.0,0.0,-0.9834,0.0,0.0,0.0,0.0,0.0,0.0,0.0,0.0,-1.2266,-1.2427,-1.2441,-1.2441,-1.2441,-1.2441,-1.2441,-1.2441,-1.2441,-1.2441,-1.2441,-1.2441,-1.2223,-1.2005,-1.1823,-1.1598,-1.1418,-1.1226,0.0,-1.1224,-1.1224,-1.1224,-1.1208,-1.107,-1.1013,-1.0992,-1.0842,-1.0765,-1.0745,-1.0773,-1.0655,-1.0469,-1.104,-1.1374,-1.1504,-1.1537,-1.1654,-1.1776,-1.1776,-1.1776,-1.1776,-1.1776,-1.1776,-1.1776,-1.1776,-1.1776,-1.1776,-1.1776,-1.1776,-1.1776,-1.1776,-1.1776,-1.1776,-1.1776,-1.1776,-1.1776,-1.1776,-1.1776,-1.1776,-1.1776,-1.1776,-1.1776,-1.1776,-1.1776,-1.1776,-1.1776,-1.1776,-1.1776,-1.1776,-1.1776,-1.1776,-1.1776,-1.191,-1.2073,-1.2255,-1.243,-1.2609,-1.2787,-1.2824,-1.2836,-1.2836,-1.2836,-1.2836,-0.7768,-0.794,-0.8116,-0.8476,-0.8568,-0.8568,-0.8568,0.0,0.0,0.0,-0.8828,-0.8954,-0.8954,0.0,0.0,0.0,0.0,0.0,0.0,0.0,0.0,0.0,0.0,0.0,0.0,0.0,0.0,0.0,0.0,-1.211,-1.2422,-1.2441,-1.2441,-1.2441,-1.2441,-1.2441,-1.2441,-1.2441,-1.2441,-1.2441,-1.2223,-1.2005,-1.1787,-1.1459,-1.1181,-1.1048,-1.0937,0.0,-1.0948,-1.0948,-1.0948,-1.094,-1.0854,-1.0826,-1.0814,-1.0724,-1.0692,-1.0692,-1.0582,-1.0363,-1.0284,-1.0443,-1.0615,-1.0786,-1.0973,-1.1205,-1.1411,-1.1499,-1.1651,-1.1776,-1.1776,-1.1776,-1.1776,-1.1776,-1.1776,-1.1776,-1.1776,-1.1776,-1.1776,-1.1776,-1.1776,-1.1776,-1.1776,-1.1776,-1.1776,-1.1776,-1.1776,-1.1776,-1.1776,-1.1776,-1.1776,-1.1776,-1.1776,-1.1776,-1.1776,-1.1776,-1.1776,-1.1776,-1.1776,-1.1776,-1.1776,-1.1939,-1.2117,-1.2304,-1.2475,-1.2653,-1.2836,-1.2836,-1.2836,-1.2836,-1.2836,-1.2836,-0.7764,-0.794,-0.8032,-0.8476,-0.8568,-0.8568,-0.8568,-0.8568,0.0,0.0,-0.8674,-0.8767,-0.8767,0.0,0.0,0.0,0.0,0.0,0.0,0.0,0.0,0.0,0.0,0.0,0.0,0.0,0.0,0.0,0.0,0.0,-1.2356,-1.2417,-1.2441,-1.2441,-1.2441,-1.2441,-1.2441,-1.2441,-1.2441,-1.2441,-1.2114,-1.1896,-1.1568,-1.1236,-1.0911,-1.0692,-1.0692,0.0,0.0,-1.0692,-1.0692,-1.0692,-1.0692,-1.0692,-1.0692,-1.0692,-1.0582,-1.0582,-1.0257,-1.0147,-1.0036,-0.9816,-0.9924,-1.0107,-1.0409,-1.0764,-1.1066,-1.1226,-1.1522,-1.1651,-1.1776,-1.1776,-1.1776,-1.1776,-1.1776,-1.1776,-1.1776,-1.1776,-1.1776,-1.1776,-1.1776,-1.1776,-1.1776,-1.1776,-1.1776,-1.1776,-1.1776,-1.1776,-1.1776,-1.1776,-1.1776,-1.1776,-1.1776,-1.1776,-1.1776,-1.1776,-1.1776,-1.1776,-1.1772,-1.1651,-1.1651,-1.1729,-1.1908,-1.2051,-1.2387,-1.2564,-1.2704,-1.2704,-1.2836,-1.2836,-1.2836,-1.2836,-0.7856,-0.8028,-0.8204,-0.8564,-0.8568,-0.8568,-0.8568,0.0,0.0,-0.8568,-0.858,-0.8593,-0.8593,-0.8731,0.0,0.0,0.0,0.0,0.0,0.0,0.0,0.0,0.0,0.0,0.0,0.0,0.0,0.0,0.0,0.0,-1.2153,-1.2337,-1.2441,-1.2441,-1.2441,-1.2441,-1.2441,-1.2441,-1.2441,-1.2441,-1.2114,-1.1896,-1.1568,-1.1236,-1.0911,-1.0692,-1.0692,0.0,0.0,-1.0692,-1.0692,-1.0692,-1.0692,-1.0692,-1.0692,-1.0476,-1.0366,-1.0257,-0.9926,-0.9706,-0.9489,-0.9489,-0.9701,-1.0085,-1.0271,-1.0435,-1.071,-1.1226,-1.1273,-1.1398,-1.1772,-1.1776,-1.1776,-1.1776,-1.1776,-1.1776,-1.1776,-1.1776,-1.1776,-1.1776,-1.1776,-1.1776,-1.1776,-1.1776,-1.1776,-1.1776,-1.1776,-1.1776,-1.1776,-1.1776,-1.1776,-1.1776,-1.1776,-1.1776,-1.1776,-1.1776,-1.1776,-1.1776,-1.1522,-1.1394,-1.1394,-1.1347,-1.1404,-1.1419,-1.1988,-1.2293,-1.2309,-1.2704,-1.2836,-1.2836,-1.2836,-1.2836,-0.8028,-0.8113,-0.8288,-0.8564,-0.8568,-0.8568,-0.8568,0.0,0.0,-0.8568,-0.8568,-0.8568,-0.8568,-0.8621,-0.8792,0.0,0.0,0.0,0.0,0.0,0.0,0.0,0.0,0.0,0.0,0.0,0.0,0.0,0.0,0.0,-1.1761,-1.2082,-1.2261,-1.2261,-1.2375,-1.2441,-1.2441,-1.2441,-1.2441,-1.2436,-1.2005,-1.1678,-1.1568,-1.1131,-1.0802,-1.0692,-1.0692,0.0,0.0,-1.0692,-1.0692,-1.0692,-1.0472,-1.0472,-1.0476,-1.0147,-1.0036,-0.9926,-0.971,-0.9489,-0.9393,-0.9262,-0.9441,-0.9631,-0.968,-0.9955,-1.035,-1.0624,-1.0789,-1.1031,-1.1402,-1.1651,-1.1776,-1.1776,-1.1776,-1.1776,-1.1776,-1.1776,-1.1776,-1.1776,-1.1776,-1.1776,-1.1776,-1.1776,-1.1776,-1.1776,-1.1776,-1.1776,-1.1776,-1.1776,-1.1776,-1.1776,-1.1776,-1.1776,-1.1776,-1.1776,-1.1651,-1.1522,-1.1398,-1.1152,-1.1031,-1.1238,-1.1292,-1.1292,-1.1743,-1.2045,-1.2309,-1.2441,-1.2572,-1.2836,-1.2836,-1.2836,-0.8201,-0.8288,-0.838,-0.8564,-0.8568,-0.8568,0.0,0.0,0.0,-0.8568,-0.8568,-0.8656,-0.8652,-0.8652,-0.8781,0.0,0.0,-0.9792,0.0,0.0,0.0,0.0,0.0,0.0,0.0,0.0,0.0,0.0,0.0,0.0,0.0,-1.1761,-1.1983,-1.2044,-1.2243,-1.2351,-1.2351,-1.2408,-1.2441,-1.2436,-1.1896,-1.1568,-1.1568,-1.1021,-1.0692,-1.0692,-1.0692,0.0,0.0,-1.0692,-1.0692,-1.0582,-1.0366,-1.0257,-1.0147,-0.9816,-0.9706,-0.9596,-0.9379,-0.93,-0.9353,-0.9233,-0.9215,-0.9306,-0.9415,-0.9641,-0.9996,-1.0261,-1.0547,-1.091,-1.1031,-1.1281,-1.1526,-1.1526,-1.1526,-1.1526,-1.1526,-1.1526,-1.1526,-1.1526,-1.1526,-1.1526,-1.1526,-1.1526,-1.1526,-1.1526,-1.1526,-1.1526,-1.1526,-1.1526,-1.1526,-1.1526,-1.1526,-1.153,-1.1776,-1.1651,-1.1522,-1.1273,-1.1152,-1.091,-1.0668,-1.0816,-1.0991,-1.1038,-1.1434,-1.1728,-1.2045,-1.2177,-1.2441,-1.2704,-1.2704,-1.2704,-0.8201,-0.8384,-0.8568,-0.8568,-0.8568,-0.8568,0.0,0.0,-0.8568,-0.8568,-0.8568,-0.8652,-0.8823,-0.8911,-0.8999,-0.9262,-0.9763,-1.0204,-1.0204,0.0,0.0,0.0,0.0,0.0,0.0,0.0,0.0,0.0,0.0,0.0,0.0,-1.1406,-1.1614,-1.1813,-1.203,-1.2143,-1.2143,-1.2337,-1.2441,-1.2436,-1.1896,-1.1568,-1.1568,-1.1021,-1.0692,0.0,0.0,0.0,0.0,-1.0692,-1.0582,-1.0257,-1.0257,-1.0147,-0.9816,-0.9489,-0.9379,-0.9379,-0.9051,-0.9032,-0.915,-0.9154,-0.9357,-0.9605,-0.9605,-0.9608,-0.9758,-1.0141,-1.0547,-1.0789,-1.0789,-1.0789,-1.0789,-1.0789,-1.0789,-1.0789,-1.0789,-1.0789,-1.0789,-1.0789,-1.0789,-1.0789,-1.0789,-1.0789,-1.0789,-1.0789,-1.0789,-1.0789,-1.0789,-1.0789,-1.0789,-1.0789,-1.0789,-1.1035,-1.1776,-1.1522,-1.1273,-1.1273,-1.0668,-1.0304,-1.0304,-1.0091,-1.0124,-1.0276,-1.0805,-1.1091,-1.1247,-1.1909,-1.2309,-1.2309,-1.2704,-1.2572,-0.8472,-0.8564,-0.8568,-0.8568,-0.8568,-0.8656,-0.874,0.0,-0.8828,-0.8999,-0.9087,-0.9087,-0.9174,-0.9174,-0.9257,-0.9432,-0.992,-1.0419,0.0,0.0,0.0,0.0,0.0,0.0,0.0,0.0,0.0,0.0,0.0,0.0,0.0,-1.126,-1.1392,-1.1605,-1.1954,-1.2139,-1.2139,-1.2337,-1.2441,-1.2436,-1.1896,-1.1568,-1.1568,-1.1021,-1.0692,0.0,0.0,0.0,0.0,-1.0692,-1.0582,-1.0257,-1.0036,-0.9816,-0.9489,-0.9158,-0.9047,-0.9047,-0.8937,-0.9032,-0.9171,-0.9273,-0.9445,-0.9629,-0.9724,-0.9754,-0.9764,-0.993,-1.0183,-1.0425,-1.0425,-1.0668,-1.0789,-1.0789,-1.0789,-1.0789,-1.0789,-1.0789,-1.0789,-1.0789,-1.0789,-1.0789,-1.0789,-1.0789,-1.0789,-1.0789,-1.0789,-1.0789,-1.0789,-1.0789,-1.0789,-1.0789,-1.0789,-1.091,-1.1156,-1.1035,-1.091,-1.0668,-1.0425,-1.0183,-0.9943,-0.9968,-1.0073,-1.012,-1.0397,-1.0628,-1.0934,-1.1191,-1.1449,-1.1577,-1.1705,-1.1705,0.0,-0.8828,-0.8828,-0.8828,-0.8828,0.0,0.0,0.0,-0.9087,-0.9262,-0.9262,-0.9345,-0.9432,-0.9432,-0.9519,-0.9777,-1.013,-1.0614,-1.1007,0.0,0.0,0.0,0.0,0.0,0.0,0.0,0.0,0.0,0.0,0.0,0.0,-1.1194,-1.1255,-1.1392,-1.1803,-1.202,-1.202,-1.2299,-1.2327,-1.2223,-1.1787,-1.1568,-1.135,-1.0911,-1.0692,0.0,0.0,0.0,0.0,-1.0692,-1.0472,-1.0036,-0.9926,-0.9599,-0.9158,-0.8937,-0.894,-0.894,-0.894,-0.9032,-0.9178,-0.9334,-0.952,-0.9707,-0.9795,-0.9822,-0.9822,-0.9822,-0.994,-1.0061,-1.0061,-1.0304,-1.0425,-1.0425,-1.0425,-1.0425,-1.0425,-1.0425,-1.0425,-1.0425,-1.0425,-1.0425,-1.0425,-1.0425,-1.0425,-1.0425,-1.0425,-1.0425,-1.0425,-1.0425,-1.0425,-1.0425,-1.0425,-1.0425,-1.0425,-1.0547,-1.0547,-1.0304,-1.0183,-1.0065,-0.9822,-0.9914,-0.9988,-1.0046,-1.0144,-1.0349,-1.0661,-1.0788,-1.0915,-1.1292,-1.1292,-1.1292,0.0,0.0,0.0,0.0,0.0,0.0,0.0,0.0,0.0,-0.9349,-0.9349,-0.9432,-0.9602,-0.9689,-0.9777,-1.0294,-1.047,-1.0775,0.0,0.0,0.0,0.0,0.0,0.0,0.0,0.0,0.0,0.0,0.0,0.0,0.0,-1.1194,-1.1194,-1.1194,-1.16,-1.1817,-1.1817,-1.2228,-1.2219,-1.2005,-1.1678,-1.1459,-1.1126,-1.0802,-1.0692,0.0,0.0,0.0,0.0,-1.0692,-1.0363,-0.9816,-0.9816,-0.9375,-0.894,-0.894,-0.894,-0.894,-0.894,-0.9032,-0.9178,-0.9334,-0.9574,-0.9805,-0.9805,-0.9812,-0.9822,-0.9822,-0.9822,-0.9822,-0.9822,-0.9822,-0.9822,-0.9822,-0.9822,-0.9819,-0.9819,-0.9822,-0.9822,-0.9819,-0.9819,-0.9819,-0.9822,-0.9822,-0.9822,-0.9822,-0.9822,-0.9822,-0.9822,-0.9822,-0.9822,-0.9822,-0.9822,-0.9822,-0.9822,-1.0061,-1.0304,-1.0304,-0.9943,-0.9822,-0.9822,-0.9822,-0.9886,-1.0029,-1.0032,-1.0103,-1.0246,-1.0626,-1.0879,-1.1132,-1.1132,-1.1006,-0.9721,0.0,-0.9262,-0.9262,-0.9262,0.0,0.0,0.0,0.0,0.0,0.0,0.0,0.0,-1.012,-1.0207,-1.0554,-1.0784,-1.105,-1.1532,0.0,0.0,0.0,0.0,0.0,0.0,0.0,0.0,0.0,0.0,0.0,0.0,-1.1194,-1.1194,-1.1194,-1.16,-1.1817,-1.1817,-1.2228,-1.2219,-1.2005,-1.1678,-1.1459,-1.1126,-1.0802,-1.0692,0.0,0.0,0.0,-1.0692,-1.0692,-1.0363,-0.9816,-0.9816,-0.9375,-0.894,-0.894,-0.894,-0.894,-0.894,-0.9032,-0.9178,-0.9334,-0.9507,-0.9659,-0.9659,-0.9734,-0.9822,-0.9822,-0.9822,-0.9822,-0.9822,-0.9822,-0.9822,-0.9822,-0.994,-1.0183,-1.0183,-1.0425,-1.0547,-1.0183,-1.0183,-1.0061,-0.9822,-0.9822,-0.9822,-0.9822,-0.9822,-0.9822,-0.9822,-0.9822,-0.9822,-0.9822,-0.9822,-0.9822,-0.9822,-0.9822,-0.9943,-0.9943,-0.9822,-0.9822,-0.9822,-0.9822,-0.9839,-0.9873,-0.9876,-0.9893,-0.9927,-1.0053,-1.005,-1.0173,-1.0173,-1.005,-1.0093,-0.988,-0.9607,-0.9607,-0.9607,-0.9694,0.0,0.0,0.0,0.0,0.0,0.0,0.0,0.0,0.0,-1.0824,-1.0997,0.0,0.0,0.0,0.0,0.0,0.0,0.0,0.0,0.0,0.0,0.0,0.0,0.0,0.0,-1.1194,-1.1194,-1.1194,-1.16,-1.1817,-1.1817,-1.2121,-1.2114,-1.1787,-1.1455,-1.124,-1.0911,-1.0802,-1.0692,0.0,0.0,0.0,-1.0692,-1.0692,-1.0472,-1.0036,-0.9816,-0.9485,-0.9158,-0.894,-0.894,-0.894,-0.894,-0.9032,-0.9167,-0.9249,-0.9381,-0.9503,-0.9503,-0.9557,-0.9646,-0.9781,-0.9822,-0.9822,-0.9822,-0.9822,-0.9819,-0.994,-1.0183,-1.0304,-1.0547,-1.0668,-1.0789,-1.0547,-1.0547,-1.0425,-1.0061,-1.0061,-0.994,-0.9822,-0.9822,-0.9822,-0.9822,-0.9822,-0.9822,-0.9822,-0.9822,-0.9822,-0.9822,-0.9822,-0.9822,-0.9822,-0.9822,-0.9822,-0.9822,-0.9822,-0.9822,-0.9822,-0.9822,-0.9822,-0.9822,-0.9822,-0.9822,-0.9822,-0.9822,-0.97,-1.0257,-1.0223,-1.0125,-1.0125,-1.0125,-1.0125,0.0,0.0,0.0,0.0,0.0,0.0,0.0,0.0,0.0,0.0,0.0,0.0,0.0,0.0,0.0,0.0,0.0,0.0,0.0,0.0,0.0,0.0,0.0,0.0,0.0,-1.1194,-1.1194,-1.1096,-1.147,-1.1667,-1.1667,-1.1866,-1.1851,-1.1524,-1.1167,-1.0841,-1.0651,-1.0651,-1.0668,-1.0692,0.0,0.0,-1.0692,-1.0692,-1.0582,-1.0257,-0.9926,-0.9596,-0.9379,-0.9051,-0.894,-0.894,-0.894,-0.9018,-0.912,-0.912,-0.9222,-0.9347,-0.9347,-0.9361,-0.9435,-0.9683,-0.9754,-0.9754,-0.9754,-0.9771,-0.9909,-1.0151,-1.0407,-1.0547,-1.0789,-1.091,-1.091,-1.091,-1.091,-1.0789,-1.0425,-1.0304,-1.0183,-0.9943,-0.9819,-0.9822,-0.9822,-0.9822,-0.9822,-0.9822,-0.9822,-0.9822,-0.9822,-0.9822,-0.9822,-0.9822,-0.9822,-0.9819,-0.9697,-0.97,-0.97,-0.97,-0.97,-0.97,-0.97,-0.97,-0.97,-0.97,-0.97,-0.9579,-1.0257,-1.0474,-1.0554,-1.0554,-1.0554,-1.0554,0.0,0.0,0.0,0.0,0.0,0.0,0.0,0.0,0.0,0.0,0.0,0.0,0.0,0.0,0.0,0.0,0.0,0.0,0.0,0.0,0.0,0.0,0.0,0.0,0.0,-1.1194,-1.11,-1.09,-1.1134,-1.106,-1.0853,-1.1453,-1.1545,-1.101,-1.0737,-1.064,-1.0473,-1.0473,-1.0554,-1.0692,0.0,-1.0692,-1.0692,-1.0692,-1.0582,-1.0257,-0.9926,-0.9596,-0.9379,-0.9051,-0.894,-0.894,-0.894,-0.8954,-0.8971,-0.8971,-0.9069,-0.9188,-0.9188,-0.9276,-0.9391,-0.9435,-0.9449,-0.9449,-0.9449,-0.978,-1.0119,-1.0119,-1.0692,-1.1152,-1.1152,-1.1402,-1.153,-1.1277,-1.1273,-1.1152,-1.0789,-1.0547,-1.0304,-1.0183,-0.994,-0.9822,-0.9822,-0.9822,-0.9822,-0.9822,-0.9822,-0.9822,-0.9822,-0.9822,-0.9822,-0.9822,-0.9822,-0.97,-0.9335,-0.9335,-0.9217,-0.9098,-0.9098,-0.9095,-0.9335,-0.9335,-0.9335,-0.9335,-0.9335,-0.9217,-1.0408,-1.0632,-1.0921,-1.0966,-1.0819,-1.0727,0.0,0.0,0.0,0.0,0.0,0.0,0.0,0.0,0.0,0.0,0.0,0.0,0.0,0.0,0.0,0.0,0.0,0.0,0.0,0.0,0.0,0.0,0.0,0.0,0.0,0.0,-1.09,-1.0801,-1.0806,-1.0712,-1.0509,-1.0776,-1.0915,-1.0708,-1.0515,-1.0309,-1.029,-1.0391,-1.0477,-1.0558,0.0,-1.0692,-1.0692,-1.0692,-1.0582,-1.0476,-1.0036,-0.9706,-0.9599,-0.9047,-0.894,-0.894,-0.894,-0.894,-0.894,-0.894,-0.8984,-0.9035,-0.9035,-0.9086,-0.9144,-0.9144,-0.9256,-0.9381,-0.9613,-0.9782,-1.0069,-1.0303,-1.0707,-1.0996,-1.1232,-1.1434,-1.1626,-1.1499,-1.1459,-1.1402,-1.1152,-1.091,-1.0668,-1.0304,-1.0183,-0.994,-0.9822,-0.9822,-0.9822,-0.9822,-0.9822,-0.9822,-0.9822,-0.9822,-0.9822,-0.9822,-0.9579,-0.9457,-0.9335,-0.9217,-0.8976,-0.8854,-0.8854,-0.8976,-0.9095,-0.9095,-0.9095,-0.9095,-0.9095,-0.8976,-1.0509,-1.0724,-1.0961,-1.1203,0.0,0.0,-1.0819,0.0,0.0,0.0,0.0,0.0,0.0,0.0,0.0,0.0,0.0,0.0,0.0,0.0,0.0,0.0,0.0,0.0,0.0,0.0,0.0,0.0,0.0,0.0,0.0,0.0,-1.0703,-1.0609,-1.0558,-1.044,-1.0142,-1.0129,-1.0217,-1.0406,-1.0158,-1.0059,-1.0103,-1.0241,-1.0331,-1.0379,-1.0554,-1.0631,-1.0635,-1.0676,-1.0692,-1.0692,-1.0036,-0.9706,-0.9485,-0.9047,-0.894,-0.894,-0.894,-0.894,-0.894,-0.894,-0.894,-0.894,-0.8937,-0.9051,-0.9047,-0.9047,-0.9325,-0.9505,-0.9617,-0.9756,-1.0015,-1.0475,-1.0732,-1.0874,-1.1105,-1.1334,-1.1435,-1.1435,-1.1549,-1.1523,-1.1272,-1.1152,-1.0913,-1.0434,-1.0194,-1.0077,-0.9717,-0.9717,-0.973,-0.9768,-0.9771,-0.9785,-0.9697,-0.97,-0.97,-0.9579,-0.9339,-0.9217,-0.9095,-0.8854,-0.8732,-0.8607,-0.8607,-0.8732,-0.8732,-0.8732,-0.8732,-0.8732,-0.8732,-0.861,-1.0393,-1.0487,-1.0719,-1.095,0.0,0.0,-1.1262,0.0,0.0,0.0,0.0,0.0,0.0,0.0,0.0,0.0,0.0,0.0,0.0,0.0,0.0,0.0,0.0,0.0,0.0,0.0,0.0,0.0,0.0,0.0,0.0,0.0,0.0,-1.0117,-1.0031,-0.9941,-0.9648,-0.9644,-0.9734,-0.9904,-0.9742,-0.975,-0.9904,-0.992,-1.0018,-1.0193,-1.0375,-1.0452,-1.0465,-1.0627,-1.0692,-1.0692,-1.0036,-0.9489,-0.894,-0.894,-0.894,-0.894,-0.894,-0.894,-0.894,-0.894,-0.894,-0.894,-0.9268,-0.9379,-0.9379,-0.9706,-0.9721,-0.9743,-0.9521,-0.9738,-1.0186,-1.042,-1.0878,-1.1224,-1.122,-1.1232,-1.124,-1.124,-1.1252,-1.1261,-1.1261,-1.0914,-1.0682,-1.0338,-0.999,-0.9757,-0.9412,-0.9412,-0.9466,-0.9608,-0.9625,-0.9556,-0.9326,-0.9335,-0.9217,-0.8976,-0.8976,-0.8732,-0.8491,-0.8491,-0.8244,-0.7994,-0.7994,-0.8119,-0.8491,-0.8491,-0.8491,-0.8491,-0.8491,-0.8244,-1.064,-1.0746,-1.0908,-1.1299,0.0,0.0,0.0,0.0,0.0,0.0,0.0,0.0,0.0,0.0,0.0,0.0,0.0,0.0,0.0,0.0,0.0,0.0,0.0,0.0,0.0,0.0,0.0,0.0,0.0,0.0,0.0,0.0,0.0,-1.0019,-0.9821,-0.9723,-0.9628,-0.9628,-0.9661,-0.9726,-0.9661,-0.9661,-0.973,-0.9835,-0.9925,-0.9998,-1.0184,-1.0266,-1.0278,-1.0456,-1.053,-1.0434,-0.9995,-0.9599,-0.9158,-0.8937,-0.894,-0.894,-0.894,-0.894,-0.8937,-0.9158,-0.9158,-0.9268,-0.9599,-0.9596,-0.9706,-0.9816,-0.9816,-0.9816,-0.9926,-1.0082,-1.0239,-1.0576,-1.0735,-1.0895,-1.0895,-1.0984,-1.1066,-1.1066,-1.1151,-1.1224,-1.1224,-1.1105,-1.0874,-1.0416,-1.0185,-0.9957,-0.9497,-0.9381,-0.9288,-0.9228,-0.9078,-0.9029,-0.896,-0.8806,-0.8735,-0.8613,-0.8613,-0.8491,-0.8369,-0.8244,-0.7997,-0.7872,-0.7872,-0.7994,-0.8119,-0.8119,-0.8119,-0.8119,-0.7875,-0.7752,-1.0838,-1.0913,0.0,0.0,0.0,0.0,0.0,0.0,0.0,0.0,0.0,0.0,0.0,0.0,0.0,0.0,0.0,0.0,0.0,0.0,0.0,0.0,0.0,0.0,0.0,0.0,0.0,0.0,0.0,0.0,0.0,0.0,0.0,-0.992,-0.9727,-0.9628,-0.9628,-0.9628,-0.9628,-0.9628,-0.9628,-0.9628,-0.9632,-0.975,-0.9803,-0.9815,-0.9994,-1.0075,-1.0091,-1.0274,-1.0241,-1.0146,-0.9835,-0.9584,-0.9304,-0.9085,-0.8896,-0.894,-0.894,-0.894,-0.9047,-0.9379,-0.9489,-0.9599,-0.9816,-0.9926,-0.9926,-1.0033,-1.0036,-1.0147,-1.0366,-1.0363,-1.0366,-1.0692,-1.0692,-1.0692,-1.0692,-1.0794,-1.0883,-1.0883,-1.0976,-1.1053,-1.1053,-1.0944,-1.0717,-1.0262,-1.0034,-0.981,-0.9356,-0.9242,-0.9144,-0.8845,-0.874,-0.8586,-0.8467,-0.8354,-0.8308,-0.8187,-0.8224,-0.8244,-0.8244,-0.7994,-0.7872,-0.7872,-0.775,-0.775,-0.775,-0.7627,-0.7627,-0.7627,-0.7385,-0.7266,-1.0921,-1.0918,0.0,0.0,0.0,0.0,0.0,0.0,0.0,0.0,0.0,0.0,0.0,0.0,0.0,0.0,0.0,0.0,0.0,0.0,0.0,0.0,0.0,0.0,0.0,0.0,0.0,0.0,0.0,0.0,0.0,0.0,-0.992,-0.9628,-0.9628,-0.9628,-0.9628,-0.9628,-0.9628,-0.9628,-0.9628,-0.9628,-0.9628,-0.9628,-0.9628,-0.9636,-0.9807,-0.9884,-0.9896,-1.0083,-0.9951,-0.9743,-0.9743,-0.9421,-0.9133,-0.9137,-0.9022,-0.8937,-0.894,-0.9158,-0.9379,-0.9379,-0.9596,-0.9816,-1.0147,-1.0257,-1.0366,-1.0582,-1.0692,-1.0692,-1.0692,-1.0472,-1.0366,-1.0692,-1.0692,-1.0692,-1.0692,-1.0692,-1.0692,-1.0692,-1.0692,-1.0692,-1.0692,-1.0476,-1.0147,-0.9816,-0.9599,-0.9268,-0.8937,-0.8937,-0.8883,-0.8684,-0.8593,-0.8326,-0.7979,-0.8098,-0.8056,-0.7701,-0.7807,-0.7869,-0.7872,-0.7872,-0.7872,-0.7872,-0.763,-0.7385,-0.7385,-0.7023,-0.69,-0.69,-0.69,-0.69,-1.1629,0.0,0.0,0.0,0.0,0.0,0.0,0.0,0.0,0.0,0.0,0.0,0.0,0.0,0.0,0.0,0.0,0.0,0.0,0.0,0.0,0.0,0.0,0.0,0.0,0.0,0.0,0.0,0.0,0.0,0.0,-0.992,-0.9727,-0.9628,-0.9628,-0.9628,-0.9628,-0.9628,-0.9628,-0.9628,-0.9628,-0.9628,-0.9628,-0.9628,-0.9628,-0.9628,-0.9681,-0.9705,-0.9717,-0.9896,-1.0042,-1.0056,-0.9743,-0.9669,-0.9516,-0.9415,-0.9381,-0.9331,-0.9446,-0.9596,-0.9706,-0.9926,-1.0036,-1.0257,-1.0472,-1.0582,-1.0582,-1.0692,-1.0692,-1.0692,-1.0476,-1.0366,-1.0366,-1.0692,-1.0692,-1.0692,-1.0472,-1.0476,-1.0363,-1.0143,-1.0033,-1.0033,-1.0033,-1.0036,-0.9816,-0.9599,-0.9489,-0.9265,-0.8709,-0.8377,-0.8174,-0.7991,-0.7772,-0.7617,-0.7503,-0.7616,-0.7726,-0.7695,-0.7733,-0.7788,-0.7869,-0.7872,-0.775,-0.7508,-0.7508,-0.7263,-0.7021,-0.69,-0.69,-0.69,-0.6653,-0.6528,-1.2295,0.0,0.0,0.0,0.0,0.0,0.0,0.0,0.0,0.0,0.0,0.0,0.0,0.0,0.0,0.0,0.0,0.0,0.0,0.0,0.0,0.0,0.0,0.0,0.0,0.0,0.0,0.0,0.0,0.0,0.0,-1.0019,-0.9727,-0.9628,-0.9628,-0.9628,-0.9628,-0.9628,-0.9628,-0.9628,-0.9628,-0.9628,-0.9628,-0.9628,-0.9628,-0.9628,-0.9628,-0.9628,-0.9636,-0.9738,-0.9847,-0.9949,-0.9745,-0.9686,-0.9653,-0.9541,-0.9451,-0.947,-0.9678,-0.9866,-1.0036,-1.0257,-1.0366,-1.0472,-1.0692,-1.0692,-1.0692,-1.0692,-1.0692,-1.0692,-1.0366,-1.0257,-1.0257,-1.0363,-1.0363,-1.0253,-1.0147,-1.0147,-1.0036,-0.9816,-0.9816,-0.9816,-0.9816,-0.9706,-0.9596,-0.9379,-0.9268,-0.9044,-0.8595,-0.8156,-0.7937,-0.7607,-0.7446,-0.7263,-0.7263,-0.7375,-0.7478,-0.7551,-0.7528,-0.7488,-0.7675,-0.7726,-0.763,-0.7385,-0.7141,-0.6896,-0.6653,-0.6532,-0.6532,-0.6532,-0.616,-0.6035,0.0,0.0,0.0,0.0,0.0,0.0,0.0,0.0,0.0,0.0,0.0,0.0,0.0,0.0,0.0,0.0,0.0,0.0,0.0,0.0,0.0,0.0,0.0,0.0,0.0,0.0,0.0,0.0,0.0,0.0,0.0,-1.0117,-0.992,-0.9628,-0.9628,-0.9628,-0.9628,-0.9628,-0.9628,-0.9628,-0.9628,-0.9628,-0.9628,-0.9628,-0.9628,-0.9628,-0.9628,-0.9628,-0.9628,-0.9628,-0.9628,-0.9628,-0.9628,-0.9526,-0.9462,-0.9575,-0.9573,-0.9522,-0.9552,-0.988,-1.0343,-1.0363,-1.0472,-1.0692,-1.0692,-1.0692,-1.0692,-1.0692,-1.0692,-1.0582,-1.0366,-1.0257,-1.0147,-0.9816,-0.9706,-0.9816,-0.9816,-0.9816,-0.9706,-0.9706,-0.9706,-0.9706,-0.9706,-0.9489,-0.9379,-0.9379,-0.9047,-0.8712,-0.8484,-0.8156,-0.7823,-0.7604,-0.7379,-0.7154,-0.7154,-0.7255,-0.7323,-0.722,-0.7189,-0.7194,-0.7215,-0.7327,-0.7385,-0.7263,-0.6648,-0.6403,-0.6403,-0.6037,-0.5794,-0.5794,-0.5536,-0.5287,0.0,0.0,0.0,0.0,0.0,0.0,0.0,0.0,0.0,0.0,0.0,0.0,0.0,0.0,0.0,0.0,0.0,0.0,0.0,0.0,0.0,0.0,0.0,0.0,0.0,0.0,0.0,0.0,0.0,0.0,-1.0703,-1.0216,-1.0019,-0.992,-0.9727,-0.9628,-0.9628,-0.9628,-0.9628,0.0,-0.9628,-0.9628,-0.9628,-0.9628,-0.9628,-0.9628,-0.9628,-0.9628,-0.9628,-0.9628,-0.9628,-0.9628,-0.9628,-0.9549,-0.9602,-0.9734,-0.9831,-0.9836,-1.0118,-1.0242,-1.0405,-1.0538,-1.0692,-1.0692,-1.0692,-1.0692,-1.0692,-1.0692,-1.0692,-1.0582,-1.0036,-0.9926,-0.9816,-0.9268,-0.9489,-0.9706,-0.9489,-0.9489,-0.9379,-0.9158,-0.9047,-0.9047,-0.9047,-0.9047,-0.9047,-0.9047,-0.8712,-0.8488,-0.8156,-0.7826,-0.7604,-0.7268,-0.7265,-0.7154,-0.7154,-0.7179,-0.7124,-0.6992,-0.6929,-0.692,-0.6853,-0.6965,-0.6898,-0.6648,-0.6526,-0.6283,-0.6039,-0.5669,-0.5544,-0.5542,-0.5113,-0.4965,0.0,0.0,0.0,0.0,0.0,0.0,0.0,0.0,0.0,0.0,0.0,0.0,0.0,0.0,0.0,0.0,0.0,0.0,0.0,0.0,0.0,0.0,0.0,0.0,0.0,0.0,0.0,0.0,0.0,-1.1096,-1.0806,-1.0413,-1.0117,-1.0019,-0.9727,-0.9628,-0.9628,-0.9628,-0.9628,-0.9628,-0.9628,-0.9628,-0.9628,-0.9628,-0.9628,-0.9628,-0.9628,-0.9628,-0.9628,-0.9628,-0.9628,-0.9628,-0.9628,-0.9628,-0.964,-0.973,-0.9815,-0.9925,-1.0209,-1.0363,-1.0465,-1.0635,-1.0692,-1.0692,-1.0692,-1.0692,-1.0692,-1.0692,-1.0692,-1.0582,-0.9926,-0.9816,-0.9596,-0.9047,-0.9158,-0.9379,-0.9158,-0.9158,-0.9158,-0.8937,-0.894,-0.894,-0.894,-0.8826,-0.8602,-0.8491,-0.8377,-0.8156,-0.7826,-0.7718,-0.7493,-0.7265,-0.7154,-0.7154,-0.7154,-0.7046,-0.6961,-0.6799,-0.6628,-0.6477,-0.6469,-0.6381,-0.6359,-0.6403,-0.6283,-0.6037,-0.5669,-0.5544,-0.5278,-0.512,-0.4717,-0.4561,0.0,0.0,0.0,0.0,0.0,0.0,0.0,0.0,0.0,0.0,0.0,0.0,0.0,0.0,0.0,0.0,0.0,0.0,0.0,0.0,0.0,0.0,0.0,0.0,0.0,0.0,0.0,0.0,0.0,-1.1389,-1.0904,-1.0609,-1.0314,-1.0117,-0.9826,-0.9628,-0.9628,-0.9628,-0.9628,-0.9628,-0.9628,-0.9628,-0.9628,-0.9628,-0.9628,-0.9628,-0.9628,-0.9628,-0.9628,-0.9628,-0.9628,-0.9628,-0.9628,-0.9628,-0.9628,-0.9628,-0.9717,-0.9868,-1.005,-1.0233,-1.0416,-1.059,-1.0668,-1.0692,-1.0692,-1.0692,-1.0692,-1.0692,-1.0692,-1.0472,-0.9926,-0.9816,-0.9596,-0.9047,-0.894,-0.894,-0.894,-0.894,-0.8937,-0.8826,-0.8826,-0.8716,-0.8716,-0.8602,-0.8266,-0.8045,-0.7934,-0.7826,-0.7607,-0.7607,-0.7493,-0.7265,-0.7154,-0.7154,-0.7154,-0.6935,-0.6715,-0.6604,-0.624,-0.5952,-0.5967,-0.5773,-0.5904,-0.6252,-0.5908,-0.5669,-0.5421,-0.5298,-0.5014,-0.4699,-0.4326,-0.4164,0.0,0.0,0.0,0.0,0.0,0.0,0.0,0.0,0.0,0.0,0.0,0.0,0.0,0.0,0.0,0.0,0.0,0.0,0.0,0.0,0.0,0.0,0.0,0.0,0.0,0.0,0.0,0.0,-1.1579,-1.1487,-1.1194,-1.0904,-1.0605,-1.0314,-1.0117,-0.9821,-0.9628,-0.9628,-0.9628,-0.9628,-0.9628,-0.9628,-0.9628,-0.9628,-0.9628,-0.9628,-0.9628,-0.9628,-0.9628,-0.9628,-0.9628,-0.9628,-0.9628,-0.9628,-0.9628,-0.9628,-0.9644,-0.9689,-0.986,-1.0042,-1.0229,-1.0412,-1.057,-1.0692,-1.0692,-1.0692,-1.0692,-1.0692,-1.0582,-1.0257,-0.9926,-0.9596,-0.9379,-0.8937,-0.894,-0.894,-0.894,-0.894,-0.8826,-0.8598,-0.8266,-0.8156,-0.8156,-0.8045,-0.8045,-0.8045,-0.7826,-0.7607,-0.7607,-0.7379,-0.7265,-0.7154,-0.7154,-0.7154,-0.7154,-0.6935,-0.6604,-0.6386,-0.6061,-0.5766,-0.5618,-0.5531,-0.5506,-0.5429,-0.5506,-0.5421,-0.5421,-0.4807,-0.4525,-0.4335,-0.4041,-0.3865,0.0,0.0,0.0,0.0,0.0,0.0,0.0,0.0,0.0,0.0,0.0,0.0,0.0,0.0,0.0,0.0,0.0,0.0,0.0,0.0,0.0,0.0,0.0,0.0,0.0,0.0,0.0,0.0,-1.1363,-1.1187,-1.1023,-1.0738,-1.0595,-1.0408,-1.0117,-0.9821,-0.9628,-0.9628,-0.9628,-0.9628,-0.9628,-0.9628,-0.9628,-0.9628,-0.9628,-0.9628,-0.9628,-0.9628,-0.9628,-0.9628,-0.9628,-0.9628,-0.9628,-0.9628,-0.9628,-0.9628,-0.9628,-0.9652,-0.9823,-1.0006,-1.0193,-1.0375,-1.055,-1.0692,-1.0692,-1.0692,-1.0692,-1.0692,-1.0472,-1.0257,-0.9926,-0.9596,-0.9268,-0.8937,-0.894,-0.8826,-0.8712,-0.8712,-0.8598,-0.8266,-0.8156,-0.7934,-0.7826,-0.7826,-0.7715,-0.7601,-0.749,-0.7379,-0.7379,-0.7268,-0.7154,-0.7154,-0.7154,-0.7154,-0.6935,-0.6604,-0.6383,-0.6049,-0.5714,-0.5508,-0.5435,-0.5482,-0.543,-0.5159,-0.5286,-0.5131,-0.4807,-0.4562,-0.4263,-0.4044,-0.3899,-0.3718,0.0,0.0,0.0,0.0,0.0,0.0,0.0,0.0,0.0,0.0,0.0,0.0,0.0,0.0,0.0,0.0,0.0,0.0,0.0,0.0,0.0,0.0,0.0,0.0,0.0,0.0,0.0,0.0,-1.1094,-1.0925,-1.0806,-1.0531,-1.041,-1.0259,-1.0019,-0.9849,-0.9559,-0.9604,-0.9604,-0.9559,-0.9559,-0.9535,-0.949,-0.949,-0.949,-0.9498,-0.9587,-0.9628,-0.9628,-0.9628,-0.9628,-0.9628,-0.9628,-0.9628,-0.9628,-0.9628,-0.9628,-0.9648,-0.9774,-0.9937,-1.0119,-1.0306,-1.0485,-1.0635,-1.068,-1.0692,-1.0692,-1.0692,-1.0472,-1.0147,-0.9816,-0.9485,-0.9158,-0.894,-0.8826,-0.8712,-0.8595,-0.8377,-0.8156,-0.7937,-0.7823,-0.7712,-0.7493,-0.7493,-0.7382,-0.7265,-0.7154,-0.7154,-0.7154,-0.7154,-0.7154,-0.7154,-0.7154,-0.6935,-0.6715,-0.6383,-0.6049,-0.5822,-0.5603,-0.5382,-0.5382,-0.5328,-0.5258,-0.494,-0.4938,-0.4797,-0.4387,-0.4266,-0.4088,-0.3747,-0.3747,-0.3688,0.0,0.0,0.0,0.0,0.0,0.0,0.0,0.0,0.0,0.0,0.0,0.0,0.0,0.0,0.0,0.0,0.0,0.0,0.0,0.0,0.0,0.0,0.0,0.0,0.0,0.0,0.0,0.0,-1.1014,-1.0857,-1.0589,-1.0403,-1.0134,-0.9864,-0.9849,-0.9656,-0.9368,-0.9543,-0.9543,-0.9368,-0.9368,-0.9283,-0.9125,-0.9125,-0.9125,-0.9145,-0.9482,-0.9628,-0.9628,-0.9628,-0.9628,-0.9628,-0.9628,-0.9628,-0.9628,-0.9628,-0.9628,-0.9628,-0.964,-0.9754,-0.9929,-1.0115,-1.0298,-1.0477,-1.0643,-1.0692,-1.0692,-1.0692,-1.0253,-0.9816,-0.9816,-0.9379,-0.894,-0.894,-0.8712,-0.8484,-0.8484,-0.8045,-0.7607,-0.7607,-0.7379,-0.7265,-0.7265,-0.7265,-0.7265,-0.7154,-0.7154,-0.7154,-0.7154,-0.7154,-0.7154,-0.7154,-0.6935,-0.6715,-0.6715,-0.6156,-0.5822,-0.5822,-0.5603,-0.5382,-0.5382,-0.5046,-0.4859,-0.4591,-0.4375,-0.418,-0.4246,-0.4012,-0.3745,-0.3683,-0.3683,-0.3649,0.0,0.0,0.0,0.0,0.0,0.0,0.0,0.0,0.0,0.0,0.0,0.0,0.0,0.0,0.0,0.0,0.0,0.0,0.0,0.0,0.0,0.0,0.0,0.0,0.0,0.0,0.0,0.0,0.0,-1.0413,-1.0376,-1.0108,-0.9985,-0.9828,-0.9716,-0.9468,-0.919,-0.9254,-0.9254,-0.919,-0.919,-0.9157,-0.9096,-0.9096,-0.9096,-0.9104,-0.923,-0.9287,-0.9295,-0.9405,-0.9453,-0.9466,-0.9579,-0.9628,-0.9628,-0.9628,-0.9628,-0.9628,-0.9628,-0.9742,-0.9896,-0.9961,-1.0111,-1.0294,-1.0473,-1.0526,-1.055,-1.0445,-1.0147,-0.9706,-0.9596,-0.9268,-0.8826,-0.8712,-0.8377,-0.8156,-0.7937,-0.7604,-0.7379,-0.7379,-0.7265,-0.7154,-0.7154,-0.7154,-0.7154,-0.6935,-0.6935,-0.6824,-0.6604,-0.6606,-0.6606,-0.6606,-0.6495,-0.6381,-0.6156,-0.5933,-0.5712,-0.5603,-0.5493,-0.5382,-0.5382,-0.5043,-0.4832,-0.4519,-0.4184,-0.4014,-0.4002,-0.3886,-0.3737,-0.3679,-0.3679,-0.3646,0.0,0.0,0.0,0.0,0.0,0.0,0.0,0.0,0.0,0.0,0.0,0.0,0.0,0.0,0.0,0.0,0.0,0.0,0.0,0.0,0.0,0.0,0.0,0.0,0.0,0.0,0.0,0.0,0.0,0.0,-1.0159,-0.9901,-0.9633,-0.9451,-0.9368,-0.9221,-0.9096,-0.9096,-0.9064,-0.9003,-0.9003,-0.8974,-0.8917,-0.8917,-0.8917,-0.8917,-0.8917,-0.8986,-0.9104,-0.9222,-0.9303,-0.9368,-0.949,-0.9571,-0.9628,-0.9628,-0.9628,-0.9628,-0.9628,-0.9701,-0.9807,-0.9864,-0.9969,-1.0103,-1.0286,-1.0343,-1.0261,-1.0162,-0.9869,-0.9544,-0.9327,-0.904,-0.8752,-0.8526,-0.8232,-0.7934,-0.7607,-0.7379,-0.7154,-0.7154,-0.7154,-0.7154,-0.7154,-0.7154,-0.7043,-0.6712,-0.6715,-0.6604,-0.6386,-0.6274,-0.6274,-0.6274,-0.6163,-0.6049,-0.5822,-0.5712,-0.5601,-0.5382,-0.5382,-0.5382,-0.5268,-0.4931,-0.4594,-0.4369,-0.4036,-0.3855,-0.3709,-0.3709,-0.3687,-0.3647,-0.3647,-0.3625,0.0,0.0,0.0,0.0,0.0,0.0,0.0,0.0,0.0,0.0,0.0,0.0,0.0,0.0,0.0,0.0,0.0,0.0,0.0,0.0,0.0,0.0,0.0,0.0,0.0,0.0,0.0,0.0,-1.0467,-1.0207,-1.0038,-0.9519,-0.9168,-0.8808,-0.8812,-0.8897,-0.908,-0.908,-0.8991,-0.8812,-0.8812,-0.8727,-0.8656,-0.8656,-0.8656,-0.8656,-0.8656,-0.8763,-0.908,-0.9088,-0.919,-0.9444,-0.9448,-0.9466,-0.9628,-0.9628,-0.9628,-0.9628,-0.9628,-0.9628,-0.9657,-0.9823,-0.9876,-0.9912,-1.0099,-1.0152,-1.0156,-0.9851,-0.9537,-0.9223,-0.9003,-0.8803,-0.8598,-0.8389,-0.8166,-0.7931,-0.7604,-0.7379,-0.7154,-0.7154,-0.7154,-0.7154,-0.7154,-0.7154,-0.7046,-0.6712,-0.6715,-0.6604,-0.6274,-0.6274,-0.6274,-0.6274,-0.5935,-0.5822,-0.5822,-0.5603,-0.5382,-0.5382,-0.5382,-0.5268,-0.4929,-0.4592,-0.4369,-0.4038,-0.3701,-0.3587,-0.3587,-0.3587,-0.3587,-0.3587,-0.3587,-0.3587,-1.6492,0.0,0.0,0.0,0.0,0.0,0.0,0.0,0.0,0.0,0.0,0.0,0.0,0.0,0.0,0.0,0.0,0.0,0.0,0.0,0.0,0.0,0.0,0.0,0.0,0.0,0.0,0.0,-1.0467,-1.0207,-1.0038,-0.9689,-0.9367,-0.916,-0.916,-0.9186,-0.9242,-0.9242,-0.9216,-0.916,-0.916,-0.9134,-0.9087,-0.9087,-0.9087,-0.9087,-0.9087,-0.9147,-0.9255,-0.9207,-0.928,-0.9464,-0.9789,-1.0052,-1.0117,-0.992,-0.992,-0.9821,-0.9628,-0.9628,-0.9636,-0.9685,-0.9697,-0.9734,-0.9908,-0.9961,-0.9887,-0.9503,-0.9332,-0.9223,-0.8692,-0.8618,-0.8468,-0.8366,-0.809,-0.7816,-0.7587,-0.7379,-0.7154,-0.7154,-0.7154,-0.7154,-0.7154,-0.7046,-0.6715,-0.6495,-0.6158,-0.5935,-0.5717,-0.5605,-0.5605,-0.5605,-0.5603,-0.5491,-0.5491,-0.5493,-0.5382,-0.5382,-0.5382,-0.5268,-0.4929,-0.4592,-0.4369,-0.4038,-0.3701,-0.3587,-0.3587,-0.3587,-0.3587,-0.3587,-0.3587,-0.3587,0.0,0.0,0.0,0.0,0.0,0.0,-1.6245,-1.6245,0.0,0.0,0.0,0.0,0.0,0.0,0.0,0.0,0.0,0.0,0.0,0.0,0.0,0.0,0.0,0.0,0.0,-1.1602,-1.1251,-1.0824,-1.0559,-1.0294,-0.9864,-0.9689,-0.9519,-0.9349,-0.9262,-0.9262,-0.9262,-0.9262,-0.9262,-0.9262,-0.9262,-0.9262,-0.9262,-0.9262,-0.9262,-0.9262,-0.9262,-0.9262,-0.927,-0.9376,-0.9448,-0.9556,-0.984,-1.0127,-1.0303,-1.0186,-1.0216,-1.0117,-0.9826,-0.9727,-0.9723,-0.9628,-0.9628,-0.9648,-0.9746,-0.9778,-0.9702,-0.9403,-0.9123,-0.8812,-0.8402,-0.8347,-0.8431,-0.8372,-0.8126,-0.7768,-0.7796,-0.749,-0.7154,-0.7154,-0.7154,-0.7154,-0.7154,-0.6935,-0.6604,-0.6386,-0.6047,-0.5712,-0.5382,-0.5382,-0.5382,-0.5382,-0.5382,-0.5382,-0.5382,-0.5382,-0.5382,-0.5382,-0.5382,-0.5156,-0.4706,-0.4592,-0.4257,-0.3813,-0.3699,-0.3587,-0.3587,-0.3587,-0.3587,-0.3587,-0.3587,-0.3587,0.0,0.0,0.0,0.0,0.0,0.0,-1.6558,-1.6476,-1.6394,0.0,0.0,0.0,0.0,0.0,0.0,0.0,0.0,0.0,0.0,0.0,0.0,0.0,0.0,0.0,-1.2037,-1.1871,-1.1527,-1.1094,-1.0824,-1.0381,-0.9689,-0.9689,-0.9607,-0.9349,-0.9349,-0.9349,-0.9349,-0.9432,-0.9432,-0.9432,-0.9432,-0.9432,-0.9432,-0.9432,-0.9432,-0.9432,-0.9432,-0.9432,-0.9432,-0.9602,-0.9637,-0.9574,-0.9763,-1.005,-1.0254,-1.0342,-1.0413,-1.0413,-1.0117,-1.0019,-0.992,-0.9727,-0.9628,-0.9628,-0.9628,-0.9628,-0.9529,-0.9232,-0.8832,-0.8333,-0.8038,-0.814,-0.8286,-0.8445,-0.8156,-0.7858,-0.8011,-0.7598,-0.7154,-0.7154,-0.7154,-0.7154,-0.7154,-0.6935,-0.6604,-0.6386,-0.5938,-0.5712,-0.5382,-0.5382,-0.5382,-0.5382,-0.5382,-0.5382,-0.5382,-0.5382,-0.5382,-0.5382,-0.5382,-0.5156,-0.4592,-0.448,-0.4257,-0.3699,-0.3587,-0.3587,-0.3587,-0.3587,-0.3587,-0.3587,-0.3587,-0.3587,0.0,0.0,0.0,0.0,0.0,0.0,-1.6976,-1.6812,-1.6566,0.0,0.0,0.0,0.0,0.0,0.0,0.0,0.0,0.0,0.0,0.0,0.0,0.0,0.0,0.0,-1.2369,-1.2123,-1.178,-1.1246,-1.0727,-1.0294,-1.0207,-1.0038,-0.9864,-0.9864,-0.9864,-0.9864,-0.9864,-1.0038,-1.012,-1.012,-1.0294,-1.0472,-1.0472,-1.0472,-1.0472,-1.0472,-1.0472,-1.0294,-1.012,-1.012,-0.9986,-0.9845,-1.0311,-1.0613,-1.0728,-1.0733,-1.0703,-1.0703,-1.0413,-1.0216,-1.0019,-0.9924,-0.9826,-0.9628,-0.9628,-0.9628,-0.9525,-0.9027,-0.863,-0.8333,-0.8038,-0.8062,-0.815,-0.8418,-0.8085,-0.7751,-0.7993,-0.7598,-0.7154,-0.7154,-0.7154,-0.7154,-0.7154,-0.6715,-0.6383,-0.6274,-0.5828,-0.5493,-0.5382,-0.5382,-0.5382,-0.5382,-0.5382,-0.5382,-0.5382,-0.5382,-0.5382,-0.5382,-0.5382,-0.5268,-0.4817,-0.4592,-0.4369,-0.3924,-0.3699,-0.3587,-0.3587,-0.3587,-0.3587,-0.3587,-0.3587,-0.3587,0.0,0.0,0.0,-1.7392,0.0,0.0,0.0,-1.7057,-1.6894,0.0,0.0,0.0,0.0,0.0,0.0,0.0,0.0,0.0,0.0,0.0,0.0,0.0,0.0,0.0,-1.2619,-1.2369,-1.1889,-1.1165,-1.0626,-1.0278,-1.0303,-1.0223,-1.0186,-1.0381,-1.0386,-1.0386,-1.0386,-1.0467,-1.0467,-1.0467,-1.0641,-1.0727,-1.0727,-1.0727,-1.0727,-1.0727,-1.0727,-1.0641,-1.0467,-1.0467,-1.045,-1.0308,-1.0434,-1.0551,-1.0759,-1.0875,-1.0914,-1.0998,-1.0708,-1.0408,-1.0216,-1.0019,-0.9826,-0.9628,-0.9628,-0.9628,-0.9525,-0.8924,-0.8726,-0.8528,-0.8137,-0.8038,-0.7995,-0.8217,-0.7909,-0.7596,-0.7686,-0.7445,-0.7154,-0.7154,-0.7154,-0.7154,-0.7154,-0.6715,-0.6274,-0.6274,-0.5828,-0.5382,-0.5382,-0.5382,-0.5382,-0.5382,-0.5382,-0.5382,-0.5382,-0.5382,-0.5382,-0.5382,-0.5382,-0.5268,-0.4929,-0.4592,-0.4257,-0.3813,-0.3699,-0.3587,-0.3587,-0.3587,-0.3587,-0.3587,-0.3587,-0.3587,0.0,0.0,0.0,0.0,0.0,-1.7473,0.0,0.0,0.0,0.0,0.0,0.0,0.0,0.0,0.0,0.0,0.0,0.0,0.0,0.0,0.0,0.0,0.0,0.0,0.0,-1.2486,-1.1928,-1.1017,-1.0582,-1.031,-1.0325,-1.0252,-1.0353,-1.057,-1.058,-1.0687,-1.0727,-1.0733,-1.0733,-1.0733,-1.0819,-1.0819,-1.0819,-1.0819,-1.0819,-1.0819,-1.0819,-1.0819,-1.0733,-1.0733,-1.0733,-1.0666,-1.0543,-1.0486,-1.0691,-1.091,-1.1023,-1.1194,-1.0998,-1.0703,-1.0413,-1.0117,-0.9821,-0.9628,-0.9628,-0.9628,-0.9525,-0.8924,-0.8825,-0.8627,-0.8137,-0.8038,-0.7975,-0.7919,-0.7755,-0.7578,-0.7385,-0.729,-0.7154,-0.7154,-0.7154,-0.7154,-0.7154,-0.6715,-0.6274,-0.6274,-0.5828,-0.5382,-0.5382,-0.5382,-0.5382,-0.5382,-0.5382,-0.5382,-0.5382,-0.5382,-0.5382,-0.5382,-0.5382,-0.5268,-0.5043,-0.4704,-0.4257,-0.3699,-0.3587,-0.3587,-0.3587,-0.3587,-0.3587,-0.3587,-0.3587,-0.3587,0.0,0.0,0.0,0.0,-1.7789,0.0,0.0,0.0,-1.731,-1.7139,0.0,0.0,0.0,0.0,0.0,0.0,0.0,0.0,0.0,0.0,0.0,0.0,0.0,0.0,0.0,-1.2416,-1.1752,-1.0935,-1.073,-1.0486,-1.0269,-1.0106,-1.0043,-1.0343,-1.0353,-1.0444,-1.0727,-1.0916,-1.1008,-1.1008,-1.1176,-1.1262,-1.1262,-1.1262,-1.1262,-1.1262,-1.1262,-1.1094,-1.1008,-1.1008,-1.0824,-1.0753,-1.0899,-1.0935,-1.0871,-1.1094,-1.1211,-1.1194,-1.1194,-1.1002,-1.0703,-1.0413,-1.0019,-0.9628,-0.9628,-0.9628,-0.9525,-0.8924,-0.8825,-0.8627,-0.8137,-0.8038,-0.7975,-0.7919,-0.7755,-0.7578,-0.7385,-0.729,-0.7154,-0.7154,-0.7154,-0.7154,-0.7154,-0.6715,-0.6274,-0.6274,-0.5828,-0.5382,-0.5382,-0.5382,-0.5382,-0.5382,-0.5382,-0.5382,-0.5382,-0.5382,-0.5382,-0.5382,-0.5382,-0.5382,-0.5382,-0.4817,-0.4369,-0.3924,-0.3699,-0.3587,-0.3587,-0.3587,-0.3587,-0.3587,-0.3587,-0.3587,0.0,0.0,0.0,0.0,0.0,0.0,-1.787,0.0,-1.7546,0.0,0.0,0.0,0.0,0.0,0.0,0.0,-1.5899,0.0,0.0,0.0,0.0,0.0,0.0,0.0,0.0,0.0,0.0,0.0,-1.0612,-1.0439,-1.0507,-1.028,-1.0225,-1.0444,-1.0663,-1.0779,-1.0874,-1.1107,-1.1267,-1.144,-1.1527,-1.1613,-1.1693,-1.1693,-1.1613,-1.1527,-1.1527,-1.144,-1.1181,-1.1181,-1.1089,-1.1094,-1.1107,-1.1107,-1.0965,-1.0998,-1.1124,-1.1231,-1.1151,-1.0998,-1.0708,-1.0314,-1.0019,-0.9826,-0.9628,-0.9628,-0.9529,-0.913,-0.8928,-0.8726,-0.8333,-0.8137,-0.7955,-0.7818,-0.7698,-0.7557,-0.7289,-0.7239,-0.7154,-0.7154,-0.7154,-0.7154,-0.7154,-0.6824,-0.6495,-0.6274,-0.5938,-0.5603,-0.5382,-0.5382,-0.5382,-0.5382,-0.5382,-0.5382,-0.5382,-0.5382,-0.5382,-0.5382,-0.5382,-0.527,-0.5156,-0.4817,-0.4482,-0.4038,-0.3924,-0.3813,-0.3587,-0.3587,-0.3587,-0.3587,-0.3587,-0.3587,-1.822,0.0,0.0,0.0,0.0,0.0,0.0,0.0,0.0,0.0,0.0,0.0,0.0,0.0,0.0,0.0,0.0,-1.5816,0.0,0.0,0.0,0.0,0.0,0.0,0.0,0.0,0.0,-1.1195,-1.0703,-1.0453,-1.0567,-1.0418,-1.0455,-1.069,-1.0865,-1.1018,-1.1149,-1.133,-1.1541,-1.1785,-1.1785,-1.1871,-1.2043,-1.2043,-1.1957,-1.1785,-1.1785,-1.1613,-1.144,-1.144,-1.1348,-1.1262,-1.1262,-1.1194,-1.1107,-1.1111,-1.117,-1.1206,-1.1317,-1.1096,-1.0703,-1.0216,-1.0019,-0.992,-0.9727,-0.9628,-0.9529,-0.9232,-0.9031,-0.8726,-0.8432,-0.8237,-0.7949,-0.7691,-0.7685,-0.7551,-0.7263,-0.7225,-0.7154,-0.7154,-0.7154,-0.7154,-0.7154,-0.6935,-0.6604,-0.6383,-0.6161,-0.5824,-0.5491,-0.5491,-0.5491,-0.5382,-0.5382,-0.5382,-0.5382,-0.5382,-0.5382,-0.5382,-0.5382,-0.5268,-0.5043,-0.4931,-0.4706,-0.426,-0.4036,-0.3924,-0.3699,-0.3587,-0.3587,-0.3587,-0.3587,-0.3587,0.0,0.0,0.0,-1.8126,0.0,0.0,0.0,0.0,-1.7878,0.0,0.0,0.0,0.0,0.0,0.0,0.0,0.0,0.0,0.0,0.0,0.0,0.0,0.0,0.0,0.0,0.0,0.0,-1.1141,-1.0893,-1.0669,-1.053,-1.053,-1.065,-1.0918,-1.0935,-1.1084,-1.1555,-1.1566,-1.1702,-1.1957,-1.1957,-1.1957,-1.2043,-1.2043,-1.2043,-1.1957,-1.1957,-1.1871,-1.1699,-1.1699,-1.1527,-1.1262,-1.1262,-1.1267,-1.1332,-1.1605,-1.1455,-1.1206,-1.1512,-1.1194,-1.0703,-1.0511,-1.0216,-0.992,-0.9727,-0.9628,-0.9529,-0.9232,-0.9031,-0.8726,-0.8432,-0.8237,-0.7975,-0.7913,-0.7751,-0.7578,-0.7382,-0.729,-0.7154,-0.7154,-0.7154,-0.7154,-0.7154,-0.6935,-0.6715,-0.6715,-0.6495,-0.6161,-0.5822,-0.5822,-0.5712,-0.5382,-0.5382,-0.5382,-0.5382,-0.5382,-0.5382,-0.5382,-0.5382,-0.5382,-0.5382,-0.5043,-0.4929,-0.4817,-0.426,-0.4038,-0.4036,-0.3699,-0.3587,-0.3587,-0.3587,-0.3587,0.0,0.0,-1.8362,-1.8012,0.0,0.0,0.0,0.0,0.0,0.0,0.0,0.0,0.0,0.0,0.0,0.0,0.0,0.0,0.0,0.0,0.0,0.0,0.0,0.0,0.0,0.0,0.0,-1.149,-1.1186,-1.0962,-1.0887,-1.0663,-1.0558,-1.0644,-1.0821,-1.0992,-1.1158,-1.1402,-1.1689,-1.2038,-1.2202,-1.2369,-1.2454,-1.2454,-1.2369,-1.2283,-1.2283,-1.2118,-1.1871,-1.1871,-1.1785,-1.1527,-1.1527,-1.144,-1.13,-1.1431,-1.1324,-1.1288,-1.1366,-1.1198,-1.0998,-1.0703,-1.0511,-1.0216,-0.992,-0.9723,-0.9628,-0.9529,-0.9232,-0.9031,-0.873,-0.8432,-0.8275,-0.8228,-0.7862,-0.7578,-0.7705,-0.7399,-0.7154,-0.7154,-0.7154,-0.7154,-0.7154,-0.7154,-0.6935,-0.6712,-0.6604,-0.6495,-0.6161,-0.6161,-0.6049,-0.6051,-0.6051,-0.6051,-0.6051,-0.5826,-0.5601,-0.5382,-0.5382,-0.5382,-0.5382,-0.5268,-0.5156,-0.4929,-0.4706,-0.4372,-0.4038,-0.3924,-0.3813,-0.3587,-0.3587,-0.3587,-1.8696,-1.8567,0.0,-1.8132,-1.7951,0.0,-1.7639,0.0,0.0,0.0,0.0,0.0,0.0,0.0,0.0,0.0,0.0,0.0,0.0,-1.5883,0.0,0.0,0.0,0.0,0.0,0.0,-1.2003,-1.1855,-1.1484,-1.1335,0.0,0.0,-1.0812,-1.0812,-1.0907,-1.1047,-1.1146,-1.1387,-1.1717,-1.2153,-1.232,-1.2445,-1.2705,-1.2705,-1.2619,-1.2534,-1.2534,-1.2369,-1.2118,-1.2118,-1.2037,-1.1785,-1.1699,-1.1613,-1.1467,-1.1435,-1.1444,-1.1392,-1.1269,-1.1194,-1.1194,-1.0904,-1.0609,-1.0314,-1.0117,-0.9826,-0.9628,-0.9628,-0.943,-0.9133,-0.8825,-0.8627,-0.8389,-0.8398,-0.8001,-0.7802,-0.7874,-0.7543,-0.7268,-0.7265,-0.7154,-0.7154,-0.7154,-0.7154,-0.7154,-0.6935,-0.6824,-0.6826,-0.6495,-0.6495,-0.6383,-0.6274,-0.6274,-0.6274,-0.6274,-0.6049,-0.5824,-0.5603,-0.5491,-0.5491,-0.5382,-0.5382,-0.5268,-0.5043,-0.4931,-0.4706,-0.4147,-0.4036,-0.3813,-0.3587,-0.3587,-0.3587]},{"header":{"parameterUnit":"m.s-1","parameterCategory":1,"la1":30.6,"la2":29.2853,"lo1":-89.7004,"lo2":-87.6739,"dy":0.0162,"dx":0.0183,"nx":112,"ny":82,"refTime":"2023-08-04T12:00:00:Z","depth":0,"parameterNumber":3,"parameterNumberName":"V-component_of_WINDS"},"data":[0.0,0.0,0.0,0.0,0.0,0.0,0.0,0.0,0.0,0.0,0.0,0.0,0.0,0.0,0.0,0.0,0.0,0.0,0.0,0.0,0.0,0.0,0.0,0.0,0.0,0.0,0.0,0.0,0.0,0.0,0.0,0.0,0.0,0.0,0.0,0.0,0.0,0.0,0.0,0.0,0.0,0.0,0.0,0.0,0.0,0.0,0.0,0.0,0.0,0.0,0.0,0.0,0.0,0.0,0.0,0.0,0.0,0.0,0.0,0.0,0.0,0.0,0.0,0.0,0.0,0.0,0.0,0.0,0.0,0.0,0.0,0.0,0.0,0.0,0.0,0.0,0.0,0.0,0.0,0.0,0.0,0.0,0.0,0.0,0.0,0.0,0.0,0.0,0.0,0.0,-3.4147,-3.4591,-3.4592,-3.4822,-3.5359,-3.5509,-3.5925,-3.669,0.0,0.0,0.0,0.0,0.0,0.0,0.0,0.0,0.0,0.0,0.0,0.0,0.0,0.0,0.0,0.0,0.0,0.0,0.0,0.0,0.0,0.0,0.0,0.0,0.0,0.0,0.0,0.0,0.0,0.0,0.0,0.0,0.0,0.0,0.0,0.0,0.0,0.0,0.0,0.0,0.0,0.0,0.0,0.0,0.0,0.0,0.0,0.0,0.0,0.0,0.0,0.0,0.0,0.0,0.0,0.0,0.0,0.0,0.0,0.0,0.0,0.0,0.0,0.0,0.0,0.0,0.0,0.0,0.0,0.0,0.0,0.0,0.0,0.0,0.0,0.0,0.0,0.0,0.0,0.0,0.0,0.0,0.0,0.0,0.0,0.0,0.0,0.0,0.0,0.0,0.0,0.0,0.0,0.0,0.0,0.0,0.0,0.0,0.0,0.0,0.0,0.0,0.0,0.0,-3.4957,-3.5335,-3.5936,-3.6307,-3.6312,-3.6429,-3.6643,-3.6948,0.0,0.0,0.0,0.0,0.0,0.0,0.0,0.0,0.0,0.0,0.0,0.0,0.0,0.0,0.0,0.0,0.0,0.0,0.0,0.0,0.0,0.0,0.0,0.0,0.0,0.0,0.0,0.0,0.0,0.0,0.0,0.0,0.0,0.0,0.0,0.0,0.0,0.0,0.0,0.0,0.0,0.0,0.0,0.0,0.0,0.0,0.0,0.0,0.0,0.0,0.0,0.0,0.0,0.0,0.0,0.0,0.0,0.0,0.0,0.0,0.0,0.0,0.0,0.0,0.0,0.0,0.0,0.0,0.0,0.0,0.0,0.0,0.0,0.0,0.0,0.0,0.0,0.0,0.0,0.0,0.0,0.0,0.0,0.0,0.0,0.0,0.0,0.0,0.0,0.0,0.0,0.0,0.0,0.0,0.0,0.0,0.0,0.0,0.0,0.0,0.0,0.0,0.0,-3.5775,-3.6171,-3.6212,-3.6539,-3.6725,-3.6602,-3.6684,-3.6829,-3.6987,-3.7531,0.0,0.0,0.0,0.0,0.0,0.0,0.0,0.0,0.0,0.0,0.0,0.0,0.0,0.0,0.0,0.0,0.0,0.0,0.0,0.0,0.0,0.0,0.0,0.0,0.0,0.0,0.0,0.0,0.0,0.0,0.0,0.0,0.0,0.0,0.0,0.0,0.0,0.0,0.0,0.0,0.0,0.0,0.0,0.0,0.0,0.0,0.0,0.0,0.0,0.0,0.0,0.0,0.0,0.0,0.0,0.0,0.0,0.0,0.0,0.0,0.0,0.0,0.0,0.0,0.0,0.0,0.0,0.0,0.0,0.0,0.0,0.0,0.0,0.0,0.0,0.0,0.0,0.0,0.0,0.0,0.0,0.0,0.0,0.0,0.0,0.0,0.0,0.0,0.0,0.0,0.0,0.0,0.0,0.0,0.0,0.0,0.0,0.0,0.0,0.0,0.0,0.0,-3.6832,-3.7048,-3.6811,-3.6788,-3.6788,-3.6725,-3.6963,-3.7171,-3.733,-3.8227,0.0,0.0,0.0,0.0,0.0,0.0,0.0,0.0,0.0,0.0,0.0,0.0,0.0,0.0,0.0,0.0,0.0,0.0,0.0,0.0,0.0,0.0,0.0,0.0,0.0,0.0,0.0,0.0,0.0,0.0,0.0,0.0,0.0,0.0,0.0,0.0,0.0,0.0,0.0,0.0,0.0,0.0,0.0,0.0,0.0,0.0,0.0,0.0,0.0,0.0,0.0,0.0,0.0,0.0,0.0,0.0,0.0,0.0,0.0,0.0,0.0,0.0,0.0,0.0,0.0,0.0,0.0,0.0,0.0,0.0,0.0,0.0,0.0,0.0,0.0,0.0,0.0,0.0,0.0,0.0,0.0,0.0,0.0,0.0,0.0,0.0,0.0,0.0,0.0,0.0,0.0,0.0,0.0,0.0,0.0,0.0,0.0,0.0,0.0,0.0,0.0,0.0,-3.7261,-3.7182,-3.6811,-3.6788,-3.6788,-3.6788,-3.7475,-3.8058,-3.8355,-3.9102,0.0,0.0,0.0,0.0,0.0,0.0,0.0,0.0,0.0,0.0,0.0,0.0,0.0,0.0,0.0,0.0,0.0,0.0,0.0,0.0,0.0,0.0,0.0,0.0,0.0,0.0,0.0,0.0,0.0,0.0,0.0,0.0,0.0,0.0,0.0,0.0,0.0,0.0,0.0,0.0,0.0,0.0,0.0,0.0,0.0,0.0,0.0,0.0,0.0,0.0,0.0,0.0,0.0,0.0,0.0,0.0,0.0,0.0,0.0,0.0,0.0,0.0,0.0,0.0,0.0,0.0,0.0,0.0,0.0,0.0,0.0,0.0,0.0,0.0,0.0,0.0,0.0,0.0,0.0,0.0,0.0,0.0,0.0,0.0,0.0,0.0,0.0,0.0,0.0,0.0,0.0,0.0,0.0,0.0,0.0,0.0,0.0,0.0,0.0,0.0,0.0,0.0,-3.7297,-3.722,0.0,-3.7329,-3.7591,-3.7591,-3.8409,-3.8989,-3.9191,0.0,0.0,0.0,0.0,0.0,0.0,0.0,0.0,0.0,0.0,0.0,0.0,0.0,0.0,0.0,0.0,0.0,0.0,0.0,0.0,0.0,0.0,0.0,0.0,0.0,0.0,0.0,0.0,0.0,0.0,0.0,0.0,0.0,0.0,0.0,0.0,0.0,0.0,0.0,0.0,0.0,0.0,0.0,0.0,0.0,0.0,0.0,0.0,0.0,0.0,0.0,0.0,0.0,0.0,0.0,0.0,0.0,0.0,0.0,0.0,0.0,0.0,0.0,0.0,0.0,0.0,0.0,0.0,0.0,0.0,0.0,0.0,0.0,0.0,0.0,0.0,0.0,0.0,0.0,0.0,0.0,0.0,0.0,0.0,0.0,0.0,0.0,0.0,0.0,0.0,0.0,0.0,0.0,0.0,0.0,0.0,0.0,0.0,0.0,0.0,0.0,0.0,-3.7354,-3.7509,-3.7591,0.0,-3.8081,-3.852,-3.852,-3.9382,-3.9964,-4.0068,0.0,0.0,0.0,0.0,0.0,0.0,0.0,0.0,0.0,0.0,0.0,0.0,0.0,0.0,0.0,0.0,0.0,0.0,0.0,0.0,0.0,0.0,0.0,0.0,0.0,0.0,0.0,0.0,0.0,0.0,0.0,0.0,0.0,0.0,0.0,0.0,0.0,0.0,0.0,0.0,0.0,0.0,0.0,0.0,0.0,0.0,0.0,0.0,0.0,0.0,0.0,0.0,0.0,0.0,0.0,0.0,0.0,0.0,0.0,0.0,0.0,0.0,0.0,0.0,0.0,0.0,0.0,0.0,0.0,0.0,0.0,0.0,0.0,0.0,0.0,0.0,0.0,0.0,0.0,0.0,0.0,0.0,0.0,0.0,0.0,0.0,0.0,0.0,0.0,0.0,0.0,0.0,0.0,0.0,0.0,0.0,0.0,0.0,0.0,0.0,0.0,0.0,-3.7429,-3.8008,-3.8386,-3.8325,-3.903,-3.9488,-3.9488,-4.0318,-4.0925,0.0,0.0,0.0,0.0,0.0,0.0,0.0,0.0,0.0,0.0,0.0,0.0,0.0,0.0,0.0,0.0,0.0,0.0,0.0,0.0,0.0,0.0,0.0,0.0,0.0,0.0,0.0,0.0,0.0,0.0,0.0,0.0,0.0,0.0,0.0,0.0,0.0,0.0,0.0,0.0,0.0,0.0,0.0,0.0,0.0,0.0,0.0,0.0,0.0,0.0,0.0,0.0,0.0,0.0,0.0,0.0,0.0,0.0,0.0,0.0,0.0,0.0,0.0,0.0,0.0,0.0,0.0,0.0,0.0,0.0,0.0,0.0,0.0,0.0,0.0,0.0,0.0,0.0,0.0,0.0,0.0,0.0,0.0,0.0,0.0,0.0,0.0,0.0,0.0,0.0,0.0,0.0,0.0,0.0,0.0,0.0,0.0,0.0,0.0,0.0,0.0,0.0,0.0,-3.8285,-3.8901,-3.9341,-3.9204,-3.9929,-4.0406,-4.0406,-4.1197,-4.1766,-4.193,0.0,0.0,0.0,0.0,0.0,0.0,0.0,0.0,0.0,0.0,0.0,0.0,0.0,0.0,0.0,0.0,0.0,0.0,0.0,0.0,0.0,0.0,0.0,0.0,0.0,0.0,0.0,0.0,0.0,0.0,0.0,0.0,0.0,0.0,0.0,0.0,0.0,0.0,0.0,0.0,0.0,0.0,0.0,0.0,0.0,0.0,0.0,0.0,0.0,0.0,0.0,0.0,0.0,0.0,0.0,0.0,0.0,0.0,0.0,0.0,0.0,0.0,0.0,0.0,0.0,0.0,0.0,0.0,0.0,0.0,0.0,0.0,0.0,0.0,0.0,0.0,0.0,0.0,0.0,0.0,0.0,0.0,0.0,0.0,0.0,0.0,0.0,0.0,0.0,0.0,0.0,0.0,0.0,0.0,0.0,0.0,0.0,0.0,0.0,0.0,0.0,0.0,-3.9218,-3.9836,-4.0295,-4.0157,-4.0866,-4.1328,-4.1369,-4.1937,-4.2346,-4.249,0.0,0.0,0.0,0.0,0.0,0.0,0.0,0.0,0.0,0.0,0.0,0.0,0.0,0.0,0.0,0.0,0.0,0.0,0.0,0.0,0.0,0.0,0.0,0.0,0.0,0.0,0.0,0.0,0.0,0.0,0.0,0.0,0.0,0.0,0.0,0.0,0.0,0.0,0.0,0.0,0.0,0.0,0.0,0.0,0.0,0.0,0.0,0.0,0.0,0.0,0.0,0.0,0.0,0.0,0.0,0.0,0.0,0.0,0.0,0.0,0.0,0.0,0.0,0.0,0.0,0.0,0.0,0.0,0.0,0.0,0.0,0.0,0.0,0.0,0.0,0.0,0.0,0.0,0.0,0.0,0.0,0.0,0.0,0.0,0.0,0.0,0.0,0.0,0.0,0.0,0.0,0.0,0.0,0.0,0.0,0.0,0.0,0.0,0.0,0.0,0.0,0.0,-4.0231,-4.0814,-4.1234,-4.1149,-4.1807,-4.2311,-4.2435,-4.2624,-4.2839,-4.3018,0.0,0.0,0.0,0.0,0.0,0.0,0.0,0.0,0.0,0.0,0.0,0.0,0.0,0.0,0.0,0.0,0.0,0.0,0.0,0.0,0.0,0.0,0.0,0.0,0.0,0.0,0.0,0.0,0.0,0.0,0.0,0.0,0.0,0.0,0.0,0.0,0.0,0.0,0.0,0.0,0.0,0.0,0.0,0.0,0.0,0.0,0.0,0.0,0.0,0.0,0.0,0.0,0.0,0.0,0.0,0.0,0.0,0.0,0.0,0.0,-3.6166,0.0,0.0,0.0,0.0,0.0,0.0,0.0,0.0,0.0,0.0,0.0,0.0,0.0,0.0,0.0,0.0,0.0,0.0,0.0,0.0,0.0,0.0,0.0,0.0,0.0,0.0,0.0,0.0,0.0,0.0,0.0,0.0,0.0,0.0,0.0,0.0,0.0,0.0,0.0,0.0,0.0,-4.1115,-4.1815,-4.2261,-4.2239,-4.2956,-4.3463,-4.3463,-4.4096,-4.4538,-4.4762,-4.4784,0.0,0.0,0.0,0.0,0.0,0.0,0.0,0.0,0.0,0.0,0.0,0.0,0.0,0.0,0.0,0.0,0.0,0.0,0.0,0.0,0.0,0.0,0.0,0.0,0.0,0.0,0.0,0.0,0.0,0.0,0.0,0.0,0.0,0.0,0.0,0.0,0.0,0.0,0.0,0.0,0.0,0.0,0.0,0.0,0.0,0.0,0.0,0.0,0.0,0.0,0.0,0.0,0.0,0.0,0.0,0.0,0.0,0.0,0.0,0.0,-3.6686,0.0,0.0,0.0,0.0,0.0,0.0,0.0,0.0,0.0,0.0,0.0,0.0,0.0,0.0,0.0,0.0,0.0,0.0,0.0,0.0,0.0,0.0,0.0,0.0,0.0,0.0,0.0,0.0,0.0,0.0,0.0,0.0,0.0,0.0,0.0,0.0,0.0,0.0,0.0,0.0,-4.3268,-4.3588,-4.38,-4.376,-4.416,-4.4493,-4.4534,-4.4953,-4.5309,-4.5449,-4.5526,0.0,0.0,0.0,0.0,0.0,0.0,0.0,0.0,0.0,0.0,0.0,0.0,0.0,0.0,0.0,0.0,0.0,0.0,0.0,0.0,0.0,0.0,0.0,0.0,0.0,0.0,0.0,0.0,0.0,0.0,0.0,0.0,0.0,0.0,0.0,0.0,0.0,0.0,0.0,0.0,0.0,0.0,0.0,0.0,0.0,0.0,0.0,0.0,0.0,0.0,0.0,0.0,0.0,-4.0103,-4.0719,-4.0681,-4.1332,-4.1649,-4.1481,-3.8765,-3.7567,-3.7559,0.0,0.0,0.0,0.0,0.0,0.0,0.0,0.0,0.0,0.0,0.0,0.0,0.0,0.0,0.0,0.0,0.0,0.0,0.0,0.0,0.0,0.0,0.0,0.0,0.0,-4.1883,-4.1885,0.0,0.0,0.0,0.0,0.0,0.0,0.0,0.0,0.0,0.0,0.0,0.0,-4.5287,-4.5265,-4.5224,-4.5124,-4.5314,-4.5508,-4.5548,-4.5794,-4.5984,-4.6061,-4.625,-4.636,0.0,0.0,0.0,0.0,0.0,0.0,0.0,0.0,0.0,0.0,0.0,0.0,0.0,0.0,0.0,0.0,0.0,0.0,0.0,0.0,0.0,0.0,0.0,0.0,0.0,0.0,0.0,0.0,0.0,0.0,0.0,0.0,-3.3419,-3.4341,0.0,0.0,0.0,0.0,0.0,0.0,0.0,0.0,0.0,0.0,0.0,0.0,0.0,-3.8845,-4.029,-4.0422,-4.0765,-4.1405,-4.1603,-4.1688,-4.1633,-4.1745,-4.1782,-4.1764,-4.1334,0.0,-4.094,-4.1026,0.0,0.0,0.0,0.0,0.0,0.0,0.0,0.0,0.0,0.0,0.0,0.0,0.0,0.0,0.0,0.0,0.0,0.0,0.0,0.0,0.0,0.0,-4.273,-4.3415,-4.4073,-4.4675,0.0,-4.4281,-4.3589,-4.5002,-4.5351,0.0,0.0,0.0,0.0,0.0,0.0,0.0,-4.5565,-4.5526,-4.5526,-4.5526,-4.6145,-4.6582,-4.6603,-4.7396,-4.7858,-4.7956,-4.8088,-4.82,-4.8237,-4.8475,0.0,0.0,0.0,0.0,0.0,0.0,0.0,0.0,0.0,0.0,0.0,0.0,0.0,0.0,0.0,0.0,0.0,0.0,0.0,0.0,0.0,0.0,0.0,0.0,0.0,0.0,0.0,0.0,0.0,-3.3325,-3.4207,-3.4545,-3.4602,-3.4789,0.0,0.0,0.0,0.0,0.0,0.0,0.0,0.0,0.0,-3.969,-4.014,-4.0741,-4.1473,-4.1421,-4.1582,-4.1892,-4.2333,-4.2511,-4.2502,-4.2987,-4.323,-4.323,-4.323,-4.3173,-4.3058,-4.2118,-4.1754,-4.1754,0.0,0.0,0.0,0.0,-4.1782,-4.1754,-4.1754,-4.1745,0.0,-4.1716,0.0,0.0,0.0,0.0,0.0,0.0,0.0,0.0,0.0,0.0,-4.4971,-4.5291,-4.5545,-4.5959,-4.6792,-4.6281,-4.5768,0.0,-4.6081,-4.6046,-4.6028,0.0,0.0,0.0,0.0,-4.7203,-4.7088,-4.7472,-4.7746,-4.7746,-4.8517,-4.9072,-4.9111,-4.9559,-4.9838,-4.9877,-4.9953,-5.0065,-5.0175,-5.0283,-5.0354,0.0,0.0,0.0,0.0,0.0,0.0,0.0,0.0,0.0,0.0,0.0,0.0,0.0,0.0,0.0,0.0,0.0,0.0,0.0,0.0,0.0,0.0,0.0,0.0,0.0,0.0,0.0,0.0,-3.4226,-3.4602,-3.4602,-3.4789,-3.5184,0.0,0.0,0.0,0.0,0.0,0.0,-3.892,-4.0121,-4.0891,-4.1098,-4.1698,-4.213,-4.2337,-4.2283,-4.235,-4.2575,-4.3325,-4.367,-4.3708,-4.4587,-4.4849,-4.4643,-4.4643,-4.4691,-4.4579,-4.3091,-4.2473,-4.2473,-4.2473,-4.2501,-4.2501,-4.2501,-4.2604,-4.2773,-4.2773,-4.2894,-4.3062,-4.3062,0.0,-4.3062,-4.3062,0.0,0.0,0.0,0.0,-4.5032,-4.5587,-4.6171,-4.6675,-4.6852,-4.6824,-4.7018,-4.8076,-4.8245,-4.799,0.0,-4.7147,-4.7202,-4.7405,0.0,0.0,0.0,0.0,-4.912,-4.8967,-4.9481,-4.9848,-4.9848,-5.0478,-5.0885,-5.0945,-5.1062,-5.1138,-5.1176,-5.1232,-5.1342,-5.1469,-5.154,-5.161,-5.1731,0.0,0.0,0.0,0.0,0.0,0.0,0.0,0.0,0.0,0.0,0.0,0.0,0.0,0.0,0.0,0.0,0.0,0.0,0.0,0.0,0.0,0.0,0.0,0.0,0.0,0.0,0.0,0.0,0.0,-3.4602,-3.5334,0.0,0.0,0.0,0.0,-3.8188,-3.8281,-3.8995,-4.0591,-4.076,-4.1154,-4.1916,-4.1972,-4.2412,-4.3219,-4.3219,-4.3613,-4.4374,-4.519,-4.5566,-4.5604,-4.6457,-4.643,-4.5641,-4.5641,-4.5688,-4.5726,-4.4683,-4.4252,-4.4299,-4.4355,-4.4355,-4.4355,-4.4355,-4.4815,-4.5413,-4.5413,-4.5889,-4.6464,-4.6464,-4.6464,-4.6464,-4.6464,-4.6464,0.0,0.0,-4.6557,-4.6595,-4.6601,-4.6638,-4.6881,-4.7722,-4.7909,-4.8357,-4.9926,-5.0247,-5.0126,0.0,-4.9732,-4.9972,-5.073,0.0,-5.0915,-5.0933,-5.0952,-5.0951,-5.0951,-5.0988,-5.1006,-5.1006,-5.1043,-5.108,-5.108,-5.1157,-5.1232,-5.1379,-5.1469,-5.154,-5.1663,-5.1697,-5.1731,-5.178,-5.178,0.0,0.0,0.0,0.0,0.0,0.0,0.0,0.0,0.0,0.0,0.0,0.0,0.0,0.0,0.0,0.0,0.0,0.0,0.0,0.0,0.0,0.0,0.0,0.0,0.0,0.0,0.0,0.0,-3.5446,-3.616,0.0,-3.7399,-3.7699,-3.8225,-3.907,-3.9614,-4.0178,-4.0778,-4.1811,-4.2543,-4.2825,-4.3351,-4.4026,-4.4834,-4.4834,-4.5266,-4.611,-4.6411,-4.6542,-4.6542,-4.6901,-4.6892,-4.6591,-4.6647,-4.6694,-4.6722,-4.6346,-4.6186,-4.6186,-4.6233,-4.6233,-4.6233,-4.6233,-4.6403,-4.6619,-4.6619,-4.675,-4.6955,-4.6915,-4.6885,-4.6885,-4.6885,-4.6885,-4.6885,-4.6885,-4.726,-4.7653,-4.761,-4.8003,-4.8552,-4.9361,-4.9533,-4.9851,-5.1006,-5.1249,-5.1364,-5.1765,-5.1413,-5.1152,-5.1432,-5.1487,-5.1487,-5.1487,-5.1397,-5.1361,-5.1287,-5.1676,-5.1971,-5.199,-5.2511,-5.2864,-5.2958,-5.3051,-5.3105,-5.3142,-5.3142,-5.3232,-5.3374,-5.3374,-5.339,-5.3474,-5.3541,-5.3555,0.0,0.0,0.0,0.0,0.0,0.0,0.0,0.0,0.0,0.0,0.0,0.0,0.0,0.0,0.0,0.0,0.0,0.0,0.0,0.0,0.0,0.0,0.0,0.0,0.0,0.0,-3.6291,-3.6291,-3.7024,-3.7699,-3.8244,-3.8563,-3.9089,-3.9934,-4.0497,-4.1041,-4.1605,-4.2693,-4.3426,-4.3707,-4.4496,-4.5172,-4.5697,-4.5998,-4.643,-4.7012,-4.7304,-4.7435,-4.7435,-4.7805,-4.7825,-4.7542,-4.757,-4.7626,-4.7672,-4.7672,-4.7842,-4.8059,-4.7437,-4.7183,-4.7183,-4.7183,-4.7353,-4.7636,-4.7938,-4.8004,-4.7966,-4.7926,-4.7926,-4.7926,-4.7926,-4.7926,-4.7926,-4.7926,-4.8491,-4.9111,-4.9039,-4.9659,-5.0391,-5.089,-5.1021,-5.1246,-5.2057,-5.2244,-5.2454,-5.3243,-5.2704,-5.2202,-5.2463,-5.2519,-5.2519,-5.2519,-5.2431,-5.236,-5.2324,-5.268,-5.2995,-5.3014,-5.3572,-5.3963,-5.4019,-5.4055,-5.4127,-5.4146,-5.4146,-5.4235,-5.4324,-5.4359,-5.4409,-5.4424,-5.4524,-5.459,-5.4603,0.0,0.0,0.0,0.0,0.0,0.0,0.0,0.0,0.0,0.0,0.0,0.0,0.0,0.0,0.0,0.0,0.0,0.0,0.0,0.0,0.0,0.0,0.0,-3.698,-3.7071,-3.7136,-3.7136,-3.785,-3.8357,-3.8375,-3.9126,-3.9952,-4.0778,-4.0854,-4.1586,-4.32,-4.3313,-4.3707,-4.4515,-4.5284,-4.5735,-4.5772,-4.6617,-4.7049,-4.7087,-4.7945,-4.8332,-4.837,-4.9286,-4.9239,-4.8447,-4.8447,-4.8522,-4.8643,-4.8643,-4.9143,-4.9728,-4.7983,-4.7286,-4.7286,-4.7286,-4.7768,-4.856,-4.9409,-4.9692,-4.9711,-4.973,-4.973,-4.973,-4.9768,-4.9768,-4.9768,-4.9768,-5.0334,-5.0937,-5.0937,-5.159,-5.2213,-5.2232,-5.2251,-5.2447,-5.3201,-5.3338,-5.355,-5.4274,-5.3634,-5.323,-5.3996,-5.4146,-5.4164,-5.4127,-5.411,0.0,-5.4091,-5.4091,-5.4091,-5.4091,-5.4091,-5.4091,-5.4091,-5.4091,-5.4181,-5.4289,-5.4308,-5.4324,-5.4409,-5.4472,-5.4505,-5.4505,-5.4641,-5.4755,-5.4799,0.0,0.0,0.0,0.0,0.0,0.0,0.0,0.0,0.0,0.0,0.0,0.0,0.0,0.0,0.0,0.0,0.0,0.0,0.0,0.0,0.0,0.0,-3.7586,-3.7074,-3.7534,-3.7914,-3.7962,-3.8713,-3.9464,-4.0065,-4.0328,-4.0797,-4.1623,-4.2262,-4.2806,-4.3275,-4.3857,-4.4552,-4.5341,-4.5585,-4.6279,-4.75,-4.7744,-4.8194,-4.8814,-4.9093,-4.9235,-4.9265,-4.9608,-4.9646,-4.9419,-4.9475,-4.953,-4.953,-4.953,-4.969,-4.9841,-4.9359,-4.9143,-4.9143,-4.9143,-4.9294,-4.9522,-4.9731,-4.9778,-4.9844,-5.0401,-5.056,-5.0673,-5.1326,-5.1533,-5.1533,-5.1533,-5.1684,-5.1854,-5.1854,-5.2024,-5.2364,-5.2918,-5.3069,-5.3296,-5.4113,-5.432,-5.4345,-5.4468,-5.4758,-5.4859,-5.4396,-5.4809,-5.4996,-5.4415,-5.4757,0.0,-5.4329,-5.4146,-5.4091,-5.4091,-5.42,-5.4254,-5.4254,-5.4306,-5.4321,-5.4375,-5.4424,-5.4439,-5.4472,-5.459,-5.4673,-5.4736,-5.4736,-5.4799,0.0,0.0,0.0,0.0,0.0,0.0,0.0,0.0,0.0,0.0,0.0,0.0,0.0,0.0,0.0,0.0,0.0,0.0,0.0,0.0,0.0,0.0,-3.9122,-3.9119,-3.9039,-3.8902,-3.8933,-3.9314,-3.9783,-4.0422,-4.1229,-4.1304,-4.1661,-4.2487,-4.3013,-4.3444,-4.3782,-4.4571,-4.5228,-4.5697,-4.6373,-4.7199,-4.8194,-4.8551,-4.9013,-4.9551,-4.9623,-4.9663,-4.9692,-4.9788,-4.9843,0.0,-4.9898,-4.9898,-4.9898,-4.9898,-4.9898,0.0,0.0,0.0,0.0,0.0,-5.0656,-5.094,-5.0903,-5.0903,-5.0951,-5.1395,-5.1517,-5.1611,-5.2132,-5.2284,-5.2284,-5.2284,-5.2567,-5.2832,-5.2832,-5.3078,-5.3456,-5.3898,-5.4012,-5.4163,-5.4642,-5.4736,-5.4705,-5.459,-5.5268,0.0,-5.5126,-5.5645,-5.5986,-5.5516,-5.5519,-5.539,-5.4886,-5.4477,-5.4252,-5.4252,-5.4306,-5.4359,-5.4359,-5.439,0.0,0.0,0.0,-5.459,-5.4603,-5.4705,0.0,0.0,0.0,-5.4841,-5.4901,0.0,0.0,0.0,-5.5451,-5.5451,0.0,0.0,0.0,0.0,0.0,0.0,0.0,0.0,0.0,0.0,0.0,0.0,0.0,0.0,0.0,0.0,-4.0763,-4.1006,-4.1798,-4.0734,-4.014,-4.0854,-4.0947,-4.1248,-4.2074,-4.2168,-4.2506,-4.3369,-4.3444,-4.3782,-4.459,0.0,0.0,0.0,0.0,-4.8251,-4.8345,-4.9114,-4.9521,-4.9593,-4.9663,-4.9721,-4.9807,-4.9871,-4.9898,-4.9898,-4.9898,-4.9898,-4.9898,-4.9898,-4.9955,-5.005,-5.005,-5.0088,-5.0277,-5.1054,-5.1793,-5.24,-5.24,0.0,0.0,-5.2532,-5.2551,-5.2599,-5.2665,-5.2684,-5.2684,-5.2684,-5.3252,-5.384,-5.384,-5.4371,-5.4901,-5.4901,-5.4901,-5.4871,-5.4829,-5.4799,-5.4799,-5.4705,-5.5352,-5.5937,-5.6031,-5.6613,-5.7035,-5.6941,-5.6359,-5.587,-5.5683,-5.5025,-5.4537,-5.4443,0.0,0.0,-5.4424,-5.4491,-5.4538,-5.4538,-5.4641,-5.4736,-5.4799,-5.4799,-5.4829,-5.4901,-5.4901,-5.4958,-5.5053,-5.5811,-5.6247,-5.6341,-5.6341,-5.6341,0.0,0.0,0.0,0.0,0.0,0.0,0.0,0.0,0.0,0.0,0.0,0.0,0.0,0.0,0.0,-4.1472,-4.164,-4.1724,-4.1873,-4.1683,-4.1605,-4.1755,-4.1773,-4.2111,-4.2975,-4.305,-4.3388,-4.4214,-4.4271,-4.4627,-4.5416,-4.5622,0.0,-4.7669,-4.8025,-4.8532,-4.9246,-4.9415,-4.9509,-4.9521,0.0,0.0,-4.9721,-4.9843,-4.9898,-4.9898,-4.9898,-4.9898,-4.9898,-4.9898,-5.0315,-5.0959,-5.0959,-5.1357,-5.1945,-5.2115,-5.2286,-5.24,-5.24,-5.2428,-5.2598,-5.33,-5.3584,-5.3707,-5.4316,-5.4496,0.0,-5.4408,-5.4541,-5.4674,-5.4674,-5.4787,-5.4901,-5.4901,-5.4901,-5.4901,-5.4871,-5.4871,-5.4841,-5.4799,-5.5429,-5.6153,-5.6767,-5.7544,-5.7884,-5.7152,-5.7525,-5.7375,-5.6003,-5.5701,-5.5343,-5.4716,-5.4641,-5.4641,-5.4641,-5.4641,-5.4673,-5.4673,-5.4736,-5.4799,-5.4871,-5.4871,-5.4871,-5.4901,-5.4901,-5.5242,-5.5943,-5.6114,-5.6531,-5.7175,-5.7175,-5.7175,0.0,0.0,0.0,0.0,0.0,0.0,0.0,0.0,0.0,0.0,0.0,-4.0408,0.0,0.0,-4.1627,-4.2452,-4.2602,-4.2733,-4.3146,-4.323,-4.3106,-4.2712,-4.2656,-4.2975,-4.382,-4.3895,-4.4083,-4.4477,-4.4871,-4.5284,-4.5679,-4.6505,-4.7331,-4.8157,-4.8626,-4.9058,-4.9509,-4.9509,-4.9521,-4.9532,-4.9653,-4.9721,-4.975,-4.9843,-4.9898,-4.9898,-4.9898,-4.9898,-4.9917,-5.0372,-5.13,-5.2456,-5.2456,-5.2703,-5.3063,-5.3063,-5.3309,-5.3669,-5.3679,-5.3718,-5.3822,-5.4315,-5.4476,-5.4561,-5.4952,-5.5038,-5.5038,-5.5,-5.4971,-5.4941,-5.4941,-5.4931,-5.4901,-5.4901,-5.4901,-5.4901,-5.4901,-5.4901,-5.4871,-5.486,-5.5522,-5.6223,-5.6576,-5.7332,-5.7999,-5.8295,-5.837,-5.7937,-5.6654,-5.6144,-5.5597,-5.4786,-5.4692,-5.4692,-5.4692,-5.4723,-5.4767,-5.4799,-5.4829,-5.489,-5.4901,-5.4901,-5.4901,-5.4901,-5.5348,-5.5814,-5.625,-5.7146,-5.7753,-5.8152,-5.8539,-5.8458,0.0,0.0,0.0,0.0,0.0,0.0,0.0,0.0,-4.0014,-4.0872,-4.1048,-4.1337,-4.2138,-4.2288,-4.257,-4.3415,-4.3547,-4.3847,-4.4627,-4.474,-4.4571,-4.4083,-4.3726,-4.3782,-4.4458,-4.4646,-4.474,-4.474,-4.5491,-4.6017,-4.6186,-4.7462,-4.8269,-4.8438,-4.9133,-4.9509,-4.9509,-4.9509,-4.9521,-4.9593,-4.9653,-4.9721,-4.9778,-4.9843,-4.9898,-4.9898,-4.9898,-4.9993,-5.022,-5.1092,-5.2343,-5.3726,-5.3878,-5.3935,-5.3935,-5.3935,-5.4352,-5.4931,-5.4971,-5.5028,-5.5057,-5.5094,-5.514,-5.5168,-5.5121,-5.5121,-5.5121,-5.5094,-5.5066,-5.5028,-5.5028,-5.4971,-5.4931,-5.4931,-5.4901,-5.4901,-5.4901,-5.4901,-5.4901,-5.4901,-5.547,-5.6,-5.6171,-5.6739,-5.7605,-5.8967,-5.8627,-5.7909,-5.7059,-5.6347,-5.5662,-5.4831,-5.4736,-5.4736,-5.4736,-5.4799,-5.486,-5.4901,-5.4901,-5.4931,-5.4931,-5.4931,-5.4931,-5.4931,-5.5854,-5.6396,-5.6567,-5.8128,-5.8976,-5.9147,-5.9752,-5.9621,-3.9477,-3.9526,-3.9594,-3.9642,-3.9656,-3.9857,0.0,0.0,-4.0973,-4.1776,-4.1996,-4.231,-4.3158,-4.3335,-4.3592,-4.4342,-4.4447,-4.4701,-4.5453,-4.5566,-4.5829,-4.6505,-4.5284,-4.4402,-4.4496,-4.5153,-4.5566,-4.5566,-4.6373,-4.7162,-4.7875,-4.8101,-4.8551,-4.934,-4.9452,-4.9509,-4.9509,-4.9509,-4.949,-4.949,-4.9563,-4.9653,-4.9721,-4.9778,-4.9843,-4.9898,-4.9898,-5.0334,-5.113,-5.1945,-5.2836,-5.3764,-5.4484,-5.4769,-5.4769,-5.4769,-5.4855,-5.5,-5.5,-5.5066,-5.5176,-5.5203,-5.5267,-5.5358,-5.5203,-5.5203,-5.5176,-5.5121,-5.5094,-5.5094,-5.5094,-5.5057,-5.5,-5.5,-5.4941,-5.4901,-5.4901,-5.4901,-5.4901,-5.4901,-5.4977,-5.5299,-5.6076,-5.6266,-5.6626,-5.7504,-5.7561,-5.722,-5.6405,-5.6216,-5.5837,-5.4966,-5.4871,-5.4871,-5.4871,-5.4871,-5.4901,-5.4901,-5.496,-5.5,-5.5,-5.5057,-5.5066,-5.5066,-5.595,-5.6749,-5.7472,-5.8443,-5.928,-5.9985,-6.0061,-6.0,-3.9618,-3.9642,0.0,0.0,-4.0085,-4.0532,-4.0871,-4.1305,-4.1914,-4.2743,-4.2957,-4.3202,-4.4033,-4.4202,-4.4316,0.0,-4.4659,-4.4942,-4.5762,-4.5875,-4.6168,-4.6967,-4.6459,-4.5998,-4.596,-4.6261,-4.6467,-4.6467,-4.7237,-4.7838,-4.8176,-4.8683,-4.9114,-4.949,-4.9509,-4.9509,-4.9509,-4.9509,-4.9521,-4.9582,-4.9623,-4.9692,-4.975,-4.9816,-4.9871,-4.9917,-5.0448,-5.113,-5.1964,-5.2817,-5.365,-5.4427,-5.4828,-5.496,-5.496,-5.496,-5.4971,-5.5028,-5.5094,-5.5149,-5.5229,-5.5294,-5.5358,-5.5403,-5.5339,-5.5313,-5.5313,-5.5286,-5.5222,-5.5176,-5.5176,-5.5094,-5.5057,-5.5057,-5.5,-5.496,-5.496,-5.4931,-5.4901,-5.4901,-5.4901,-5.5015,-5.5375,-5.5451,-5.5564,-5.5887,-5.6777,-5.7099,-5.6304,-5.619,-5.5868,-5.4996,-5.4901,-5.4901,-5.4901,-5.4931,-5.496,-5.496,-5.5028,-5.5057,-5.5057,-5.5094,-5.5094,-5.5094,-5.6501,-5.7358,-5.7701,-5.9092,-5.996,-6.0285,-6.0226,-6.0216,-3.9823,0.0,0.0,-3.9781,-4.0419,-4.1095,-4.1321,-4.2001,-4.2812,-4.3687,-4.3876,-4.4046,-4.465,-4.4764,-4.4764,-4.4738,-4.4738,-4.5115,-4.6164,-4.6315,-4.6711,-4.7712,-4.7825,-4.7815,-4.7747,-4.7492,-4.7331,-4.7331,-4.8082,-4.8551,-4.8551,-4.9152,-4.9509,-4.9509,-4.9509,-4.9509,-4.9521,-4.9521,-4.9563,-4.9623,-4.9663,-4.9721,-4.9807,-4.9871,-5.0031,-5.0277,-5.094,-5.1793,-5.2845,-5.3471,-5.4191,-5.4941,-5.5,-5.5028,-5.5028,-5.5057,-5.5057,-5.5066,-5.5176,-5.5229,-5.5275,-5.5358,-5.5403,-5.5403,-5.5403,-5.5403,-5.5403,-5.5403,-5.5339,-5.5248,-5.5248,-5.5176,-5.5121,-5.5121,-5.5066,-5.5028,-5.5028,-5.5,-5.496,-5.496,-5.496,-5.4931,-5.4931,-5.4901,-5.4901,-5.4901,-5.5925,-5.6493,-5.5925,-5.5849,-5.5602,-5.4977,-5.4931,-5.4931,-5.4931,-5.5,-5.5028,-5.5028,-5.5094,-5.5121,-5.5121,-5.5168,-5.5168,-5.5168,-5.6919,-5.7824,-5.7824,-5.9559,-6.0389,-6.0389,-6.0352,-6.0323,0.0,0.0,-3.9996,-3.9996,-4.0555,-4.1297,-4.2068,-4.2924,-4.3775,-4.4588,-4.4808,-4.4857,-4.4895,-4.4895,-4.487,-4.4815,-4.4815,-4.5356,-4.6946,-4.7145,-4.7768,-4.9428,-4.9617,-4.9617,0.0,-4.8735,-4.8157,-4.8157,-4.8964,-4.9471,-4.9471,-4.949,-4.9509,-4.9509,-4.9509,-4.9521,-4.9593,-4.9593,-4.9634,-4.9692,-4.9692,-4.9721,-4.9807,-4.9871,-5.0353,-5.1168,-5.1206,-5.2163,-5.3765,-5.3784,-5.4315,-5.5094,-5.5094,-5.5094,-5.5094,-5.5176,-5.5183,-5.5183,-5.5203,-5.5294,-5.5403,-5.5403,-5.5403,-5.5403,-5.5403,-5.5403,-5.5403,-5.5403,-5.5403,-5.5403,-5.5403,-5.5294,-5.5203,-5.5203,-5.5149,-5.5094,-5.5094,-5.5094,-5.5094,-5.5094,-5.5038,-5.5,-5.5,-5.4941,-5.4901,-5.4901,-5.4939,-5.4977,-5.4939,-5.4939,-5.4939,-5.4901,-5.496,-5.5,-5.5,-5.5057,-5.5094,-5.5094,-5.5176,-5.5203,-5.5203,-5.5313,-5.5403,-5.5403,-5.7046,-5.7905,-5.7905,-5.9568,-6.0389,-6.0389,-6.0389,-6.038,-4.0117,0.0,-4.0057,-3.9996,-4.0621,-4.143,-4.22,-4.3052,-4.3886,-4.4719,-4.4919,-4.4967,-4.4967,-4.4991,-4.4991,-4.4943,-4.4919,-4.5293,-4.6398,-4.7004,-4.7753,-4.8852,-4.9457,0.0,0.0,0.0,0.0,-4.913,-4.9394,-4.9551,-4.949,-4.9509,-4.9521,-4.9563,-4.9563,-4.9593,-4.9682,-4.9663,-4.9692,-4.9778,-4.9816,-4.9843,-4.9871,-4.9898,-5.0372,-5.1244,-5.1811,-5.2712,-5.3841,-5.441,-5.4838,-5.5094,-5.5149,-5.5176,-5.5176,-5.5294,-5.5339,-5.5339,-5.5339,-5.5358,-5.5403,-5.5403,-5.5403,-5.5403,-5.5403,-5.5403,-5.5403,-5.5403,-5.5403,-5.5403,-5.5403,-5.5358,-5.5339,-5.5339,-5.5267,-5.5176,-5.5176,-5.5121,-5.5094,-5.5094,-5.5066,-5.5085,-5.5085,-5.5057,-5.5028,-5.5028,-5.496,-5.4931,-5.4941,-5.499,-5.4971,-5.5028,-5.5038,-5.5085,-5.5085,-5.5121,-5.5176,-5.5176,-5.5267,-5.5339,-5.5339,-5.5377,-5.5403,-5.5403,-5.7046,-5.7905,-5.7905,-5.9568,-6.0389,-6.0389,-6.0389,-6.0389,-4.0157,-4.0157,-4.0137,-4.0077,-4.0684,-4.1518,-4.2291,-4.3126,-4.398,-4.4796,-4.501,-4.5033,-4.5033,-4.508,-4.5103,-4.5038,-4.5033,-4.5337,-4.612,-4.6689,-4.7397,-4.8518,-4.9078,-4.9513,0.0,0.0,0.0,-4.9634,-4.9653,-4.9623,-4.9563,-4.9582,-4.9593,-4.9634,-4.9653,-4.9663,-4.9721,-4.9721,-4.9778,-4.9835,-4.9871,-4.9898,-4.9898,-5.022,-5.0854,-5.1707,-5.2579,-5.347,-5.4324,-5.4912,-5.5149,-5.5214,-5.5248,-5.5275,-5.5294,-5.5358,-5.5212,-5.4982,-5.5288,-5.5403,-5.5403,-5.5403,-5.5403,-5.5403,-5.5403,-5.5403,-5.5403,-5.5403,-5.5403,-5.5403,-5.5403,-5.5403,-5.5403,-5.5403,-5.5339,-5.5275,-5.5275,-5.5241,-5.5214,-5.5214,-5.5168,-5.5149,-5.5149,-5.5121,-5.5094,-5.5094,-5.5028,-5.5,-5.5028,-5.5057,-5.5038,-5.5094,-5.5121,-5.5149,-5.5149,-5.5222,-5.5275,-5.5275,-5.5358,-5.5403,-5.5403,-5.5403,-5.5403,-5.5403,-5.7046,-5.7905,-5.7905,-5.9568,-6.0389,-6.0389,-6.0389,-6.0389,-4.031,-4.0253,-4.0196,-4.0196,-4.0728,-4.1468,-4.2343,-4.3161,-4.398,-4.4855,-4.5065,-4.5103,0.0,0.0,-4.5125,-4.5103,-4.5103,-4.5365,-4.6136,-4.6263,-4.6865,0.0,0.0,0.0,0.0,0.0,0.0,-4.9721,0.0,-4.9692,-4.9692,-4.9692,-4.9692,-4.9692,-4.9692,-4.975,-4.9807,-4.9807,-4.9843,-4.9898,-4.9898,-4.9898,-4.9917,-5.0751,-5.1632,-5.255,-5.3366,-5.4286,-5.5183,-5.5203,-5.5294,-5.5403,-5.5345,-5.5326,-5.5326,-5.5288,-5.4734,-5.4142,-5.4982,-5.5307,-5.5345,-5.5403,-5.5403,-5.5403,-5.5403,-5.5403,-5.5403,-5.5403,-5.5403,-5.5403,-5.5403,-5.5403,-5.5403,-5.5403,-5.5403,-5.5403,-5.5403,-5.5403,-5.5403,-5.5403,-5.5294,-5.5203,-5.5203,-5.5149,-5.5094,-5.5094,-5.5094,-5.5094,-5.5094,-5.5094,-5.5094,-5.5094,-5.5176,-5.5203,-5.5203,-5.5339,-5.5403,-5.5403,-5.5403,-5.5403,-5.5403,-5.5403,-5.5422,-5.546,-5.7065,-5.7925,-5.7963,-5.9587,-6.0389,-6.0389,-6.0389,-6.0389,-4.0308,-4.0291,-4.0253,-4.0215,-4.0329,-4.0671,-4.1449,-4.2286,-4.3142,-4.3961,-4.469,-4.517,0.0,0.0,0.0,-4.517,-4.517,0.0,-4.5365,-4.5974,0.0,-4.6865,0.0,-4.8833,-4.8996,-4.9538,0.0,0.0,-4.9788,-4.975,-4.9692,-4.9692,-4.9721,-4.9778,-4.9778,-4.9807,-4.9871,-4.9871,-4.9898,-4.9898,-4.9898,-4.9898,-4.9898,-5.018,-5.1098,-5.2512,-5.2829,-5.3823,-5.5203,-5.5313,-5.5358,-5.5345,-5.4696,-5.4428,-5.4352,-5.3702,-5.332,-5.3148,-5.3397,-5.3894,-5.4543,-5.5193,-5.5403,-5.5403,-5.5403,-5.5403,-5.5403,-5.5403,-5.5403,-5.5403,-5.5403,-5.5403,-5.5403,-5.5403,-5.5403,-5.5403,-5.5403,-5.5403,-5.5403,-5.5403,-5.5358,-5.5358,-5.5358,-5.5248,-5.5222,-5.5313,-5.5222,-5.5157,-5.5157,-5.5157,-5.5203,-5.5313,-5.5358,-5.5358,-5.5358,-5.5377,-5.5403,-5.5403,-5.5403,-5.5403,-5.5403,-5.5403,-5.5689,-5.6282,-5.7351,-5.8192,-5.8803,-5.9873,-6.0389,-6.0389,-6.0389,-6.0389,-4.0307,-4.0308,-4.0291,-4.0253,-4.0253,-4.0444,-4.1226,-4.1779,-4.2351,-4.3209,-4.4069,0.0,0.0,0.0,0.0,0.0,0.0,0.0,-4.5148,-4.5567,-4.5978,0.0,-4.7118,0.0,-4.8105,-4.8875,-4.9367,0.0,-4.9681,-4.9816,-4.9788,-4.9807,-4.9807,-4.9843,-4.9843,-4.9871,-4.9898,-4.9898,-4.9898,-4.9898,-4.9898,-4.9925,-4.9952,-5.0377,-5.1114,-5.2087,0.0,-5.3264,-5.4148,-5.4212,-5.4256,-5.4218,-5.3722,-5.3531,-5.3473,-5.2977,-5.2575,-5.2327,-5.2671,-5.2881,-5.3206,-5.4428,-5.483,-5.4906,-5.5288,-5.5403,-5.5403,-5.5403,-5.5403,-5.5403,-5.5403,-5.5403,-5.5403,-5.5403,-5.5403,-5.5403,-5.5403,-5.5403,-5.5403,-5.5403,-5.5403,-5.5403,-5.5403,-5.5339,-5.5294,-5.5403,-5.5339,-5.5294,-5.5294,-5.5294,-5.5313,-5.5403,-5.5403,-5.5403,-5.5403,-5.5403,-5.5403,-5.5403,-5.5403,-5.5403,-5.5403,-5.5403,-5.5785,-5.6568,-5.7466,-5.8307,-5.9109,-5.9969,-6.0389,-6.0389,-6.0389,-6.0389,-4.0325,-4.0307,-4.0289,-4.0291,-4.031,-4.0482,-4.117,-4.1418,-4.1705,-4.2469,0.0,-4.3845,-4.3845,-4.4551,-4.5125,-4.5125,0.0,-4.5275,-4.5213,-4.5213,-4.5456,-4.606,-4.625,-4.6567,-4.7169,-4.8003,-4.8572,-4.8685,-4.9349,-4.9784,-4.9879,-4.9898,-4.9898,-4.9898,-4.9898,-4.9898,-4.9898,-4.9898,-4.9898,-4.9898,-4.9898,-4.9952,-5.0024,-5.0783,-5.1262,-5.1541,-5.2247,0.0,-5.2805,-5.2805,-5.2805,-5.2785,-5.2671,-5.2633,-5.2633,-5.2499,-5.2021,-5.1544,-5.2231,-5.2021,-5.1716,-5.3397,-5.4008,-5.4237,-5.5002,-5.5307,-5.5403,-5.5403,-5.5403,-5.5403,-5.5403,-5.5403,-5.5403,-5.5403,-5.5403,-5.5403,-5.5403,-5.5403,-5.5403,-5.5403,-5.5403,-5.5403,-5.5403,-5.5403,-5.5403,-5.5403,-5.5403,-5.5403,-5.5403,-5.5403,-5.5403,-5.5403,-5.5403,-5.5403,-5.5403,-5.5403,-5.5403,-5.5403,-5.5403,-5.5403,-5.5403,-5.5498,-5.5938,-5.6759,-5.7619,-5.8459,-5.9281,-6.0026,-6.0389,-6.0389,-6.0389,-6.0389,-4.0396,-4.0325,-4.0289,-4.0291,-4.031,-4.0348,-4.0482,-4.1017,0.0,0.0,-4.2412,-4.3004,-4.3004,-4.3692,0.0,-4.4246,0.0,0.0,0.0,0.0,-4.5292,0.0,0.0,0.0,0.0,0.0,0.0,0.0,0.0,-4.9197,-4.9841,-4.9898,-4.9898,-4.9898,-4.9898,-4.9898,-4.9898,-4.9898,-4.9898,-4.9898,-4.9898,-4.9952,-5.0005,-5.0209,-5.0742,-5.1503,-5.1705,0.0,-5.2805,-5.2805,-5.2805,-5.2728,-5.2079,-5.1811,-5.1716,-5.1009,-5.0646,-5.055,-5.0684,-5.0669,-5.0887,-5.2504,-5.3511,-5.4123,-5.4276,-5.483,-5.5403,-5.5403,-5.5403,-5.5403,-5.5403,-5.5403,-5.5403,-5.5403,-5.5403,-5.5403,-5.5403,-5.5403,-5.5403,-5.5403,-5.5403,-5.5403,-5.5403,-5.5403,-5.5403,-5.5403,-5.5403,-5.5403,-5.5403,-5.5403,-5.5403,-5.5403,-5.5403,-5.5403,-5.5403,-5.5403,-5.5403,-5.5403,-5.5403,-5.5403,-5.5403,-5.6033,-5.6797,-5.7657,-5.8479,-5.9319,-6.016,-6.0332,-6.0389,-6.0389,-6.0389,-6.0389,-4.0432,-4.0379,-4.0344,-4.031,-4.031,-4.031,-4.031,0.0,0.0,0.0,-4.1533,-4.2125,-4.2125,0.0,0.0,0.0,0.0,0.0,0.0,0.0,0.0,0.0,0.0,0.0,0.0,0.0,0.0,0.0,0.0,-4.8572,-4.9822,-4.9898,-4.9898,-4.9898,-4.9898,-4.9898,-4.9898,-4.9898,-4.9898,-4.9898,-4.9952,-5.0005,-5.0057,-5.0133,-5.0435,-5.0885,-5.0909,0.0,-5.1505,-5.1505,-5.1505,-5.1467,-5.1066,-5.0932,-5.0875,-5.0455,-5.0302,-5.0302,-5.0325,-5.0371,-5.0546,-5.1331,-5.2173,-5.3015,-5.3934,-5.4465,-5.4861,-5.5282,-5.5409,-5.5403,-5.5403,-5.5403,-5.5403,-5.5403,-5.5403,-5.5403,-5.5403,-5.5403,-5.5403,-5.5403,-5.5403,-5.5403,-5.5403,-5.5403,-5.5403,-5.5403,-5.5403,-5.5403,-5.5403,-5.5403,-5.5403,-5.5403,-5.5403,-5.5403,-5.5403,-5.5403,-5.5403,-5.5403,-5.5403,-5.5403,-5.5403,-5.6167,-5.7008,-5.7886,-5.8689,-5.9529,-6.0389,-6.0389,-6.0389,-6.0389,-6.0389,-6.0389,-4.0413,-4.0379,-4.0381,-4.031,-4.031,-4.031,-4.031,-4.031,0.0,0.0,-4.0807,-4.1246,-4.1246,0.0,0.0,0.0,0.0,0.0,0.0,0.0,0.0,0.0,0.0,0.0,0.0,0.0,0.0,0.0,0.0,0.0,-4.9557,-4.9803,-4.9898,-4.9898,-4.9898,-4.9898,-4.9898,-4.9898,-4.9898,-4.9898,-4.9978,-5.0031,-5.0108,-5.0163,-5.0255,-5.0302,-5.0302,0.0,0.0,-5.0302,-5.0302,-5.0302,-5.0302,-5.0302,-5.0302,-5.0302,-5.0325,-5.0325,-5.0412,-5.0435,-5.0457,-5.05,-5.1056,-5.1995,-5.3548,-5.4115,-5.4393,-5.5178,-5.5396,-5.5409,-5.5403,-5.5403,-5.5403,-5.5403,-5.5403,-5.5403,-5.5403,-5.5403,-5.5403,-5.5403,-5.5403,-5.5403,-5.5403,-5.5403,-5.5403,-5.5403,-5.5403,-5.5403,-5.5403,-5.5403,-5.5403,-5.5403,-5.5403,-5.5403,-5.5403,-5.5403,-5.5403,-5.5403,-5.5384,-5.5409,-5.5409,-5.6391,-5.7251,-5.7939,-5.8907,-5.9748,-6.0417,-6.0417,-6.0389,-6.0389,-6.0389,-6.0389,-4.0415,-4.0362,-4.0326,-4.0291,-4.031,-4.031,-4.031,0.0,0.0,-4.031,-4.0368,-4.0425,-4.0425,-4.1074,0.0,0.0,0.0,0.0,0.0,0.0,0.0,0.0,0.0,0.0,0.0,0.0,0.0,0.0,0.0,0.0,-4.8742,-4.9481,-4.9898,-4.9898,-4.9898,-4.9898,-4.9898,-4.9898,-4.9898,-4.9898,-4.9978,-5.0031,-5.0108,-5.0163,-5.0255,-5.0302,-5.0302,0.0,0.0,-5.0302,-5.0302,-5.0302,-5.0302,-5.0302,-5.0302,-5.0367,-5.039,-5.0412,-5.0478,-5.0521,-5.0582,-5.0582,-5.1099,-5.188,-5.2839,-5.3683,-5.4465,-5.5178,-5.5408,-5.5402,-5.5384,-5.5403,-5.5403,-5.5403,-5.5403,-5.5403,-5.5403,-5.5403,-5.5403,-5.5403,-5.5403,-5.5403,-5.5403,-5.5403,-5.5403,-5.5403,-5.5403,-5.5403,-5.5403,-5.5403,-5.5403,-5.5403,-5.5403,-5.5403,-5.5403,-5.5403,-5.5403,-5.5403,-5.5396,-5.5383,-5.5383,-5.7046,-5.7991,-5.8067,-5.9587,-6.0422,-6.0499,-6.0417,-6.0389,-6.0389,-6.0389,-6.0389,-4.0362,-4.0325,-4.0289,-4.0291,-4.031,-4.031,-4.031,0.0,0.0,-4.031,-4.031,-4.031,-4.031,-4.0559,-4.0922,0.0,0.0,0.0,0.0,0.0,0.0,0.0,0.0,0.0,0.0,0.0,0.0,0.0,0.0,0.0,-4.7169,-4.8458,-4.9178,-4.9178,-4.9633,-4.9898,-4.9898,-4.9898,-4.9898,-4.9879,-5.0005,-5.0082,-5.0108,-5.0207,-5.0278,-5.0302,-5.0302,0.0,0.0,-5.0302,-5.0302,-5.0302,-5.0348,-5.0348,-5.0367,-5.0435,-5.0457,-5.0478,-5.054,-5.0582,-5.068,-5.122,-5.1565,-5.1966,-5.2871,-5.3714,-5.4514,-5.5297,-5.5504,-5.5456,-5.5421,-5.5409,-5.5403,-5.5403,-5.5403,-5.5403,-5.5403,-5.5403,-5.5403,-5.5403,-5.5403,-5.5403,-5.5403,-5.5403,-5.5403,-5.5403,-5.5403,-5.5403,-5.5403,-5.5403,-5.5403,-5.5403,-5.5403,-5.5403,-5.5403,-5.5403,-5.5409,-5.5396,-5.5402,-5.5432,-5.5456,-5.7148,-5.8092,-5.8092,-5.9716,-6.0552,-6.0499,-6.0472,-6.0444,-6.0389,-6.0389,-6.0389,-4.0307,-4.0289,-4.029,-4.0291,-4.031,-4.031,0.0,0.0,0.0,-4.031,-4.031,-4.0291,-4.0272,-4.0272,-4.0444,0.0,0.0,-4.284,0.0,0.0,0.0,0.0,0.0,0.0,0.0,0.0,0.0,0.0,0.0,0.0,0.0,-4.7169,-4.806,-4.8306,-4.9102,-4.9538,-4.9538,-4.9765,-4.9898,-4.9879,-5.0031,-5.0108,-5.0108,-5.0231,-5.0302,-5.0302,-5.0302,0.0,0.0,-5.0302,-5.0302,-5.0325,-5.039,-5.0412,-5.0435,-5.05,-5.0521,-5.0542,-5.0603,-5.0796,-5.1084,-5.1702,-5.226,-5.2779,-5.3395,-5.399,-5.46,-5.5366,-5.5551,-5.548,-5.5456,-5.5446,-5.5415,-5.5415,-5.5415,-5.5415,-5.5415,-5.5415,-5.5415,-5.5415,-5.5415,-5.5415,-5.5415,-5.5415,-5.5415,-5.5415,-5.5415,-5.5415,-5.5415,-5.5415,-5.5415,-5.5415,-5.5415,-5.5434,-5.5403,-5.5409,-5.5396,-5.5408,-5.5432,-5.548,-5.5527,-5.697,-5.7892,-5.8141,-5.9517,-6.0335,-6.0552,-6.0525,-6.0472,-6.0417,-6.0417,-6.0417,-4.0307,-4.0309,-4.031,-4.031,-4.031,-4.031,0.0,0.0,-4.031,-4.031,-4.031,-4.0272,-4.0215,-4.0196,-4.0176,-4.0117,-4.1464,-4.2503,-4.2503,0.0,0.0,0.0,0.0,0.0,0.0,0.0,0.0,0.0,0.0,0.0,0.0,-4.5748,-4.6582,-4.7378,-4.8249,-4.8704,-4.8704,-4.9481,-4.9898,-4.9879,-5.0031,-5.0108,-5.0108,-5.0231,-5.0302,0.0,0.0,0.0,0.0,-5.0302,-5.0325,-5.0412,-5.0412,-5.0435,-5.05,-5.0582,-5.0603,-5.0603,-5.0682,-5.1221,-5.1895,-5.1914,-5.3068,-5.4472,-5.4472,-5.4491,-5.4643,-5.5388,-5.5551,-5.5504,-5.5504,-5.5504,-5.5504,-5.5504,-5.5504,-5.5504,-5.5504,-5.5504,-5.5504,-5.5504,-5.5504,-5.5504,-5.5504,-5.5504,-5.5504,-5.5504,-5.5504,-5.5504,-5.5504,-5.5504,-5.5504,-5.5504,-5.5504,-5.5476,-5.5403,-5.5396,-5.5408,-5.5408,-5.5527,-5.5596,-5.5596,-5.6508,-5.7415,-5.828,-5.9019,-5.984,-6.0685,-6.0559,-6.0499,-6.0499,-6.0417,-6.0444,-4.0291,-4.0291,-4.031,-4.031,-4.031,-4.0291,-4.0253,0.0,-4.0234,-4.0176,-4.0157,-4.0157,-4.0137,-4.0137,-4.0098,-4.0057,-4.0924,-4.1787,0.0,0.0,0.0,0.0,0.0,0.0,0.0,0.0,0.0,0.0,0.0,0.0,0.0,-4.516,-4.5691,-4.6544,-4.7946,-4.8685,-4.8685,-4.9481,-4.9898,-4.9879,-5.0031,-5.0108,-5.0108,-5.0231,-5.0302,0.0,0.0,0.0,0.0,-5.0302,-5.0325,-5.0412,-5.0457,-5.05,-5.0582,-5.0643,-5.0663,-5.0663,-5.0683,-5.1221,-5.201,-5.2587,-5.3568,-5.4607,-5.5145,-5.5318,-5.5376,-5.5605,-5.5618,-5.5573,-5.5573,-5.5527,-5.5504,-5.5504,-5.5504,-5.5504,-5.5504,-5.5504,-5.5504,-5.5504,-5.5504,-5.5504,-5.5504,-5.5504,-5.5504,-5.5504,-5.5504,-5.5504,-5.5504,-5.5504,-5.5504,-5.5504,-5.5504,-5.548,-5.5451,-5.5476,-5.548,-5.5527,-5.5573,-5.5618,-5.5682,-5.653,-5.7126,-5.7396,-5.8219,-5.8773,-5.8995,-5.8947,-5.8897,-5.8872,-5.8847,-5.8847,0.0,-4.0234,-4.0234,-4.0234,-4.0234,0.0,0.0,0.0,-4.0157,-4.0117,-4.0117,-4.0077,-4.0057,-4.0057,-4.0036,-3.9954,-4.0631,-4.1415,-4.2181,0.0,0.0,0.0,0.0,0.0,0.0,0.0,0.0,0.0,0.0,0.0,0.0,-4.4895,-4.5141,-4.5691,-4.734,-4.8211,-4.8211,-4.933,-4.9906,-4.9952,-5.0057,-5.0108,-5.0158,-5.0255,-5.0302,0.0,0.0,0.0,0.0,-5.0302,-5.0348,-5.0457,-5.0478,-5.0562,-5.0643,-5.0683,-5.0702,-5.0702,-5.0702,-5.1221,-5.2049,-5.2933,-5.3991,-5.5049,-5.5549,-5.5703,-5.5703,-5.5703,-5.5662,-5.564,-5.564,-5.5596,-5.5573,-5.5573,-5.5573,-5.5573,-5.5573,-5.5573,-5.5573,-5.5573,-5.5573,-5.5573,-5.5573,-5.5573,-5.5573,-5.5573,-5.5573,-5.5573,-5.5573,-5.5573,-5.5573,-5.5573,-5.5573,-5.5573,-5.5573,-5.5551,-5.5551,-5.5596,-5.5618,-5.566,-5.5703,-5.6222,-5.6646,-5.6973,-5.753,-5.795,-5.8231,-5.8208,-5.8184,-5.8092,-5.8092,-5.8092,0.0,0.0,0.0,0.0,0.0,0.0,0.0,0.0,0.0,-4.0096,-4.0096,-4.0057,-3.9996,-3.9975,-3.9954,-3.9804,-4.0484,-4.1293,0.0,0.0,0.0,0.0,0.0,0.0,0.0,0.0,0.0,0.0,0.0,0.0,0.0,-4.4895,-4.4895,-4.4895,-4.6525,-4.7397,-4.7397,-4.9045,-4.9933,-5.0005,-5.0082,-5.0133,-5.0188,-5.0278,-5.0302,0.0,0.0,0.0,0.0,-5.0302,-5.0371,-5.05,-5.05,-5.0584,-5.0702,-5.0702,-5.0702,-5.0702,-5.0702,-5.1221,-5.2049,-5.2933,-5.4299,-5.5607,-5.5607,-5.5645,-5.5703,-5.5703,-5.5703,-5.5703,-5.5703,-5.5703,-5.5703,-5.5703,-5.5703,-5.5684,-5.5684,-5.5703,-5.5703,-5.5684,-5.5684,-5.5684,-5.5703,-5.5703,-5.5703,-5.5703,-5.5703,-5.5703,-5.5703,-5.5703,-5.5703,-5.5703,-5.5703,-5.5703,-5.5703,-5.564,-5.5596,-5.5596,-5.5682,-5.5703,-5.5703,-5.5703,-5.6069,-5.6876,-5.6896,-5.73,-5.8107,-5.8039,-5.7992,-5.7944,-5.7944,-5.7968,-3.9726,0.0,-4.0117,-4.0117,-4.0117,0.0,0.0,0.0,0.0,0.0,0.0,0.0,0.0,-3.9848,-3.9826,-3.9735,-3.9896,-4.0532,-4.1939,0.0,0.0,0.0,0.0,0.0,0.0,0.0,0.0,0.0,0.0,0.0,0.0,-4.4895,-4.4895,-4.4895,-4.6525,-4.7397,-4.7397,-4.9045,-4.9933,-5.0005,-5.0082,-5.0133,-5.0188,-5.0278,-5.0302,0.0,0.0,0.0,-5.0302,-5.0302,-5.0371,-5.05,-5.05,-5.0584,-5.0702,-5.0702,-5.0702,-5.0702,-5.0702,-5.1221,-5.2049,-5.2933,-5.3914,-5.478,-5.478,-5.5203,-5.5703,-5.5703,-5.5703,-5.5703,-5.5703,-5.5703,-5.5703,-5.5703,-5.5662,-5.5618,-5.5618,-5.5573,-5.5551,-5.5618,-5.5618,-5.564,-5.5703,-5.5703,-5.5703,-5.5703,-5.5703,-5.5703,-5.5703,-5.5703,-5.5703,-5.5703,-5.5703,-5.5703,-5.5703,-5.5703,-5.5682,-5.5682,-5.5703,-5.5703,-5.5703,-5.5703,-5.5799,-5.5992,-5.6011,-5.6107,-5.6299,-5.6297,-5.6278,-5.6255,-5.6255,-5.6278,-3.9028,-3.9627,-4.0015,-4.0015,-4.0015,-3.9994,0.0,0.0,0.0,0.0,0.0,0.0,0.0,0.0,0.0,-3.9703,-3.9656,0.0,0.0,0.0,0.0,0.0,0.0,0.0,0.0,0.0,0.0,0.0,0.0,0.0,0.0,-4.4895,-4.4895,-4.4895,-4.6525,-4.7397,-4.7397,-4.9072,-4.9978,-5.0057,-5.0114,-5.0182,-5.0255,-5.0278,-5.0302,0.0,0.0,0.0,-5.0302,-5.0302,-5.0348,-5.0457,-5.05,-5.0563,-5.0643,-5.0702,-5.0702,-5.0702,-5.0702,-5.1221,-5.1991,-5.2452,-5.3203,-5.3895,-5.3895,-5.4203,-5.4703,-5.5472,-5.5703,-5.5703,-5.5703,-5.5703,-5.5684,-5.5662,-5.5618,-5.5596,-5.5551,-5.5527,-5.5504,-5.5551,-5.5551,-5.5573,-5.564,-5.564,-5.5662,-5.5703,-5.5703,-5.5703,-5.5703,-5.5703,-5.5703,-5.5703,-5.5703,-5.5703,-5.5703,-5.5703,-5.5703,-5.5703,-5.5703,-5.5703,-5.5703,-5.5703,-5.5703,-5.5703,-5.5703,-5.5703,-5.5703,-5.5703,-5.5703,-5.5703,-5.5703,-5.5724,-3.8278,-3.9176,-3.9867,-3.9867,-3.9867,-3.9867,0.0,0.0,0.0,0.0,0.0,0.0,0.0,0.0,0.0,0.0,0.0,0.0,0.0,0.0,0.0,0.0,0.0,0.0,0.0,0.0,0.0,0.0,0.0,0.0,0.0,-4.4895,-4.4895,-4.4919,-4.6436,-4.7233,-4.7233,-4.8953,-4.9841,-4.9917,-4.9858,-4.993,-5.0111,-5.0111,-5.0187,-5.0302,0.0,0.0,-5.0302,-5.0302,-5.0325,-5.0412,-5.0478,-5.0542,-5.0603,-5.0682,-5.0702,-5.0702,-5.0702,-5.1144,-5.1722,-5.1722,-5.2299,-5.301,-5.301,-5.3087,-5.351,-5.4914,-5.5318,-5.5318,-5.5318,-5.5415,-5.5489,-5.5445,-5.5477,-5.5551,-5.5504,-5.548,-5.548,-5.548,-5.548,-5.5504,-5.5573,-5.5596,-5.5618,-5.5682,-5.5684,-5.5703,-5.5703,-5.5703,-5.5703,-5.5703,-5.5703,-5.5703,-5.5703,-5.5703,-5.5703,-5.5703,-5.5703,-5.5684,-5.5705,-5.5724,-5.5724,-5.5724,-5.5724,-5.5724,-5.5724,-5.5724,-5.5724,-5.5724,-5.5724,-5.5745,-3.8278,-3.909,-3.9735,-3.9735,-3.9735,-3.9735,0.0,0.0,0.0,0.0,0.0,0.0,0.0,0.0,0.0,0.0,0.0,0.0,0.0,0.0,0.0,0.0,0.0,0.0,0.0,0.0,0.0,0.0,0.0,0.0,0.0,-4.4895,-4.4938,-4.4967,-4.5935,-4.6516,-4.6544,-4.8169,-4.903,-4.9153,-4.8433,-4.8495,-4.927,-4.927,-4.9652,-5.0302,0.0,-5.0302,-5.0302,-5.0302,-5.0325,-5.0412,-5.0478,-5.0542,-5.0603,-5.0682,-5.0702,-5.0702,-5.0702,-5.0779,-5.0875,-5.0875,-5.1433,-5.2106,-5.2106,-5.2606,-5.326,-5.351,-5.3587,-5.3587,-5.3587,-5.4084,-5.4597,-5.4597,-5.5006,-5.5432,-5.5432,-5.5421,-5.5434,-5.5427,-5.5408,-5.5432,-5.5504,-5.5551,-5.5596,-5.5618,-5.5662,-5.5703,-5.5703,-5.5703,-5.5703,-5.5703,-5.5703,-5.5703,-5.5703,-5.5703,-5.5703,-5.5703,-5.5703,-5.5724,-5.5787,-5.5787,-5.5826,-5.5865,-5.5865,-5.5846,-5.5787,-5.5787,-5.5787,-5.5787,-5.5787,-5.5826,-3.7529,-3.8338,-3.9048,-3.9543,-3.9684,-3.9689,0.0,0.0,0.0,0.0,0.0,0.0,0.0,0.0,0.0,0.0,0.0,0.0,0.0,0.0,0.0,0.0,0.0,0.0,0.0,0.0,0.0,0.0,0.0,0.0,0.0,0.0,-4.4967,-4.4991,-4.5893,-4.6397,-4.6443,-4.7143,-4.7753,-4.83,-4.7922,-4.7987,-4.8411,-4.8888,-4.9289,-4.9671,0.0,-5.0302,-5.0302,-5.0302,-5.0325,-5.0367,-5.0457,-5.0521,-5.0562,-5.0663,-5.0702,-5.0702,-5.0702,-5.0702,-5.0702,-5.0702,-5.0952,-5.1241,-5.1241,-5.1529,-5.1856,-5.1856,-5.2491,-5.3203,-5.3161,-5.3428,-5.3673,-5.3629,-5.3828,-5.4049,-5.4,-5.4377,-5.4696,-5.4683,-5.509,-5.5421,-5.5432,-5.548,-5.5527,-5.5596,-5.5618,-5.5662,-5.5703,-5.5703,-5.5703,-5.5703,-5.5703,-5.5703,-5.5703,-5.5703,-5.5703,-5.5703,-5.5745,-5.5766,-5.5787,-5.5826,-5.5885,-5.5905,-5.5905,-5.5885,-5.5846,-5.5846,-5.5846,-5.5846,-5.5846,-5.5885,-3.6648,-3.7399,-3.8225,-3.907,0.0,0.0,-3.9684,0.0,0.0,0.0,0.0,0.0,0.0,0.0,0.0,0.0,0.0,0.0,0.0,0.0,0.0,0.0,0.0,0.0,0.0,0.0,0.0,0.0,0.0,0.0,0.0,0.0,-4.5014,-4.5057,-4.5731,-4.6138,-4.6225,-4.6167,-4.6568,-4.7426,-4.728,-4.7322,-4.7532,-4.8181,-4.8602,-4.8831,-4.9652,-5.0015,-5.0034,-5.0225,-5.0302,-5.0302,-5.0457,-5.0521,-5.0563,-5.0663,-5.0702,-5.0702,-5.0702,-5.0702,-5.0702,-5.0702,-5.0702,-5.0702,-5.0683,-5.0682,-5.0663,-5.0663,-5.1566,-5.2565,-5.2525,-5.2639,-5.2749,-5.266,-5.2747,-5.2858,-5.281,-5.332,-5.3798,-5.3798,-5.4333,-5.4798,-5.479,-5.4814,-5.4863,-5.4956,-5.5001,-5.5042,-5.5107,-5.5107,-5.5184,-5.5395,-5.5415,-5.5491,-5.5705,-5.5724,-5.5724,-5.5745,-5.5806,-5.5826,-5.5846,-5.5905,-5.5924,-5.5923,-5.5923,-5.5924,-5.5924,-5.5924,-5.5924,-5.5924,-5.5924,-5.5943,-3.595,-3.6573,-3.738,-3.8188,0.0,0.0,-3.9602,0.0,0.0,0.0,0.0,0.0,0.0,0.0,0.0,0.0,0.0,0.0,0.0,0.0,0.0,0.0,0.0,0.0,0.0,0.0,0.0,0.0,0.0,0.0,0.0,0.0,0.0,-4.517,-4.5249,-4.5309,-4.5392,-4.5373,-4.5793,-4.6596,-4.5831,-4.587,-4.6596,-4.6672,-4.7131,-4.7952,-4.8812,-4.9175,-4.9232,-4.9996,-5.0302,-5.0302,-5.0457,-5.0582,-5.0702,-5.0702,-5.0702,-5.0702,-5.0702,-5.0702,-5.0702,-5.0702,-5.0702,-5.0702,-5.0623,-5.0603,-5.0603,-5.0521,-5.0598,-5.0713,-5.0755,-5.1291,-5.1801,-5.1794,-5.2298,-5.2805,-5.2785,-5.2843,-5.2881,-5.2881,-5.2938,-5.2977,-5.2977,-5.3049,-5.3096,-5.3184,-5.3251,-5.3294,-5.3376,-5.3376,-5.3683,-5.4491,-5.4587,-5.4897,-5.5729,-5.5787,-5.5826,-5.5885,-5.5885,-5.5924,-5.5981,-5.5981,-5.5998,-5.5995,-5.5995,-5.5996,-5.5981,-5.5981,-5.5981,-5.5981,-5.5981,-5.5998,-3.5633,-3.5988,-3.6531,-3.7841,0.0,0.0,0.0,0.0,0.0,0.0,0.0,0.0,0.0,0.0,0.0,0.0,0.0,0.0,0.0,0.0,0.0,0.0,0.0,0.0,0.0,0.0,0.0,0.0,0.0,0.0,0.0,0.0,0.0,-4.5192,-4.5235,-4.5256,-4.5297,-4.5297,-4.5449,-4.5755,-4.5449,-4.5449,-4.5774,-4.6271,-4.6691,-4.7035,-4.7914,-4.8296,-4.8353,-4.9194,-4.9538,-4.9618,-5.0246,-5.0562,-5.0643,-5.0683,-5.0702,-5.0702,-5.0702,-5.0702,-5.0683,-5.0643,-5.0643,-5.0623,-5.0562,-5.0542,-5.0521,-5.05,-5.05,-5.05,-5.0478,-5.0687,-5.0894,-5.0845,-5.1051,-5.1257,-5.1257,-5.1677,-5.2059,-5.2059,-5.2461,-5.2805,-5.2805,-5.281,-5.2858,-5.297,-5.3015,-5.3078,-5.3182,-5.3203,-5.3358,-5.3705,-5.4246,-5.4689,-5.5017,-5.5596,-5.5943,-5.5962,-5.5962,-5.5981,-5.5999,-5.5998,-5.6014,-5.6012,-5.6012,-5.5995,-5.5996,-5.5996,-5.5996,-5.5996,-5.6031,-5.6048,-3.545,-3.5693,0.0,0.0,0.0,0.0,0.0,0.0,0.0,0.0,0.0,0.0,0.0,0.0,0.0,0.0,0.0,0.0,0.0,0.0,0.0,0.0,0.0,0.0,0.0,0.0,0.0,0.0,0.0,0.0,0.0,0.0,0.0,-4.5213,-4.5275,-4.5297,-4.5297,-4.5297,-4.5297,-4.5297,-4.5297,-4.5297,-4.5316,-4.587,-4.6118,-4.6175,-4.7016,-4.7398,-4.7474,-4.8334,-4.87,-4.878,-4.9441,-4.9888,-5.02,-5.024,-5.0452,-5.0702,-5.0702,-5.0702,-5.0663,-5.0603,-5.0582,-5.0562,-5.05,-5.0478,-5.0478,-5.0438,-5.0457,-5.0435,-5.039,-5.0371,-5.039,-5.0302,-5.0302,-5.0302,-5.0302,-5.0779,-5.12,-5.12,-5.1639,-5.2002,-5.2002,-5.2045,-5.2093,-5.2184,-5.2228,-5.2291,-5.2394,-5.2414,-5.253,-5.2859,-5.3668,-5.4207,-5.4226,-5.5073,-5.5593,-5.5611,-5.5863,-5.5998,-5.5998,-5.5995,-5.6012,-5.6012,-5.6029,-5.6029,-5.6029,-5.6046,-5.6046,-5.6046,-5.6098,-5.6133,-3.5445,-3.5712,0.0,0.0,0.0,0.0,0.0,0.0,0.0,0.0,0.0,0.0,0.0,0.0,0.0,0.0,0.0,0.0,0.0,0.0,0.0,0.0,0.0,0.0,0.0,0.0,0.0,0.0,0.0,0.0,0.0,0.0,-4.5213,-4.5297,-4.5297,-4.5297,-4.5297,-4.5297,-4.5297,-4.5297,-4.5297,-4.5297,-4.5297,-4.5297,-4.5297,-4.5335,-4.6137,-4.65,-4.6557,-4.7436,-4.7843,-4.7886,-4.7886,-4.8468,-4.9278,-4.9297,-4.9894,-5.0683,-5.0702,-5.0643,-5.0603,-5.0603,-5.0542,-5.05,-5.0435,-5.0412,-5.039,-5.0325,-5.0302,-5.0302,-5.0302,-5.0348,-5.039,-5.0302,-5.0302,-5.0302,-5.0302,-5.0302,-5.0302,-5.0302,-5.0302,-5.0302,-5.0302,-5.0367,-5.0435,-5.05,-5.0562,-5.0623,-5.0683,-5.0683,-5.1029,-5.1895,-5.2762,-5.3319,-5.3391,-5.4183,-5.4723,-5.4793,-5.5548,-5.5993,-5.6012,-5.6012,-5.6012,-5.6012,-5.6065,-5.6098,-5.6098,-5.6184,-5.6199,-5.6199,-5.6199,-5.6199,-3.6329,0.0,0.0,0.0,0.0,0.0,0.0,0.0,0.0,0.0,0.0,0.0,0.0,0.0,0.0,0.0,0.0,0.0,0.0,0.0,0.0,0.0,0.0,0.0,0.0,0.0,0.0,0.0,0.0,0.0,0.0,-4.5213,-4.5275,-4.5297,-4.5297,-4.5297,-4.5297,-4.5297,-4.5297,-4.5297,-4.5297,-4.5297,-4.5297,-4.5297,-4.5297,-4.5297,-4.5545,-4.566,-4.5717,-4.6557,-4.7245,-4.7821,-4.7886,-4.806,-4.839,-4.9006,-4.941,-4.9738,-5.0352,-5.0542,-5.0521,-5.0478,-5.0457,-5.0412,-5.0348,-5.0325,-5.0325,-5.0302,-5.0302,-5.0302,-5.0367,-5.039,-5.039,-5.0302,-5.0302,-5.0302,-5.0348,-5.0367,-5.0371,-5.0416,-5.0438,-5.0438,-5.0438,-5.0457,-5.05,-5.0562,-5.0582,-5.0604,-5.0683,-5.0739,-5.0891,-5.1177,-5.2,-5.2536,-5.2553,-5.3346,-5.4119,-5.4755,-5.5026,-5.5412,-5.5993,-5.6012,-5.6029,-5.6082,-5.6082,-5.6114,-5.6164,-5.6199,-5.6199,-5.6199,-5.6209,-5.6204,-3.7015,0.0,0.0,0.0,0.0,0.0,0.0,0.0,0.0,0.0,0.0,0.0,0.0,0.0,0.0,0.0,0.0,0.0,0.0,0.0,0.0,0.0,0.0,0.0,0.0,0.0,0.0,0.0,0.0,0.0,0.0,-4.5192,-4.5275,-4.5297,-4.5297,-4.5297,-4.5297,-4.5297,-4.5297,-4.5297,-4.5297,-4.5297,-4.5297,-4.5297,-4.5297,-4.5297,-4.5297,-4.5297,-4.5335,-4.5812,-4.6328,-4.6806,-4.6849,-4.708,-4.7446,-4.7966,-4.8621,-4.9294,-4.9791,-5.0172,-5.0457,-5.0412,-5.039,-5.0348,-5.0302,-5.0302,-5.0302,-5.0302,-5.0302,-5.0302,-5.039,-5.0412,-5.0412,-5.0371,-5.0371,-5.0393,-5.0435,-5.0435,-5.0457,-5.05,-5.05,-5.05,-5.05,-5.0521,-5.0542,-5.0603,-5.0623,-5.0644,-5.0682,-5.0775,-5.0829,-5.0899,-5.1357,-5.1679,-5.1679,-5.2472,-5.3207,-5.373,-5.4423,-5.502,-5.5487,-5.5855,-5.6065,-5.6098,-5.613,-5.616,-5.6209,-5.6243,-5.6243,-5.6243,-5.6246,-5.6239,0.0,0.0,0.0,0.0,0.0,0.0,0.0,0.0,0.0,0.0,0.0,0.0,0.0,0.0,0.0,0.0,0.0,0.0,0.0,0.0,0.0,0.0,0.0,0.0,0.0,0.0,0.0,0.0,0.0,0.0,0.0,-4.517,-4.5213,-4.5297,-4.5297,-4.5297,-4.5297,-4.5297,-4.5297,-4.5297,-4.5297,-4.5297,-4.5297,-4.5297,-4.5297,-4.5297,-4.5297,-4.5297,-4.5297,-4.5297,-4.5297,-4.5297,-4.5297,-4.5797,-4.6508,-4.6545,-4.7582,-4.8985,-4.9139,-4.9671,-5.0275,-5.0371,-5.0348,-5.0302,-5.0302,-5.0302,-5.0302,-5.0302,-5.0302,-5.0325,-5.039,-5.0412,-5.0435,-5.05,-5.0521,-5.05,-5.05,-5.05,-5.0521,-5.0521,-5.0521,-5.0521,-5.0521,-5.0582,-5.0603,-5.0603,-5.0663,-5.0702,-5.0701,-5.0775,-5.0827,-5.088,-5.0893,-5.0906,-5.0906,-5.1621,-5.2105,-5.2198,-5.37,-5.4646,-5.48,-5.5652,-5.6098,-5.6114,-5.617,-5.6199,-5.6199,-5.6259,-5.6304,-5.6304,-5.6212,-5.6197,0.0,0.0,0.0,0.0,0.0,0.0,0.0,0.0,0.0,0.0,0.0,0.0,0.0,0.0,0.0,0.0,0.0,0.0,0.0,0.0,0.0,0.0,0.0,0.0,0.0,0.0,0.0,0.0,0.0,0.0,-4.5014,-4.5148,-4.5192,-4.5213,-4.5275,-4.5297,-4.5297,-4.5297,-4.5297,0.0,-4.5297,-4.5297,-4.5297,-4.5297,-4.5297,-4.5297,-4.5297,-4.5297,-4.5297,-4.5297,-4.5297,-4.5297,-4.5297,-4.5413,-4.5661,-4.6292,-4.6751,-4.7289,-4.8646,-4.9239,-4.9484,-5.0115,-5.0302,-5.0302,-5.0302,-5.0302,-5.0302,-5.0302,-5.0302,-5.0325,-5.0457,-5.0478,-5.05,-5.0623,-5.0582,-5.0521,-5.0582,-5.0582,-5.0603,-5.0643,-5.0663,-5.0663,-5.0663,-5.0663,-5.0663,-5.0663,-5.0702,-5.072,-5.0775,-5.0846,-5.088,-5.0909,-5.089,-5.0906,-5.0906,-5.108,-5.1502,-5.2229,-5.2632,-5.346,-5.4827,-5.5719,-5.618,-5.617,-5.6185,-5.6232,-5.6278,-5.6297,-5.629,-5.6271,-5.5644,-5.5364,0.0,0.0,0.0,0.0,0.0,0.0,0.0,0.0,0.0,0.0,0.0,0.0,0.0,0.0,0.0,0.0,0.0,0.0,0.0,0.0,0.0,0.0,0.0,0.0,0.0,0.0,0.0,0.0,0.0,-4.4919,-4.501,-4.5103,-4.517,-4.5192,-4.5275,-4.5297,-4.5297,-4.5297,-4.5297,-4.5297,-4.5297,-4.5297,-4.5297,-4.5297,-4.5297,-4.5297,-4.5297,-4.5297,-4.5297,-4.5297,-4.5297,-4.5297,-4.5297,-4.5297,-4.5354,-4.5774,-4.6175,-4.6691,-4.8028,-4.8754,-4.9232,-5.0034,-5.0302,-5.0302,-5.0302,-5.0302,-5.0302,-5.0302,-5.0302,-5.0325,-5.0478,-5.05,-5.0542,-5.0663,-5.0643,-5.0603,-5.0643,-5.0643,-5.0643,-5.0683,-5.0702,-5.0702,-5.0702,-5.0702,-5.0721,-5.074,-5.0739,-5.0775,-5.0846,-5.0883,-5.0897,-5.089,-5.0906,-5.0906,-5.0906,-5.0941,-5.1149,-5.1644,-5.21,-5.2748,-5.3654,-5.4943,-5.5811,-5.6199,-5.6232,-5.6259,-5.6297,-5.629,-5.61,-5.5722,-5.5307,-5.4889,0.0,0.0,0.0,0.0,0.0,0.0,0.0,0.0,0.0,0.0,0.0,0.0,0.0,0.0,0.0,0.0,0.0,0.0,0.0,0.0,0.0,0.0,0.0,0.0,0.0,0.0,0.0,0.0,0.0,-4.4846,-4.4986,-4.5057,-4.5125,-4.517,-4.5254,-4.5297,-4.5297,-4.5297,-4.5297,-4.5297,-4.5297,-4.5297,-4.5297,-4.5297,-4.5297,-4.5297,-4.5297,-4.5297,-4.5297,-4.5297,-4.5297,-4.5297,-4.5297,-4.5297,-4.5297,-4.5297,-4.5717,-4.6424,-4.7283,-4.8143,-4.9003,-4.9824,-5.0187,-5.0302,-5.0302,-5.0302,-5.0302,-5.0302,-5.0302,-5.0348,-5.0478,-5.05,-5.0542,-5.0663,-5.0702,-5.0702,-5.0702,-5.0702,-5.0683,-5.0702,-5.0702,-5.0721,-5.0721,-5.0721,-5.0757,-5.0793,-5.081,-5.0846,-5.0899,-5.0899,-5.0897,-5.089,-5.0906,-5.0906,-5.0906,-5.0956,-5.1005,-5.102,-5.1754,-5.224,-5.2376,-5.3793,-5.5016,-5.596,-5.6214,-5.6297,-5.6302,-5.6314,-5.5908,-5.5093,-5.4967,-5.4431,0.0,0.0,0.0,0.0,0.0,0.0,0.0,0.0,0.0,0.0,0.0,0.0,0.0,0.0,0.0,0.0,0.0,0.0,0.0,0.0,0.0,0.0,0.0,0.0,0.0,0.0,0.0,0.0,-4.4373,-4.4821,-4.4895,-4.4986,-4.5038,-4.5125,-4.517,-4.5235,-4.5297,-4.5297,-4.5297,-4.5297,-4.5297,-4.5297,-4.5297,-4.5297,-4.5297,-4.5297,-4.5297,-4.5297,-4.5297,-4.5297,-4.5297,-4.5297,-4.5297,-4.5297,-4.5297,-4.5297,-4.5373,-4.5583,-4.6385,-4.7245,-4.8124,-4.8984,-4.9729,-5.0302,-5.0302,-5.0302,-5.0302,-5.0302,-5.0325,-5.0412,-5.0478,-5.0542,-5.0603,-5.0683,-5.0702,-5.0702,-5.0702,-5.0702,-5.0702,-5.0702,-5.0757,-5.0775,-5.0775,-5.0793,-5.0793,-5.0793,-5.0846,-5.0899,-5.0899,-5.0893,-5.089,-5.0906,-5.0906,-5.0906,-5.0906,-5.0956,-5.102,-5.1087,-5.1205,-5.1612,-5.2356,-5.262,-5.3506,-5.5124,-5.5901,-5.6302,-5.6302,-5.6358,-5.593,-5.5083,-5.4381,-5.3591,0.0,0.0,0.0,0.0,0.0,0.0,0.0,0.0,0.0,0.0,0.0,0.0,0.0,0.0,0.0,0.0,0.0,0.0,0.0,0.0,0.0,0.0,0.0,0.0,0.0,0.0,0.0,0.0,-4.3158,-4.3648,-4.4213,-4.4303,-4.4558,-4.5084,-4.517,-4.5235,-4.5297,-4.5297,-4.5297,-4.5297,-4.5297,-4.5297,-4.5297,-4.5297,-4.5297,-4.5297,-4.5297,-4.5297,-4.5297,-4.5297,-4.5297,-4.5297,-4.5297,-4.5297,-4.5297,-4.5297,-4.5297,-4.5411,-4.6214,-4.7073,-4.7952,-4.8812,-4.9633,-5.0302,-5.0302,-5.0302,-5.0302,-5.0302,-5.0348,-5.0412,-5.0478,-5.0542,-5.0623,-5.0683,-5.0702,-5.0702,-5.0702,-5.0702,-5.0702,-5.0757,-5.0775,-5.081,-5.0846,-5.0846,-5.0863,-5.0861,-5.0877,-5.0893,-5.0893,-5.0909,-5.0906,-5.0906,-5.0906,-5.0906,-5.0956,-5.102,-5.1067,-5.1108,-5.1146,-5.1326,-5.1707,-5.2154,-5.2768,-5.358,-5.4902,-5.5839,-5.6358,-5.6398,-5.5716,-5.442,-5.4059,-5.3171,0.0,0.0,0.0,0.0,0.0,0.0,0.0,0.0,0.0,0.0,0.0,0.0,0.0,0.0,0.0,0.0,0.0,0.0,0.0,0.0,0.0,0.0,0.0,0.0,0.0,0.0,0.0,0.0,-4.2138,-4.2626,-4.3341,-4.3449,-4.3779,-4.4436,-4.4731,-4.4889,-4.4972,-4.5182,-4.5182,-4.4972,-4.4972,-4.4857,-4.4647,-4.4647,-4.4647,-4.4685,-4.5105,-4.5297,-4.5297,-4.5297,-4.5297,-4.5297,-4.5297,-4.5297,-4.5297,-4.5297,-4.5297,-4.5392,-4.5984,-4.6748,-4.7608,-4.8487,-4.9328,-5.0034,-5.0245,-5.0302,-5.0302,-5.0302,-5.0348,-5.0435,-5.05,-5.0563,-5.0643,-5.0702,-5.0702,-5.0702,-5.0682,-5.0739,-5.0775,-5.0829,-5.0827,-5.0844,-5.0897,-5.0897,-5.0913,-5.089,-5.0906,-5.0906,-5.0906,-5.0906,-5.0906,-5.0906,-5.0906,-5.0956,-5.1005,-5.1067,-5.1108,-5.1095,-5.1159,-5.1202,-5.1202,-5.1777,-5.2216,-5.2502,-5.3738,-5.4829,-5.5745,-5.5755,-5.5004,-5.358,-5.358,-5.2742,0.0,0.0,0.0,0.0,0.0,0.0,0.0,0.0,0.0,0.0,0.0,0.0,0.0,0.0,0.0,0.0,0.0,0.0,0.0,0.0,0.0,0.0,0.0,0.0,0.0,0.0,0.0,0.0,-4.1836,-4.2361,-4.2469,-4.2515,-4.262,-4.2724,-4.3528,-4.4012,-4.4074,-4.4895,-4.4895,-4.4074,-4.4074,-4.3673,-4.2928,-4.2928,-4.2928,-4.3023,-4.4609,-4.5297,-4.5297,-4.5297,-4.5297,-4.5297,-4.5297,-4.5297,-4.5297,-4.5297,-4.5297,-4.5297,-4.5354,-4.5889,-4.671,-4.7589,-4.8449,-4.9289,-5.0073,-5.0302,-5.0302,-5.0302,-5.0393,-5.05,-5.05,-5.0603,-5.0702,-5.0702,-5.0702,-5.0701,-5.0701,-5.0793,-5.0899,-5.0899,-5.0893,-5.089,-5.089,-5.089,-5.089,-5.0906,-5.0906,-5.0906,-5.0906,-5.0906,-5.0906,-5.0906,-5.0956,-5.1005,-5.1005,-5.1056,-5.1095,-5.1095,-5.1159,-5.1202,-5.1202,-5.1236,-5.1647,-5.2475,-5.265,-5.3117,-5.3954,-5.3992,-5.356,-5.2664,-5.2664,-5.2177,0.0,0.0,0.0,0.0,0.0,0.0,0.0,0.0,0.0,0.0,0.0,0.0,0.0,0.0,0.0,0.0,0.0,0.0,0.0,0.0,0.0,0.0,0.0,0.0,0.0,0.0,0.0,0.0,0.0,-4.1003,-4.1616,-4.1702,-4.1993,-4.2572,-4.2938,-4.3153,-4.3233,-4.3539,-4.3539,-4.3233,-4.3233,-4.308,-4.2794,-4.2794,-4.2794,-4.2832,-4.3424,-4.3692,-4.373,-4.4246,-4.4475,-4.4532,-4.5067,-4.5297,-4.5297,-4.5297,-4.5297,-4.5297,-4.5297,-4.5831,-4.6557,-4.6863,-4.757,-4.843,-4.927,-4.9519,-4.9633,-5.0214,-5.0435,-5.0521,-5.0542,-5.0623,-5.0702,-5.0702,-5.0739,-5.0775,-5.0829,-5.088,-5.0893,-5.0893,-5.089,-5.0906,-5.0906,-5.0906,-5.0906,-5.0956,-5.0956,-5.0971,-5.102,-5.1039,-5.1039,-5.1039,-5.1053,-5.1048,-5.1056,-5.1082,-5.1127,-5.1159,-5.119,-5.1202,-5.1202,-5.1197,-5.1355,-5.1658,-5.1725,-5.2464,-5.3855,-5.3883,-5.3444,-5.2606,-5.2606,-5.2138,0.0,0.0,0.0,0.0,0.0,0.0,0.0,0.0,0.0,0.0,0.0,0.0,0.0,0.0,0.0,0.0,0.0,0.0,0.0,0.0,0.0,0.0,0.0,0.0,0.0,0.0,0.0,0.0,0.0,0.0,-4.0745,-4.0848,-4.1314,-4.2197,-4.2255,-4.2467,-4.2794,-4.2794,-4.2641,-4.2354,-4.2354,-4.2221,-4.1953,-4.1953,-4.1953,-4.1953,-4.1953,-4.2278,-4.2832,-4.3386,-4.3768,-4.4074,-4.4647,-4.5029,-4.5297,-4.5297,-4.5297,-4.5297,-4.5297,-4.564,-4.6137,-4.6405,-4.6901,-4.7532,-4.8391,-4.8659,-4.8796,-4.9395,-4.9614,-4.9677,-4.9719,-4.999,-5.0279,-5.0278,-5.0545,-5.081,-5.0899,-5.0893,-5.0906,-5.0906,-5.0906,-5.0906,-5.0906,-5.0906,-5.0921,-5.0986,-5.1005,-5.102,-5.1087,-5.1101,-5.1101,-5.1101,-5.1114,-5.1108,-5.1095,-5.1127,-5.1139,-5.1202,-5.1202,-5.1202,-5.1194,-5.1208,-5.122,-5.122,-5.1287,-5.1869,-5.3034,-5.3034,-5.2723,-5.2158,-5.2158,-5.1846,0.0,0.0,0.0,0.0,0.0,0.0,0.0,0.0,0.0,0.0,0.0,0.0,0.0,0.0,0.0,0.0,0.0,0.0,0.0,0.0,0.0,0.0,0.0,0.0,0.0,0.0,0.0,0.0,-3.9758,-3.9826,-3.9889,-4.0036,-4.0519,-4.1437,-4.1457,-4.1858,-4.2717,-4.2717,-4.2297,-4.1457,-4.1457,-4.1055,-4.0291,-4.0291,-4.0291,-4.0291,-4.0291,-4.1227,-4.2717,-4.2756,-4.3233,-4.3958,-4.3977,-4.4532,-4.5297,-4.5297,-4.5297,-4.5297,-4.5297,-4.5297,-4.543,-4.6214,-4.6462,-4.6634,-4.7513,-4.7761,-4.778,-4.7884,-4.7947,-4.8009,-4.7991,-4.8683,-4.9394,-4.9469,-5.014,-5.0791,-5.088,-5.0893,-5.0906,-5.0906,-5.0906,-5.0906,-5.0906,-5.0906,-5.0941,-5.0986,-5.1005,-5.102,-5.1101,-5.1101,-5.1101,-5.1101,-5.1102,-5.1095,-5.1095,-5.1159,-5.1202,-5.1202,-5.1202,-5.1194,-5.1189,-5.1201,-5.122,-5.1306,-5.1312,-5.13,-5.13,-5.13,-5.13,-5.13,-5.13,-5.13,-3.7703,0.0,0.0,0.0,0.0,0.0,0.0,0.0,0.0,0.0,0.0,0.0,0.0,0.0,0.0,0.0,0.0,0.0,0.0,0.0,0.0,0.0,0.0,0.0,0.0,0.0,0.0,0.0,-3.9758,-3.9826,-3.9889,-3.9975,-4.0172,-4.048,-4.048,-4.0595,-4.0842,-4.0842,-4.0728,-4.048,-4.048,-4.0366,-4.0157,-4.0157,-4.0157,-4.0157,-4.0157,-4.0423,-4.09,-4.1531,-4.2295,-4.3134,-4.3702,-4.4424,-4.517,-4.5213,-4.5213,-4.5235,-4.5297,-4.5297,-4.5335,-4.5564,-4.5621,-4.5793,-4.6615,-4.6863,-4.7019,-4.7775,-4.8008,-4.8009,-4.8068,-4.826,-4.8643,-4.9335,-4.9677,-5.0057,-5.0764,-5.0893,-5.0906,-5.0906,-5.0906,-5.0906,-5.0906,-5.0941,-5.1005,-5.1053,-5.1075,-5.1102,-5.1166,-5.1178,-5.1178,-5.1178,-5.1159,-5.1171,-5.1171,-5.119,-5.1202,-5.1202,-5.1202,-5.1194,-5.1189,-5.1201,-5.122,-5.1306,-5.1312,-5.13,-5.13,-5.13,-5.13,-5.13,-5.13,-5.13,0.0,0.0,0.0,0.0,0.0,0.0,-3.781,-3.781,0.0,0.0,0.0,0.0,0.0,0.0,0.0,0.0,0.0,0.0,0.0,0.0,0.0,0.0,0.0,0.0,0.0,-3.9483,-3.9564,-3.9703,-3.9754,-3.9804,-3.9933,-3.9975,-4.0036,-4.0096,-4.0117,-4.0117,-4.0117,-4.0117,-4.0117,-4.0117,-4.0117,-4.0117,-4.0117,-4.0117,-4.0117,-4.0117,-4.0117,-4.0117,-4.0155,-4.0611,-4.1336,-4.2233,-4.305,-4.3866,-4.4627,-4.5014,-4.5148,-4.517,-4.5254,-4.5275,-4.5256,-4.5297,-4.5297,-4.5392,-4.5851,-4.6003,-4.6139,-4.6739,-4.6934,-4.6973,-4.7049,-4.7336,-4.7817,-4.8719,-4.9216,-4.9749,-5.0653,-5.0877,-5.0906,-5.0906,-5.0906,-5.0906,-5.0906,-5.0956,-5.102,-5.1087,-5.1089,-5.1127,-5.1202,-5.1202,-5.1202,-5.1202,-5.1202,-5.1202,-5.1202,-5.1202,-5.1202,-5.1202,-5.1202,-5.1206,-5.121,-5.1201,-5.123,-5.1304,-5.1292,-5.13,-5.13,-5.13,-5.13,-5.13,-5.13,-5.13,0.0,0.0,0.0,0.0,0.0,0.0,-3.7631,-3.7667,-3.7703,0.0,0.0,0.0,0.0,0.0,0.0,0.0,0.0,0.0,0.0,0.0,0.0,0.0,0.0,0.0,-3.9373,-3.9444,-3.9546,-3.9669,-3.9703,-3.9781,-3.9975,-3.9975,-4.0015,-4.0096,-4.0096,-4.0096,-4.0096,-4.0057,-4.0057,-4.0057,-4.0057,-4.0057,-4.0057,-4.0057,-4.0057,-4.0057,-4.0057,-4.0057,-4.0057,-3.9996,-4.053,-4.1468,-4.2286,-4.3102,-4.3977,-4.4798,-4.5103,-4.5103,-4.517,-4.5192,-4.5213,-4.5275,-4.5297,-4.5297,-4.5297,-4.5297,-4.5317,-4.5379,-4.5438,-4.5513,-4.5586,-4.6163,-4.699,-4.7894,-4.8736,-4.9616,-5.058,-5.0841,-5.0906,-5.0906,-5.0906,-5.0906,-5.0906,-5.0956,-5.102,-5.1087,-5.1121,-5.1127,-5.1202,-5.1202,-5.1202,-5.1202,-5.1202,-5.1202,-5.1202,-5.1202,-5.1202,-5.1202,-5.1202,-5.1206,-5.1201,-5.1211,-5.123,-5.1292,-5.13,-5.13,-5.13,-5.13,-5.13,-5.13,-5.13,-5.13,0.0,0.0,0.0,0.0,0.0,0.0,-3.7466,-3.754,-3.7649,0.0,0.0,0.0,0.0,0.0,0.0,0.0,0.0,0.0,0.0,0.0,0.0,0.0,0.0,0.0,-3.9229,-3.9346,-3.9451,-3.9545,-3.9689,-3.9804,-3.9826,-3.9889,-3.9933,-3.9933,-3.9933,-3.9933,-3.9933,-3.9889,-3.9848,-3.9848,-3.9804,-3.9777,-3.9777,-3.9777,-3.9777,-3.9777,-3.9777,-3.9804,-3.9848,-3.9848,-4.0426,-4.1404,-4.2136,-4.2966,-4.3843,-4.4706,-4.5014,-4.5014,-4.5103,-4.5148,-4.5192,-4.5233,-4.5254,-4.5297,-4.5297,-4.5297,-4.5298,-4.538,-4.5457,-4.5513,-4.5586,-4.572,-4.622,-4.774,-4.8312,-4.8941,-5.0465,-5.0841,-5.0906,-5.0906,-5.0906,-5.0906,-5.0906,-5.1005,-5.1067,-5.1101,-5.1153,-5.119,-5.1202,-5.1202,-5.1202,-5.1202,-5.1202,-5.1202,-5.1202,-5.1202,-5.1202,-5.1202,-5.1202,-5.1194,-5.12,-5.1201,-5.122,-5.1295,-5.1292,-5.13,-5.13,-5.13,-5.13,-5.13,-5.13,-5.13,0.0,0.0,0.0,-3.7297,0.0,0.0,0.0,-3.7429,-3.7503,0.0,0.0,0.0,0.0,0.0,0.0,0.0,0.0,0.0,0.0,0.0,0.0,0.0,0.0,0.0,-3.9129,-3.9229,-3.9193,-3.8939,-3.8644,-3.8697,-3.9135,-3.9176,-3.9388,-3.9781,-3.98,-3.98,-3.98,-3.9758,-3.9758,-3.9758,-3.9712,-3.9689,-3.9689,-3.9689,-3.9689,-3.9689,-3.9689,-3.9712,-3.9758,-3.9758,-4.0046,-4.0586,-4.1461,-4.2318,-4.3152,-4.4028,-4.4602,-4.4943,-4.5033,-4.5084,-4.5148,-4.5192,-4.5254,-4.5297,-4.5297,-4.5297,-4.5298,-4.5381,-4.5419,-4.5457,-4.5568,-4.5586,-4.593,-4.72,-4.7906,-4.8649,-4.9939,-5.0568,-5.0906,-5.0906,-5.0906,-5.0906,-5.0906,-5.1005,-5.1101,-5.1101,-5.1153,-5.1202,-5.1202,-5.1202,-5.1202,-5.1202,-5.1202,-5.1202,-5.1202,-5.1202,-5.1202,-5.1202,-5.1202,-5.1194,-5.1189,-5.1201,-5.123,-5.1304,-5.1292,-5.13,-5.13,-5.13,-5.13,-5.13,-5.13,-5.13,0.0,0.0,0.0,0.0,0.0,-3.7259,0.0,0.0,0.0,0.0,0.0,0.0,0.0,0.0,0.0,0.0,0.0,0.0,0.0,0.0,0.0,0.0,0.0,0.0,0.0,-3.9007,-3.8712,-3.8107,-3.7521,-3.7495,-3.8199,-3.826,-3.8637,-3.9448,-3.9486,-3.9538,-3.9689,-3.9708,-3.9708,-3.9708,-3.9684,-3.9684,-3.9684,-3.9684,-3.9684,-3.9684,-3.9684,-3.9684,-3.9708,-3.9708,-3.9708,-3.9807,-4.0768,-4.167,-4.2484,-4.3355,-4.4213,-4.4895,-4.4943,-4.5014,-4.5103,-4.517,-4.5235,-4.5297,-4.5297,-4.5297,-4.5298,-4.5381,-4.54,-4.5438,-4.5568,-4.5586,-4.5815,-4.6696,-4.7615,-4.8533,-4.9412,-5.0275,-5.0906,-5.0906,-5.0906,-5.0906,-5.0906,-5.1005,-5.1101,-5.1101,-5.1153,-5.1202,-5.1202,-5.1202,-5.1202,-5.1202,-5.1202,-5.1202,-5.1202,-5.1202,-5.1202,-5.1202,-5.1202,-5.1194,-5.1197,-5.119,-5.123,-5.1292,-5.13,-5.13,-5.13,-5.13,-5.13,-5.13,-5.13,-5.13,0.0,0.0,0.0,0.0,-3.7087,0.0,0.0,0.0,-3.7334,-3.7392,0.0,0.0,0.0,0.0,0.0,0.0,0.0,0.0,0.0,0.0,0.0,0.0,0.0,0.0,0.0,-3.8497,-3.7846,-3.7216,-3.7113,-3.7182,-3.7344,-3.7389,-3.781,-3.8599,-3.8637,-3.8977,-3.9689,-3.9698,-3.9693,-3.9693,-3.9626,-3.9602,-3.9602,-3.9602,-3.9602,-3.9602,-3.9602,-3.9669,-3.9693,-3.9693,-3.9703,-3.9783,-4.0674,-4.1534,-4.2418,-4.3288,-4.4145,-4.4895,-4.4895,-4.4962,-4.5014,-4.5103,-4.5192,-4.5297,-4.5297,-4.5297,-4.5298,-4.5381,-4.54,-4.5438,-4.5568,-4.5586,-4.5815,-4.6696,-4.7615,-4.8533,-4.9412,-5.0275,-5.0906,-5.0906,-5.0906,-5.0906,-5.0906,-5.1005,-5.1101,-5.1101,-5.1153,-5.1202,-5.1202,-5.1202,-5.1202,-5.1202,-5.1202,-5.1202,-5.1202,-5.1202,-5.1202,-5.1202,-5.1202,-5.1202,-5.1202,-5.12,-5.122,-5.1295,-5.1292,-5.13,-5.13,-5.13,-5.13,-5.13,-5.13,-5.13,0.0,0.0,0.0,0.0,0.0,0.0,-3.7048,0.0,-3.7203,0.0,0.0,0.0,0.0,0.0,0.0,0.0,-3.7915,0.0,0.0,0.0,0.0,0.0,0.0,0.0,0.0,0.0,0.0,0.0,-3.5825,-3.5814,-3.6344,-3.6449,-3.687,-3.7661,-3.8127,-3.8541,-3.8879,-3.9382,-3.962,-3.9571,-3.9546,-3.952,-3.9476,-3.9476,-3.952,-3.9546,-3.9546,-3.9571,-3.9645,-3.9645,-3.965,-3.9669,-4.0051,-4.074,-4.1647,-4.2527,-4.3402,-4.4221,-4.4724,-4.4943,-4.5033,-4.5125,-4.5192,-4.5254,-4.5297,-4.5297,-4.5317,-4.538,-4.54,-4.5419,-4.5513,-4.5568,-4.5699,-4.61,-4.7268,-4.8398,-4.8775,-4.9927,-5.0906,-5.0906,-5.0906,-5.0906,-5.0906,-5.0971,-5.1053,-5.1101,-5.1121,-5.1159,-5.1202,-5.1202,-5.1202,-5.1202,-5.1202,-5.1202,-5.1202,-5.1202,-5.1202,-5.1202,-5.1202,-5.1214,-5.1206,-5.12,-5.123,-5.1306,-5.1295,-5.1304,-5.13,-5.13,-5.13,-5.13,-5.13,-5.13,-3.7356,0.0,0.0,0.0,0.0,0.0,0.0,0.0,0.0,0.0,0.0,0.0,0.0,0.0,0.0,0.0,0.0,-3.7949,0.0,0.0,0.0,0.0,0.0,0.0,0.0,0.0,0.0,-3.5237,-3.4736,-3.4731,-3.539,-3.5454,-3.5871,-3.6677,-3.7277,-3.7802,-3.8252,-3.8871,-3.9277,-3.9469,-3.9469,-3.9444,-3.9391,-3.9391,-3.9418,-3.9469,-3.9469,-3.952,-3.9571,-3.9571,-3.9577,-3.9602,-3.9602,-4.0026,-4.074,-4.1831,-4.2805,-4.3723,-4.4562,-4.4919,-4.5014,-4.5148,-4.5192,-4.5213,-4.5275,-4.5297,-4.5317,-4.5379,-4.54,-4.5419,-4.5495,-4.555,-4.5661,-4.5962,-4.7191,-4.8359,-4.8601,-4.983,-5.0906,-5.0906,-5.0906,-5.0906,-5.0906,-5.0956,-5.102,-5.1067,-5.1095,-5.1114,-5.1171,-5.1171,-5.1171,-5.1202,-5.1202,-5.1202,-5.1202,-5.1202,-5.1202,-5.1202,-5.1202,-5.1194,-5.1197,-5.1208,-5.121,-5.1269,-5.1287,-5.1295,-5.1292,-5.13,-5.13,-5.13,-5.13,-5.13,0.0,0.0,0.0,-3.7163,0.0,0.0,0.0,0.0,-3.7066,0.0,0.0,0.0,0.0,0.0,0.0,0.0,0.0,0.0,0.0,0.0,0.0,0.0,0.0,0.0,0.0,0.0,0.0,-3.429,-3.4288,-3.4358,-3.4442,-3.4442,-3.4834,-3.5712,-3.5768,-3.6539,-3.8091,-3.8128,-3.8577,-3.9418,-3.9418,-3.9418,-3.9391,-3.9391,-3.9391,-3.9418,-3.9418,-3.9444,-3.9495,-3.9495,-3.9546,-3.9602,-3.9602,-3.962,-3.9846,-4.1494,-4.275,-4.3723,-4.4512,-4.4895,-4.5014,-4.508,-4.5148,-4.5213,-4.5275,-4.5297,-4.5317,-4.5379,-4.54,-4.5419,-4.5495,-4.555,-4.5815,-4.6658,-4.7595,-4.8533,-4.9393,-5.0275,-5.0906,-5.0906,-5.0906,-5.0906,-5.0906,-5.0956,-5.1005,-5.1005,-5.1053,-5.1095,-5.1095,-5.1095,-5.1127,-5.1202,-5.1202,-5.1202,-5.1202,-5.1202,-5.1202,-5.1202,-5.1202,-5.1202,-5.1202,-5.1197,-5.1189,-5.12,-5.1269,-5.1306,-5.1287,-5.1292,-5.13,-5.13,-5.13,-5.13,0.0,0.0,-3.8934,-3.8192,0.0,0.0,0.0,0.0,0.0,0.0,0.0,0.0,0.0,0.0,0.0,0.0,0.0,0.0,0.0,0.0,0.0,0.0,0.0,0.0,0.0,0.0,0.0,-3.4092,-3.4173,-3.4245,-3.4269,-3.434,-3.4535,-3.4815,-3.5394,-3.5955,-3.6496,-3.7586,-3.8233,-3.8473,-3.8995,-3.9229,-3.9202,-3.9202,-3.9229,-3.9256,-3.9256,-3.9328,-3.9444,-3.9444,-3.9469,-3.9546,-3.9546,-3.9571,-3.9733,-4.0873,-4.1895,-4.2875,-4.4348,-4.4914,-4.4943,-4.5014,-4.508,-4.5148,-4.5213,-4.5256,-4.5297,-4.5317,-4.5379,-4.54,-4.5438,-4.5495,-4.5762,-4.6663,-4.7617,-4.8533,-4.9343,-5.0259,-5.0906,-5.0906,-5.0906,-5.0906,-5.0906,-5.0906,-5.0956,-5.0986,-5.102,-5.1053,-5.1095,-5.1095,-5.1108,-5.1127,-5.1127,-5.1127,-5.1127,-5.1134,-5.1139,-5.1202,-5.1202,-5.1202,-5.1202,-5.1194,-5.1206,-5.1189,-5.121,-5.1259,-5.1306,-5.1295,-5.1304,-5.13,-5.13,-5.13,-4.0093,-4.0046,0.0,-3.9106,-3.8717,0.0,-3.7828,0.0,0.0,0.0,0.0,0.0,0.0,0.0,0.0,0.0,0.0,0.0,0.0,-3.7646,0.0,0.0,0.0,0.0,0.0,0.0,-3.3895,-3.3947,-3.4074,-3.4124,0.0,0.0,-3.4293,-3.4293,-3.4857,-3.5304,-3.5621,-3.6671,-3.7448,-3.7966,-3.8486,-3.8877,-3.9101,-3.9101,-3.9129,-3.9156,-3.9156,-3.9229,-3.9328,-3.9328,-3.9373,-3.9469,-3.9495,-3.952,-3.9665,-4.0547,-4.1619,-4.2888,-4.4372,-4.4895,-4.4895,-4.4986,-4.5057,-4.5125,-4.517,-4.5254,-4.5297,-4.5297,-4.5338,-4.5399,-4.54,-4.5438,-4.582,-4.7029,-4.7812,-4.8576,-4.9712,-5.0474,-5.0909,-5.089,-5.0906,-5.0906,-5.0906,-5.0906,-5.0906,-5.0956,-5.0971,-5.099,-5.1053,-5.1053,-5.1067,-5.1101,-5.1101,-5.1101,-5.1101,-5.1108,-5.1114,-5.1159,-5.1171,-5.1171,-5.1202,-5.1202,-5.1194,-5.1197,-5.1208,-5.121,-5.1258,-5.1287,-5.1304,-5.13,-5.13,-5.13]}]]